[[{"header":{"parameterUnit":"m.s-1","parameterCategory":1,"la1":30.6,"la2":29.2853,"lo1":-89.7004,"lo2":-87.6739,"dy":0.0162,"dx":0.0183,"nx":112,"ny":82,"refTime":"2023-05-28T12:00:00:Z","depth":0,"parameterNumber":2,"parameterNumberName":"U-component_of_WINDS"},"data":[0.0,0.0,0.0,0.0,0.0,0.0,0.0,0.0,0.0,0.0,0.0,0.0,0.0,0.0,0.0,0.0,0.0,0.0,0.0,0.0,0.0,0.0,0.0,0.0,0.0,0.0,0.0,0.0,0.0,0.0,0.0,0.0,0.0,0.0,0.0,0.0,0.0,0.0,0.0,0.0,0.0,0.0,0.0,0.0,0.0,0.0,0.0,0.0,0.0,0.0,0.0,0.0,0.0,0.0,0.0,0.0,0.0,0.0,0.0,0.0,0.0,0.0,0.0,0.0,0.0,0.0,0.0,0.0,0.0,0.0,0.0,0.0,0.0,0.0,0.0,0.0,0.0,0.0,0.0,0.0,0.0,0.0,0.0,0.0,0.0,0.0,0.0,0.0,0.0,0.0,1.1185,1.1217,1.0215,0.9073,0.798,0.7919,0.7812,0.7649,0.0,0.0,0.0,0.0,0.0,0.0,0.0,0.0,0.0,0.0,0.0,0.0,0.0,0.0,0.0,0.0,0.0,0.0,0.0,0.0,0.0,0.0,0.0,0.0,0.0,0.0,0.0,0.0,0.0,0.0,0.0,0.0,0.0,0.0,0.0,0.0,0.0,0.0,0.0,0.0,0.0,0.0,0.0,0.0,0.0,0.0,0.0,0.0,0.0,0.0,0.0,0.0,0.0,0.0,0.0,0.0,0.0,0.0,0.0,0.0,0.0,0.0,0.0,0.0,0.0,0.0,0.0,0.0,0.0,0.0,0.0,0.0,0.0,0.0,0.0,0.0,0.0,0.0,0.0,0.0,0.0,0.0,0.0,0.0,0.0,0.0,0.0,0.0,0.0,0.0,0.0,0.0,0.0,0.0,0.0,0.0,0.0,0.0,0.0,0.0,0.0,0.0,0.0,0.0,1.0938,1.0166,0.8939,0.8102,0.7919,0.7919,0.7908,0.7831,0.0,0.0,0.0,0.0,0.0,0.0,0.0,0.0,0.0,0.0,0.0,0.0,0.0,0.0,0.0,0.0,0.0,0.0,0.0,0.0,0.0,0.0,0.0,0.0,0.0,0.0,0.0,0.0,0.0,0.0,0.0,0.0,0.0,0.0,0.0,0.0,0.0,0.0,0.0,0.0,0.0,0.0,0.0,0.0,0.0,0.0,0.0,0.0,0.0,0.0,0.0,0.0,0.0,0.0,0.0,0.0,0.0,0.0,0.0,0.0,0.0,0.0,0.0,0.0,0.0,0.0,0.0,0.0,0.0,0.0,0.0,0.0,0.0,0.0,0.0,0.0,0.0,0.0,0.0,0.0,0.0,0.0,0.0,0.0,0.0,0.0,0.0,0.0,0.0,0.0,0.0,0.0,0.0,0.0,0.0,0.0,0.0,0.0,0.0,0.0,0.0,0.0,0.0,0.9275,0.891,0.7776,0.7187,0.6517,0.5786,0.5724,0.5724,0.5724,0.5624,0.0,0.0,0.0,0.0,0.0,0.0,0.0,0.0,0.0,0.0,0.0,0.0,0.0,0.0,0.0,0.0,0.0,0.0,0.0,0.0,0.0,0.0,0.0,0.0,0.0,0.0,0.0,0.0,0.0,0.0,0.0,0.0,0.0,0.0,0.0,0.0,0.0,0.0,0.0,0.0,0.0,0.0,0.0,0.0,0.0,0.0,0.0,0.0,0.0,0.0,0.0,0.0,0.0,0.0,0.0,0.0,0.0,0.0,0.0,0.0,0.0,0.0,0.0,0.0,0.0,0.0,0.0,0.0,0.0,0.0,0.0,0.0,0.0,0.0,0.0,0.0,0.0,0.0,0.0,0.0,0.0,0.0,0.0,0.0,0.0,0.0,0.0,0.0,0.0,0.0,0.0,0.0,0.0,0.0,0.0,0.0,0.0,0.0,0.0,0.0,0.0,0.0,0.7393,0.6972,0.602,0.5602,0.4989,0.4011,0.3889,0.3889,0.3889,0.3889,0.0,0.0,0.0,0.0,0.0,0.0,0.0,0.0,0.0,0.0,0.0,0.0,0.0,0.0,0.0,0.0,0.0,0.0,0.0,0.0,0.0,0.0,0.0,0.0,0.0,0.0,0.0,0.0,0.0,0.0,0.0,0.0,0.0,0.0,0.0,0.0,0.0,0.0,0.0,0.0,0.0,0.0,0.0,0.0,0.0,0.0,0.0,0.0,0.0,0.0,0.0,0.0,0.0,0.0,0.0,0.0,0.0,0.0,0.0,0.0,0.0,0.0,0.0,0.0,0.0,0.0,0.0,0.0,0.0,0.0,0.0,0.0,0.0,0.0,0.0,0.0,0.0,0.0,0.0,0.0,0.0,0.0,0.0,0.0,0.0,0.0,0.0,0.0,0.0,0.0,0.0,0.0,0.0,0.0,0.0,0.0,0.0,0.0,0.0,0.0,0.0,0.0,0.6628,0.6023,0.5906,0.4808,0.4011,0.3889,0.3889,0.3889,0.3889,0.3889,0.0,0.0,0.0,0.0,0.0,0.0,0.0,0.0,0.0,0.0,0.0,0.0,0.0,0.0,0.0,0.0,0.0,0.0,0.0,0.0,0.0,0.0,0.0,0.0,0.0,0.0,0.0,0.0,0.0,0.0,0.0,0.0,0.0,0.0,0.0,0.0,0.0,0.0,0.0,0.0,0.0,0.0,0.0,0.0,0.0,0.0,0.0,0.0,0.0,0.0,0.0,0.0,0.0,0.0,0.0,0.0,0.0,0.0,0.0,0.0,0.0,0.0,0.0,0.0,0.0,0.0,0.0,0.0,0.0,0.0,0.0,0.0,0.0,0.0,0.0,0.0,0.0,0.0,0.0,0.0,0.0,0.0,0.0,0.0,0.0,0.0,0.0,0.0,0.0,0.0,0.0,0.0,0.0,0.0,0.0,0.0,0.0,0.0,0.0,0.0,0.0,0.0,0.4855,0.4635,0.4681,0.4071,0.3642,0.3642,0.3455,0.3332,0.3332,0.0,0.0,0.0,0.0,0.0,0.0,0.0,0.0,0.0,0.0,0.0,0.0,0.0,0.0,0.0,0.0,0.0,0.0,0.0,0.0,0.0,0.0,0.0,0.0,0.0,0.0,0.0,0.0,0.0,0.0,0.0,0.0,0.0,0.0,0.0,0.0,0.0,0.0,0.0,0.0,0.0,0.0,0.0,0.0,0.0,0.0,0.0,0.0,0.0,0.0,0.0,0.0,0.0,0.0,0.0,0.0,0.0,0.0,0.0,0.0,0.0,0.0,0.0,0.0,0.0,0.0,0.0,0.0,0.0,0.0,0.0,0.0,0.0,0.0,0.0,0.0,0.0,0.0,0.0,0.0,0.0,0.0,0.0,0.0,0.0,0.0,0.0,0.0,0.0,0.0,0.0,0.0,0.0,0.0,0.0,0.0,0.0,0.0,0.0,0.0,0.0,0.0,0.388,0.3779,0.3783,0.3761,0.3517,0.3332,0.3332,0.3146,0.3023,0.3023,0.0,0.0,0.0,0.0,0.0,0.0,0.0,0.0,0.0,0.0,0.0,0.0,0.0,0.0,0.0,0.0,0.0,0.0,0.0,0.0,0.0,0.0,0.0,0.0,0.0,0.0,0.0,0.0,0.0,0.0,0.0,0.0,0.0,0.0,0.0,0.0,0.0,0.0,0.0,0.0,0.0,0.0,0.0,0.0,0.0,0.0,0.0,0.0,0.0,0.0,0.0,0.0,0.0,0.0,0.0,0.0,0.0,0.0,0.0,0.0,0.0,0.0,0.0,0.0,0.0,0.0,0.0,0.0,0.0,0.0,0.0,0.0,0.0,0.0,0.0,0.0,0.0,0.0,0.0,0.0,0.0,0.0,0.0,0.0,0.0,0.0,0.0,0.0,0.0,0.0,0.0,0.0,0.0,0.0,0.0,0.0,0.0,0.0,0.0,0.0,0.0,0.0,0.377,0.3572,0.3455,0.3455,0.3146,0.2961,0.2961,0.2961,0.2961,0.0,0.0,0.0,0.0,0.0,0.0,0.0,0.0,0.0,0.0,0.0,0.0,0.0,0.0,0.0,0.0,0.0,0.0,0.0,0.0,0.0,0.0,0.0,0.0,0.0,0.0,0.0,0.0,0.0,0.0,0.0,0.0,0.0,0.0,0.0,0.0,0.0,0.0,0.0,0.0,0.0,0.0,0.0,0.0,0.0,0.0,0.0,0.0,0.0,0.0,0.0,0.0,0.0,0.0,0.0,0.0,0.0,0.0,0.0,0.0,0.0,0.0,0.0,0.0,0.0,0.0,0.0,0.0,0.0,0.0,0.0,0.0,0.0,0.0,0.0,0.0,0.0,0.0,0.0,0.0,0.0,0.0,0.0,0.0,0.0,0.0,0.0,0.0,0.0,0.0,0.0,0.0,0.0,0.0,0.0,0.0,0.0,0.0,0.0,0.0,0.0,0.0,0.0,0.0597,0.1155,0.1354,0.0431,0.0,-0.0185,-0.0185,-0.0369,-0.0554,-0.0554,0.0,0.0,0.0,0.0,0.0,0.0,0.0,0.0,0.0,0.0,0.0,0.0,0.0,0.0,0.0,0.0,0.0,0.0,0.0,0.0,0.0,0.0,0.0,0.0,0.0,0.0,0.0,0.0,0.0,0.0,0.0,0.0,0.0,0.0,0.0,0.0,0.0,0.0,0.0,0.0,0.0,0.0,0.0,0.0,0.0,0.0,0.0,0.0,0.0,0.0,0.0,0.0,0.0,0.0,0.0,0.0,0.0,0.0,0.0,0.0,0.0,0.0,0.0,0.0,0.0,0.0,0.0,0.0,0.0,0.0,0.0,0.0,0.0,0.0,0.0,0.0,0.0,0.0,0.0,0.0,0.0,0.0,0.0,0.0,0.0,0.0,0.0,0.0,0.0,0.0,0.0,0.0,0.0,0.0,0.0,0.0,0.0,0.0,0.0,0.0,0.0,0.0,-0.0902,-0.0427,-0.0308,-0.1107,-0.1477,-0.1723,-0.1723,-0.1908,-0.1785,-0.1231,0.0,0.0,0.0,0.0,0.0,0.0,0.0,0.0,0.0,0.0,0.0,0.0,0.0,0.0,0.0,0.0,0.0,0.0,0.0,0.0,0.0,0.0,0.0,0.0,0.0,0.0,0.0,0.0,0.0,0.0,0.0,0.0,0.0,0.0,0.0,0.0,0.0,0.0,0.0,0.0,0.0,0.0,0.0,0.0,0.0,0.0,0.0,0.0,0.0,0.0,0.0,0.0,0.0,0.0,0.0,0.0,0.0,0.0,0.0,0.0,0.0,0.0,0.0,0.0,0.0,0.0,0.0,0.0,0.0,0.0,0.0,0.0,0.0,0.0,0.0,0.0,0.0,0.0,0.0,0.0,0.0,0.0,0.0,0.0,0.0,0.0,0.0,0.0,0.0,0.0,0.0,0.0,0.0,0.0,0.0,0.0,0.0,0.0,0.0,0.0,0.0,0.0,-0.1506,-0.1647,-0.1785,-0.1908,-0.2154,-0.2339,-0.2339,-0.2339,-0.1847,-0.0616,0.0,0.0,0.0,0.0,0.0,0.0,0.0,0.0,0.0,0.0,0.0,0.0,0.0,0.0,0.0,0.0,0.0,0.0,0.0,0.0,0.0,0.0,0.0,0.0,0.0,0.0,0.0,0.0,0.0,0.0,0.0,0.0,0.0,0.0,0.0,0.0,0.0,0.0,0.0,0.0,0.0,0.0,0.0,0.0,0.0,0.0,0.0,0.0,0.0,0.0,0.0,0.0,0.0,0.0,0.0,0.0,0.0,0.0,0.0,0.0,0.2059,0.0,0.0,0.0,0.0,0.0,0.0,0.0,0.0,0.0,0.0,0.0,0.0,0.0,0.0,0.0,0.0,0.0,0.0,0.0,0.0,0.0,0.0,0.0,0.0,0.0,0.0,0.0,0.0,0.0,0.0,0.0,0.0,0.0,0.0,0.0,0.0,0.0,0.0,0.0,0.0,0.0,-0.4595,-0.3992,-0.3815,-0.4865,-0.5051,-0.5051,-0.5051,-0.5051,-0.4928,-0.4681,-0.3951,0.0,0.0,0.0,0.0,0.0,0.0,0.0,0.0,0.0,0.0,0.0,0.0,0.0,0.0,0.0,0.0,0.0,0.0,0.0,0.0,0.0,0.0,0.0,0.0,0.0,0.0,0.0,0.0,0.0,0.0,0.0,0.0,0.0,0.0,0.0,0.0,0.0,0.0,0.0,0.0,0.0,0.0,0.0,0.0,0.0,0.0,0.0,0.0,0.0,0.0,0.0,0.0,0.0,0.0,0.0,0.0,0.0,0.0,0.0,0.0,0.2177,0.0,0.0,0.0,0.0,0.0,0.0,0.0,0.0,0.0,0.0,0.0,0.0,0.0,0.0,0.0,0.0,0.0,0.0,0.0,0.0,0.0,0.0,0.0,0.0,0.0,0.0,0.0,0.0,0.0,0.0,0.0,0.0,0.0,0.0,0.0,0.0,0.0,0.0,0.0,0.0,-0.573,-0.5297,-0.5111,-0.5855,-0.5916,-0.5916,-0.5916,-0.5916,-0.5607,-0.4988,-0.4897,0.0,0.0,0.0,0.0,0.0,0.0,0.0,0.0,0.0,0.0,0.0,0.0,0.0,0.0,0.0,0.0,0.0,0.0,0.0,0.0,0.0,0.0,0.0,0.0,0.0,0.0,0.0,0.0,0.0,0.0,0.0,0.0,0.0,0.0,0.0,0.0,0.0,0.0,0.0,0.0,0.0,0.0,0.0,0.0,0.0,0.0,0.0,0.0,0.0,0.0,0.0,0.0,0.0,0.0888,0.0415,0.0415,-0.0593,-0.0478,0.0543,0.1451,0.2024,0.2297,0.1187,0.0,0.0,0.0,0.0,0.0,0.0,0.0,0.0,0.0,0.0,0.0,0.0,0.0,0.0,0.0,0.0,0.0,0.0,0.0,0.0,0.0,0.0,0.0,0.0,0.1272,0.1041,0.0,0.0,0.0,0.0,0.0,0.0,0.0,0.0,0.0,0.0,0.0,0.0,-0.5916,-0.5916,-0.5916,-0.5916,-0.5916,-0.5916,-0.5916,-0.5916,-0.5427,-0.4324,-0.5381,-0.5558,0.0,0.0,0.0,0.0,0.0,0.0,0.0,0.0,0.0,0.0,0.0,0.0,0.0,0.0,0.0,0.0,0.0,0.0,0.0,0.0,0.0,0.0,0.0,0.0,0.0,0.0,0.0,0.0,0.0,0.0,0.0,0.0,0.2063,0.1909,0.0,0.0,0.0,0.0,0.0,0.0,0.0,0.0,0.0,0.0,0.0,0.0,0.0,0.1717,0.181,0.1808,0.1851,0.1887,0.1818,0.178,0.1718,0.1596,0.0982,0.0061,0.0244,0.0,0.078,0.0596,0.0,0.0,0.0,0.0,0.0,0.0,0.0,0.0,0.0,0.0,0.0,0.0,0.0,0.0,0.0,0.0,0.0,0.0,0.0,0.0,0.0,0.0,-0.1713,-0.153,-0.1473,-0.1783,0.0,-0.1346,-0.0061,-0.1628,-0.2674,0.0,0.0,0.0,0.0,0.0,0.0,0.0,-0.5916,-0.5916,-0.5916,-0.5916,-0.5916,-0.5916,-0.5916,-0.5916,-0.5826,-0.5714,-0.592,-0.5994,-0.6013,-0.6029,0.0,0.0,0.0,0.0,0.0,0.0,0.0,0.0,0.0,0.0,0.0,0.0,0.0,0.0,0.0,0.0,0.0,0.0,0.0,0.0,0.0,0.0,0.0,0.0,0.0,0.0,0.0,0.0,0.0,0.1924,0.1681,0.1681,0.1721,0.1707,0.0,0.0,0.0,0.0,0.0,0.0,0.0,0.0,0.0,0.1729,0.173,0.1761,0.1882,0.1853,0.1889,0.1937,0.1964,0.1977,0.1977,0.1234,0.0555,0.0,0.0,-0.0368,-0.0975,-0.1631,-0.2328,-0.3064,0.0,0.0,0.0,0.0,-0.3954,-0.3905,-0.3258,-0.3036,0.0,-0.2363,0.0,0.0,0.0,0.0,0.0,0.0,0.0,0.0,0.0,0.0,-0.2863,-0.215,-0.1969,-0.2154,-0.2707,-0.2523,-0.258,0.0,-0.4043,-0.4307,-0.5669,0.0,0.0,0.0,0.0,-0.5916,-0.5916,-0.5916,-0.5916,-0.5916,-0.5963,-0.5932,-0.5932,-0.6039,-0.6082,-0.6123,-0.6125,-0.6159,-0.6237,-0.629,-0.5542,0.0,0.0,0.0,0.0,0.0,0.0,0.0,0.0,0.0,0.0,0.0,0.0,0.0,0.0,0.0,0.0,0.0,0.0,0.0,0.0,0.0,0.0,0.0,0.0,0.0,0.0,0.0,0.0,0.1728,0.1629,0.1307,0.1522,0.1568,0.0,0.0,0.0,0.0,0.0,0.0,0.1715,0.1448,0.1459,0.1816,0.1816,0.1858,0.1885,0.1886,0.1916,0.1977,0.1977,0.1977,0.1977,0.0987,0.0308,0.0,0.0,-0.0739,-0.2029,-0.2615,-0.3021,-0.3366,-0.4275,-0.4836,-0.5116,-0.5138,-0.5383,-0.5513,-0.4639,-0.4361,-0.4296,-0.3979,-0.3842,-0.4003,-0.4861,0.0,0.0,0.0,0.0,-0.5461,-0.4584,-0.4361,-0.413,-0.3192,-0.3016,-0.3016,-0.3016,-0.3754,-0.4616,0.0,-0.4863,-0.474,-0.573,0.0,0.0,0.0,0.0,-0.5951,-0.5951,-0.5972,-0.5984,-0.5984,-0.6045,-0.6023,-0.6023,-0.6145,-0.619,-0.6215,-0.6215,-0.6225,-0.6249,-0.6317,-0.5358,-0.3175,0.0,0.0,0.0,0.0,0.0,0.0,0.0,0.0,0.0,0.0,0.0,0.0,0.0,0.0,0.0,0.0,0.0,0.0,0.0,0.0,0.0,0.0,0.0,0.0,0.0,0.0,0.0,0.0,0.0,0.032,0.1134,0.0,0.0,0.0,0.0,0.1702,0.0745,0.0643,0.1746,0.0764,0.066,0.1792,0.1793,0.1823,0.1885,0.1886,0.1916,0.1977,0.1977,0.1977,0.1977,0.1915,0.1234,0.0,0.0,-0.0739,-0.1908,-0.0677,-0.0854,-0.1924,-0.1982,-0.2738,-0.3829,-0.3887,-0.4691,-0.5788,-0.5817,-0.5788,-0.5588,-0.4357,-0.3934,-0.3894,-0.3891,-0.47,0.0,0.0,-0.5774,-0.5796,-0.5764,-0.5788,-0.5788,-0.573,-0.5732,-0.5732,-0.5732,-0.5732,-0.5421,0.0,-0.4988,-0.5794,-0.5916,0.0,-0.5916,-0.5916,-0.5928,-0.5982,-0.5982,-0.6117,-0.6168,-0.6168,-0.6172,-0.6174,-0.6174,-0.6178,-0.6217,-0.6304,-0.6308,-0.6349,-0.6502,-0.6512,-0.6447,-0.6245,-0.3536,0.0,0.0,0.0,0.0,0.0,0.0,0.0,0.0,0.0,0.0,0.0,0.0,0.0,0.0,0.0,0.0,0.0,0.0,0.0,0.0,0.0,0.0,0.0,0.0,0.0,0.0,0.0,0.0,0.1174,0.1514,0.0,0.1173,0.1507,0.1788,0.1788,0.1423,0.138,0.1778,0.1389,0.1393,0.1795,0.1814,0.1844,0.1885,0.1905,0.1936,0.1977,0.1977,0.1977,0.1977,0.1111,0.0432,0.0,0.0,-0.0246,-0.0616,0.074,0.0,-0.2014,-0.2807,-0.3405,-0.3938,-0.4818,-0.5441,-0.5874,-0.5906,-0.5916,-0.5849,-0.5389,-0.5236,-0.5157,-0.5186,-0.5479,-0.5827,-0.5859,-0.587,-0.5876,-0.5908,-0.5916,-0.5916,-0.5916,-0.5916,-0.5933,-0.593,-0.5942,-0.5831,-0.5439,-0.5725,-0.5942,-0.5942,-0.6051,-0.6086,-0.6086,-0.6114,-0.6135,-0.6135,-0.6161,-0.618,-0.618,-0.6233,-0.6268,-0.6268,-0.6323,-0.6372,-0.6402,-0.6404,-0.6421,-0.652,-0.652,-0.5577,-0.3691,-0.2698,-0.1229,0.0,0.0,0.0,0.0,0.0,0.0,0.0,0.0,0.0,0.0,0.0,0.0,0.0,0.0,0.0,0.0,0.0,0.0,0.0,0.0,0.0,0.0,0.0,0.0,0.0,0.1772,0.163,0.1227,0.1523,0.1644,0.1184,0.1529,0.182,0.182,0.1783,0.1795,0.1795,0.1795,0.1795,0.1795,0.1814,0.1844,0.1885,0.1906,0.1937,0.1977,0.1977,0.1977,0.1977,0.1111,0.0678,0.0678,0.0678,0.0678,0.074,0.1605,0.0925,-0.0739,-0.1601,-0.2461,-0.3383,-0.4247,-0.5114,-0.5916,-0.5916,-0.5916,-0.5916,-0.5916,-0.5916,-0.5916,-0.5916,-0.5916,-0.5916,-0.5916,-0.5916,-0.5916,-0.5916,-0.5941,-0.5963,-0.5963,-0.5986,-0.6023,-0.6084,-0.6096,-0.6112,-0.617,-0.6135,-0.6096,-0.6096,-0.6143,-0.619,-0.6221,-0.6227,-0.6237,-0.627,-0.6274,-0.6274,-0.6274,-0.6327,-0.6364,-0.6364,-0.6447,-0.6553,-0.6522,-0.6074,-0.5807,-0.5781,-0.5803,-0.4868,-0.2906,-0.2433,-0.0751,0.223,0.0,0.0,0.0,0.0,0.0,0.0,0.0,0.0,0.0,0.0,0.0,0.0,0.0,0.0,0.0,0.0,0.0,0.0,0.0,0.0,0.0,0.0,0.0,0.171,0.1786,0.1413,0.0267,0.1154,0.1393,0.0274,0.1166,0.1795,0.1795,0.1795,0.1795,0.1795,0.1795,0.1795,0.1795,0.1796,0.1825,0.1885,0.1887,0.1917,0.1977,0.1977,0.1977,0.1977,0.1977,0.1977,0.1977,0.1977,0.1977,0.1977,0.1977,0.1977,0.1977,0.1977,0.0308,-0.2031,-0.2031,-0.3694,-0.5916,-0.5916,-0.5916,-0.5916,-0.5916,-0.5916,-0.5916,-0.5916,-0.5916,-0.5916,-0.5916,-0.5916,-0.5919,-0.5921,-0.5926,-0.5992,-0.5994,-0.6121,-0.6182,-0.6184,-0.6184,-0.6186,-0.6188,-0.6188,-0.6188,-0.6186,-0.6186,-0.6219,-0.6306,-0.6321,0.0,-0.651,-0.652,-0.6522,-0.6524,-0.6524,-0.6524,-0.6524,-0.6539,-0.6483,-0.646,-0.51,-0.4289,-0.4235,-0.4285,-0.4313,-0.4245,-0.2878,-0.0754,0.22,0.0,0.0,0.0,0.0,0.0,0.0,0.0,0.0,0.0,0.0,0.0,0.0,0.0,0.0,0.0,0.0,0.0,0.0,0.0,0.0,0.0,0.1793,0.1802,0.1792,0.1763,0.1668,0.1383,0.1617,0.1679,0.1337,0.1622,0.1795,0.1795,0.1795,0.1795,0.1795,0.1795,0.1795,0.1795,0.1817,0.1847,0.1885,0.1908,0.1938,0.1977,0.1977,0.1977,0.1977,0.1977,0.1977,0.1977,0.1977,0.1977,0.1977,0.1977,0.1977,0.1915,0.0925,-0.0493,-0.2092,-0.3015,-0.4433,-0.5916,-0.5916,-0.5916,-0.5916,-0.5916,-0.5916,-0.5916,-0.5916,-0.5916,-0.5916,-0.5916,-0.5916,-0.5933,-0.5936,-0.5972,-0.6007,-0.6131,-0.6163,-0.6198,-0.6266,-0.628,-0.6298,-0.6432,-0.6446,-0.6357,-0.629,-0.6335,-0.6454,-0.6413,-0.6417,0.0,-0.6518,-0.652,-0.6547,-0.6545,-0.6553,-0.6553,-0.6553,-0.5611,-0.4975,-0.491,-0.3571,-0.2763,-0.2753,-0.2762,-0.2228,-0.1216,0.0205,0.1374,0.0,0.0,0.0,0.0,0.0,0.0,0.0,0.0,0.0,0.0,0.0,0.0,0.0,0.0,0.0,0.0,0.0,0.0,0.0,0.0,0.0,0.0,0.1816,0.1823,0.1823,0.1784,0.1795,0.1795,0.1795,0.1795,0.1795,0.1795,0.1795,0.1795,0.1795,0.1795,0.1795,0.1795,0.1795,0.1795,0.1812,0.1842,0.1885,0.1903,0.1934,0.1977,0.1977,0.1977,0.1977,0.1977,0.1977,0.1977,0.1977,0.1977,0.1977,0.1977,0.1977,0.0,0.0,0.0,0.0,0.0,-0.5235,-0.5916,-0.5916,-0.5916,-0.5916,-0.5916,-0.5916,-0.5916,-0.5916,-0.5916,-0.5925,-0.5963,-0.5912,-0.5994,-0.6084,-0.6135,-0.6176,-0.6225,-0.6266,-0.631,-0.6364,-0.6374,-0.639,-0.651,-0.652,0.0,-0.6384,-0.6419,-0.6533,-0.6504,-0.6545,-0.6535,-0.6506,-0.6545,-0.6541,-0.6527,-0.5987,-0.5647,-0.5647,-0.4304,0.0,0.0,0.0,-0.1287,-0.1287,-0.1287,0.0,0.0,0.0,0.1576,0.2181,0.0,0.0,0.0,0.2215,0.2221,0.0,0.0,0.0,0.0,0.0,0.0,0.0,0.0,0.0,0.0,0.0,0.0,0.0,0.0,0.0,0.0,0.1778,0.1795,0.1795,0.1795,0.1795,0.1795,0.1795,0.1795,0.1795,0.1795,0.1795,0.1795,0.1795,0.1795,0.1795,0.1795,0.0,0.0,0.0,0.1824,0.1944,0.1945,0.2036,0.2099,0.2099,0.2099,0.2038,0.2038,0.2038,0.1977,0.1977,0.1977,0.1977,0.1977,0.1977,0.1977,0.1853,0.0247,-0.2278,-0.4742,-0.5794,-0.5916,-0.5916,0.0,0.0,-0.5916,-0.5916,-0.5919,-0.5931,-0.5933,-0.5951,-0.5978,-0.6005,-0.6025,-0.6174,-0.6255,-0.6319,-0.6329,-0.6394,-0.652,-0.652,-0.652,-0.652,-0.652,-0.652,-0.652,-0.652,-0.652,-0.6549,-0.6564,-0.6506,-0.6551,-0.6564,-0.6504,-0.6457,-0.6264,0.0,0.0,-0.4108,-0.2859,-0.1976,-0.1881,-0.0612,0.0137,0.0137,0.0137,0.0137,0.0137,0.0137,0.0817,0.2222,0.2222,0.2222,0.2223,0.221,0.2221,0.0,0.0,0.0,0.0,0.0,0.0,0.0,0.0,0.0,0.0,0.0,0.0,0.0,0.0,0.0,0.1782,0.1791,0.1795,0.1795,0.1795,0.1795,0.1795,0.1795,0.1795,0.1795,0.1795,0.1795,0.1795,0.1795,0.1795,0.1795,0.1795,0.1795,0.1795,0.1795,0.1939,0.2298,0.2298,0.2455,0.2776,0.0,0.0,0.2406,0.2406,0.2284,0.1977,0.1977,0.1977,0.1977,0.1977,0.1977,0.1914,0.0802,-0.0616,-0.2215,-0.3692,-0.4988,-0.5916,-0.5916,-0.5916,-0.5916,-0.5916,-0.5916,-0.5931,-0.5942,-0.5964,0.0,-0.6131,-0.6155,-0.6178,-0.6268,-0.6302,-0.6335,-0.6411,-0.6508,-0.652,-0.652,-0.652,-0.652,-0.652,-0.652,-0.652,-0.652,-0.652,-0.6527,-0.6545,-0.6533,-0.6527,-0.6545,-0.6531,-0.6074,-0.4908,-0.4572,-0.3891,-0.2799,-0.1369,-0.0477,-0.0403,0.0944,0.1757,0.1757,0.1757,0.1757,0.1757,0.1757,0.189,0.2222,0.2222,0.2222,0.2223,0.2167,0.2169,0.0,0.0,0.0,0.0,0.0,0.0,0.0,0.0,0.0,0.0,0.0,0.2495,0.1932,0.0,0.1777,0.1793,0.1795,0.1795,0.1795,0.1795,0.1795,0.1795,0.1795,0.1795,0.1795,0.1795,0.1795,0.1795,0.1795,0.1795,0.1795,0.1908,0.202,0.202,0.2188,0.2337,0.259,0.2591,0.2753,0.3023,0.3023,0.29,0.2775,0.2775,0.2653,0.2531,0.2531,0.2407,0.2222,0.2099,0.1977,0.1915,0.1234,-0.0246,-0.2154,-0.3445,-0.474,-0.5916,-0.5916,-0.5916,-0.5916,-0.5916,-0.5949,-0.5932,-0.5976,-0.6021,-0.6135,-0.6223,-0.6249,-0.627,-0.6362,-0.6386,-0.6396,-0.651,-0.652,-0.652,-0.652,-0.652,-0.6252,-0.551,-0.5376,-0.5173,-0.4431,-0.4297,-0.4768,-0.6252,-0.652,-0.652,-0.652,-0.5847,-0.5121,-0.4407,-0.3052,-0.1899,-0.1221,0.0204,0.1084,0.1077,0.1817,0.2222,0.2222,0.2222,0.2222,0.2222,0.2222,0.2222,0.2222,0.2222,0.2222,0.2222,0.3094,0.3094,0.0,0.0,0.0,0.0,0.0,0.0,0.0,0.4019,0.3492,0.2353,0.2141,0.2096,0.1847,0.1795,0.1795,0.1795,0.1795,0.1795,0.1795,0.1795,0.1795,0.1795,0.1795,0.1795,0.1795,0.1795,0.1795,0.1851,0.1851,0.1907,0.1964,0.2188,0.23,0.23,0.2581,0.2731,0.287,0.288,0.2986,0.3194,0.3203,0.3146,0.3085,0.3085,0.3085,0.3023,0.3023,0.2837,0.259,0.2284,0.2223,0.2223,0.2223,0.074,-0.1539,-0.2706,-0.4123,-0.5483,-0.5483,-0.5669,-0.5859,-0.5752,-0.5743,-0.5806,-0.5841,-0.5898,-0.6031,-0.6251,-0.6343,-0.6362,-0.6301,-0.6252,-0.6252,-0.6252,-0.6049,-0.5914,-0.6049,-0.5847,-0.5307,-0.4097,-0.3896,-0.3492,-0.2282,-0.2081,-0.2886,-0.5307,-0.5644,-0.5644,-0.5644,-0.4635,-0.3762,-0.3493,-0.1411,0.0134,0.0403,0.1547,0.2222,0.2222,0.2222,0.2222,0.2222,0.2222,0.2222,0.2222,0.2222,0.2222,0.2222,0.2222,0.2357,0.2625,0.403,0.4099,0.8618,0.8412,0.8408,0.8458,0.7618,0.6738,0.0,0.577,0.4644,0.3614,0.3404,0.3072,0.2018,0.1795,0.1795,0.1795,0.1795,0.1795,0.1795,0.1795,0.1795,0.1795,0.1795,0.1795,0.1795,0.1795,0.1907,0.2132,0.2132,0.23,0.2581,0.2637,0.2637,0.2637,0.2693,0.283,0.3168,0.3215,0.3445,0.381,0.3801,0.3703,0.3455,0.3455,0.3271,0.3023,0.3023,0.2961,0.2961,0.29,0.29,0.29,0.29,0.1972,0.0554,-0.0185,-0.2031,-0.4122,-0.4122,-0.4925,-0.5808,-0.5256,-0.5096,-0.5129,-0.5265,-0.5312,-0.5466,-0.6279,-0.6504,-0.6307,-0.5714,-0.5515,-0.5515,-0.5515,-0.4502,-0.3761,-0.4434,-0.3491,-0.255,-0.2349,-0.2349,-0.2282,-0.2148,-0.2081,-0.2215,-0.255,-0.2617,-0.2617,-0.2617,-0.2416,-0.1879,-0.0605,-0.0202,0.0538,0.1817,0.2087,0.2222,0.2222,0.2222,0.2222,0.2222,0.2222,0.2222,0.2222,0.2222,0.2222,0.2222,0.2222,0.2826,0.41,0.4233,0.4433,0.9387,0.912,0.8945,0.8845,0.841,0.7904,0.7459,0.6943,0.6093,0.4465,0.3968,0.3467,0.2243,0.202,0.202,0.202,0.2188,0.23,0.23,0.23,0.23,0.23,0.23,0.2188,0.1851,0.1795,0.1907,0.2188,0.2188,0.2356,0.2693,0.2861,0.2915,0.2915,0.3139,0.3335,0.3505,0.3562,0.3681,0.3921,0.3921,0.3826,0.3703,0.3703,0.3642,0.3517,0.3332,0.3271,0.3271,0.3085,0.3023,0.3023,0.3023,0.2651,0.2034,0.0985,-0.0615,-0.2214,-0.2214,-0.297,-0.381,-0.3141,-0.3887,-0.4859,-0.3471,-0.3702,-0.4264,-0.355,-0.3355,-0.3288,-0.2954,-0.2887,-0.2887,-0.2887,-0.2416,-0.2148,-0.2618,-0.2215,-0.161,-0.1007,-0.0873,-0.0605,0.0269,0.0403,0.0403,0.0403,-0.1007,-0.2081,-0.2081,-0.141,-0.0336,0.1143,0.1278,0.1547,0.2155,0.2222,0.2222,0.2222,0.2222,0.2222,0.2222,0.2222,0.2222,0.2222,0.2222,0.2222,0.2222,0.3027,0.3697,0.4367,0.6435,0.7434,0.9884,0.9676,0.9442,0.9226,0.8878,0.8484,0.787,0.7479,0.6811,0.5306,0.4803,0.4357,0.347,0.3025,0.2858,0.2858,0.2747,0.2698,0.271,0.2711,0.2716,0.2728,0.273,0.2559,0.216,0.2087,0.2131,0.2411,0.2467,0.2579,0.2917,0.3139,0.325,0.325,0.3475,0.3617,0.3677,0.3739,0.3859,0.3921,0.3921,0.3889,0.3889,0.3889,0.3889,0.3889,0.3703,0.358,0.358,0.3332,0.3271,0.3271,0.3271,0.3271,0.3146,0.2156,0.0862,-0.0431,-0.0431,-0.1181,-0.1953,-0.1265,-0.2255,-0.3423,-0.165,-0.1863,-0.2549,-0.1409,-0.1073,-0.1073,-0.0872,-0.0806,-0.0806,-0.0806,-0.047,-0.0336,-0.0738,-0.0537,-0.0067,0.0605,0.074,0.1076,0.2019,0.2222,0.2222,0.2222,0.0403,-0.094,-0.094,0.0,0.1009,0.2087,0.2222,0.2222,0.2222,0.2222,0.2222,0.2222,0.2222,0.2222,0.2222,0.2222,0.2222,0.2222,0.2558,0.2759,0.2759,0.4166,0.5168,0.5704,0.8233,0.9763,0.9659,0.9663,0.9604,0.972,0.8865,0.8029,0.7974,0.7083,0.6248,0.6137,0.6137,0.6137,0.6082,0.5194,0.4416,0.4416,0.3473,0.2708,0.2806,0.2812,0.2829,0.2874,0.288,0.288,0.2879,0.2744,0.2805,0.3026,0.3081,0.3194,0.3531,0.3587,0.3587,0.3587,0.3587,0.3617,0.3677,0.3739,0.3859,0.3921,0.3921,0.3889,0.3889,0.3889,0.3889,0.3889,0.3889,0.3889,0.3889,0.3889,0.3889,0.3889,0.3889,0.3889,0.3889,0.3826,0.2589,0.0923,0.0923,0.0124,-0.0819,-0.0256,-0.0065,-0.0066,-0.0067,-0.0067,-0.0269,-0.094,-0.1073,-0.094,-0.0202,0.0,0.0,0.0,0.1075,0.1882,0.1142,0.2084,0.296,0.2693,0.2627,0.2559,0.2222,0.2222,0.2222,0.2222,0.2155,0.2087,0.2087,0.2087,0.2155,0.2222,0.2222,0.2222,0.2222,0.2222,0.2222,0.2222,0.2222,0.2222,0.2222,0.2222,0.2222,0.2222,0.3564,0.4234,0.4234,0.5633,0.7234,0.8969,0.9033,1.0237,1.012,1.007,1.0019,0.9856,0.9478,0.9258,0.9475,0.9196,0.8751,0.814,0.7861,0.7467,0.6689,0.6303,0.5847,0.5002,0.4763,0.4404,0.356,0.3446,0.3453,0.3472,0.3473,0.3473,0.3473,0.309,0.2954,0.3185,0.3243,0.336,0.3709,0.367,0.3666,0.3707,0.3669,0.3677,0.3737,0.3859,0.3899,0.3921,0.3921,0.3889,0.3889,0.3889,0.3889,0.3889,0.3889,0.3889,0.3889,0.3889,0.3889,0.3889,0.3889,0.3889,0.3889,0.3889,0.3455,0.2898,0.2898,0.2254,0.147,0.2186,0.1309,0.0334,0.2014,0.1814,0.1276,0.2217,0.2486,0.2554,0.2757,0.2824,0.2824,0.2824,0.3228,0.3363,0.2622,0.2891,0.3027,0.2491,0.2357,0.2357,0.2222,0.2222,0.2222,0.2222,0.2222,0.2222,0.2222,0.2222,0.2222,0.2222,0.2222,0.2222,0.2222,0.2222,0.2222,0.2222,0.2222,0.2222,0.2222,0.3094,0.3564,0.3564,0.4966,0.57,0.57,0.7367,0.8501,0.9102,1.0571,1.1692,1.0385,1.0374,1.0363,1.0202,1.0143,1.0202,1.0363,1.0417,1.0253,0.9644,0.9416,0.9023,0.83,0.7962,0.7474,0.653,0.5985,0.554,0.5169,0.4355,0.3961,0.4482,0.4131,0.3834,0.3834,0.3474,0.3337,0.3477,0.3473,0.3592,0.3768,0.3732,0.3729,0.3827,0.3732,0.374,0.386,0.3901,0.3871,0.3892,0.3871,0.3889,0.3889,0.3889,0.3889,0.3889,0.3889,0.3889,0.3889,0.3889,0.3889,0.3889,0.3889,0.3889,0.3889,0.3889,0.3889,0.3892,0.3912,0.3538,0.316,0.3631,0.277,0.1815,0.3498,0.3294,0.2821,0.3969,0.4308,0.4308,0.4308,0.4308,0.4308,0.4308,0.4308,0.4172,0.3701,0.3565,0.3363,0.2692,0.2558,0.249,0.2222,0.2222,0.2222,0.2222,0.2222,0.2222,0.2222,0.2222,0.2222,0.2222,0.2222,0.2222,0.2222,0.2222,0.2222,0.2222,0.2692,0.296,0.296,0.4298,0.5034,0.5034,0.6435,0.7234,0.7365,0.9036,0.9997,1.0375,1.1788,1.2555,1.0395,1.0566,1.0692,1.0692,1.0692,1.0692,1.0692,1.0692,1.0692,1.0692,1.0692,1.0692,1.0692,0.9943,0.9216,0.8967,0.7153,0.624,0.733,0.5477,0.4532,0.5825,0.4807,0.4011,0.4011,0.395,0.3902,0.3788,0.3778,0.3778,0.3778,0.3834,0.3834,0.3778,0.3834,0.3863,0.3924,0.3926,0.3894,0.3889,0.3889,0.3889,0.3889,0.3889,0.3889,0.3889,0.3889,0.3889,0.3889,0.3889,0.3889,0.3889,0.3889,0.3889,0.3889,0.3889,0.3889,0.3897,0.3956,0.4078,0.4135,0.4196,0.4258,0.4308,0.4308,0.4308,0.4308,0.4308,0.4308,0.4308,0.4308,0.4308,0.4308,0.4308,0.4308,0.4308,0.4308,0.4308,0.4038,0.3363,0.3161,0.296,0.2289,0.2222,0.2222,0.2222,0.2222,0.2222,0.2222,0.2222,0.2222,0.2222,0.2222,0.2222,0.2222,0.2289,0.2289,0.2289,0.363,0.4434,0.4434,0.5767,0.65,0.65,0.7969,0.8909,0.9247,1.0588,1.1736,1.2637,1.2637,1.2934,1.0627,1.066,1.0692,1.0692,1.0692,1.0692,1.0692,1.0692,1.0692,1.0692,1.0692,1.0692,1.0692,1.0719,1.0387,0.937,0.8935,0.8507,0.7884,0.7226,0.7004,0.7362,0.6211,0.5419,0.5419,0.4501,0.3876,0.3845,0.3905,0.3905,0.3905,0.3861,0.3858,0.3903,0.3861,0.3867,0.3927,0.3928,0.3873,0.3889,0.3889,0.3889,0.3889,0.3889,0.3889,0.3889,0.3889,0.3889,0.3889,0.3889,0.3889,0.3889,0.3889,0.3889,0.3889,0.3889,0.3889,0.3903,0.4003,0.4112,0.4135,0.4196,0.4258,0.4308,0.4308,0.4308,0.4308,0.4308,0.4308,0.4308,0.4308,0.4308,0.4308,0.4308,0.4308,0.4239,0.3969,0.3902,0.3768,0.3295,0.3028,0.2693,0.2289,0.2222,0.2222,0.2222,0.2222,0.2222,0.2222,0.2222,0.2222,0.2222,0.2222,0.2222,0.2222,0.3162,0.3764,0.3764,0.5099,0.5834,0.5834,0.7236,0.8038,0.8038,0.9709,1.0635,1.0884,1.1821,1.2446,1.2753,1.3026,1.3328,1.0692,1.0692,1.0692,1.0692,1.0692,1.0692,1.0692,1.0692,1.0692,1.0692,1.0692,1.0692,1.0692,1.098,1.0966,1.0143,0.987,0.9707,0.953,0.8564,0.8098,0.8641,0.7553,0.6761,0.6761,0.609,0.5663,0.5663,0.4562,0.3889,0.3889,0.3918,0.3916,0.3888,0.3918,0.3917,0.3889,0.3889,0.3889,0.3889,0.3889,0.3889,0.3889,0.3889,0.3889,0.3889,0.0,0.3889,0.3889,0.3889,0.3889,0.3889,0.3889,0.3889,0.3889,0.3889,0.3904,0.3939,0.4093,0.4143,0.4176,0.4237,0.4279,0.4308,0.4308,0.4308,0.4308,0.4308,0.4308,0.4308,0.4308,0.4308,0.4308,0.4308,0.4308,0.4239,0.4038,0.4038,0.3902,0.3565,0.3163,0.2828,0.2491,0.2424,0.2558,0.3027,0.3094,0.3362,0.3963,0.3496,0.3094,0.3094,0.3696,0.403,0.403,0.4766,0.5233,0.5233,0.6569,0.7367,0.7367,0.8773,0.9579,0.9709,1.0778,1.1531,1.1959,1.2432,1.2829,1.3144,1.3351,1.3587,1.0747,1.0692,1.0692,1.0692,1.0692,1.0692,1.0692,1.0692,1.0692,1.0692,1.0692,1.0692,1.0692,1.0964,1.1147,1.1025,1.0396,1.0303,1.141,0.9675,0.8758,0.9913,0.8952,0.816,0.816,0.7978,0.7919,0.7919,0.5722,0.4441,0.4441,0.4441,0.4441,0.4441,0.4441,0.4441,0.4441,0.4256,0.4196,0.4134,0.4011,0.3889,0.3889,0.3889,0.3889,0.3889,0.3889,0.0,0.3889,0.3889,0.3889,0.3889,0.3889,0.3889,0.3889,0.3889,0.3924,0.3979,0.4105,0.4165,0.4226,0.4288,0.4308,0.4308,0.4308,0.4308,0.4308,0.4308,0.4308,0.4308,0.4308,0.4308,0.4308,0.4308,0.4308,0.4308,0.4308,0.4308,0.4172,0.3835,0.3698,0.343,0.3096,0.3229,0.3631,0.45,0.4634,0.5101,0.6233,0.5367,0.4567,0.4567,0.57,0.6433,0.6433,0.6564,0.67,0.67,0.8038,0.8909,0.8909,1.0114,1.0927,1.1213,1.1485,1.1981,1.2696,1.2844,1.3151,1.3606,1.3606,1.3758,1.0962,1.0692,1.0692,1.0692,1.0692,1.0692,1.0692,1.0692,1.0692,1.0692,1.0692,1.0692,1.0692,1.0867,1.1049,1.1159,1.1179,1.1312,1.1707,1.1362,1.1189,1.1402,1.0297,0.9498,0.9498,0.8526,0.7919,0.7919,0.7492,0.7187,0.7187,0.7187,0.7187,0.7187,0.7187,0.7187,0.7187,0.609,0.554,0.554,0.4441,0.3889,0.3889,0.3889,0.3889,0.3889,0.3889,0.0,0.3889,0.3889,0.3889,0.3889,0.3889,0.3889,0.3889,0.3889,0.3924,0.3979,0.4105,0.4165,0.4226,0.4288,0.4308,0.4308,0.4308,0.4308,0.4308,0.4308,0.4308,0.4308,0.4308,0.4308,0.4308,0.4308,0.4308,0.4308,0.4308,0.4308,0.4172,0.3835,0.4702,0.53,0.4966,0.5895,0.6627,0.6562,0.6564,0.6498,0.6433,0.6166,0.6032,0.6032,0.6233,0.6433,0.6433,0.7503,0.8238,0.8238,0.9579,1.0316,1.0316,1.085,1.1245,1.1447,1.2075,1.263,1.299,1.33,1.3615,1.3855,1.3855,1.3872,1.1878,1.1555,1.1446,1.0857,1.0765,1.081,1.0712,1.0765,1.081,1.0712,1.0692,1.0692,1.0692,1.0842,1.0997,1.1078,1.1321,1.1533,1.1618,1.1715,1.1776,1.1776,1.122,1.0849,1.0849,1.0301,0.9937,0.9937,0.9937,0.9326,0.798,0.7919,0.7919,0.7919,0.7919,0.7919,0.7919,0.7248,0.6942,0.6945,0.6272,0.5968,0.5968,0.5968,0.5968,0.5968,0.5968,0.0,0.5906,0.5235,0.493,0.4868,0.4196,0.3889,0.3889,0.3889,0.3944,0.4086,0.4115,0.4187,0.4268,0.4297,0.4308,0.4308,0.4308,0.4308,0.4308,0.4308,0.4308,0.4308,0.4308,0.4308,0.4308,0.4308,0.4308,0.4308,0.4308,0.491,0.5376,0.5173,0.6305,0.7169,0.6831,0.7296,0.7828,0.803,0.81,0.8233,0.8573,0.864,0.8371,0.7636,0.8171,0.864,0.864,0.931,0.9712,0.9712,1.0319,1.0787,1.092,1.1196,1.1609,1.209,1.26,1.3051,1.3364,1.3663,1.3819,1.39,1.39,1.39,1.2792,1.2417,1.2146,1.0962,1.0834,1.0975,1.0737,1.0834,1.0915,1.0729,1.0692,1.0692,1.0692,1.081,1.0923,1.0964,1.1236,1.1455,1.1492,1.1658,1.1788,1.1829,1.1833,1.1845,1.1886,1.189,1.189,1.189,1.1853,1.0951,0.8836,0.8711,0.8711,0.8711,0.8711,0.8711,0.8711,0.8468,0.8282,0.8282,0.8039,0.7919,0.7919,0.7919,0.7919,0.7919,0.7919,0.0,0.0,0.6761,0.6335,0.6215,0.5193,0.4586,0.4342,0.4416,0.4306,0.4145,0.4145,0.4217,0.4308,0.4308,0.4308,0.4308,0.4308,0.4308,0.4308,0.4308,0.4308,0.4308,0.4308,0.4308,0.4374,0.4708,0.4775,0.4842,0.5176,0.6111,0.6842,0.6842,0.8041,0.8972,0.8632,0.8831,0.9229,0.97,0.9769,1.0038,1.085,1.092,1.0515,0.9374,1.0114,1.0721,1.0721,1.0721,1.0721,1.0721,1.0787,1.0933,1.1231,1.1556,1.206,1.2667,1.3013,1.338,1.3631,1.3835,1.39,1.39,1.39,1.39,1.3009,1.2417,1.2146,1.0962,1.0834,1.0975,1.0737,1.0834,1.0915,1.0729,1.0692,1.0692,1.0692,1.0708,1.0773,1.0996,1.1126,1.1309,1.1476,1.1658,1.1833,1.1987,1.2008,1.2073,1.2239,1.2259,1.2259,1.2259,1.2101,1.1812,1.1478,1.147,1.147,1.147,1.147,1.147,1.147,1.0236,0.9623,0.962,0.8465,0.7919,0.7919,0.7919,0.7919,0.7919,0.7919,0.7919,0.0,0.7797,0.7736,0.7747,0.7733,0.6904,0.5853,0.5992,0.5311,0.4209,0.4209,0.4252,0.4308,0.4308,0.4308,0.4308,0.4308,0.4308,0.4308,0.4308,0.4308,0.4308,0.4308,0.4308,0.4641,0.591,0.6176,0.6577,0.7907,0.8307,0.8374,0.8374,0.9573,1.0505,1.0435,1.1501,1.2301,1.2041,1.2041,1.1909,1.1714,1.1714,1.1648,1.1512,1.1049,1.0721,1.0721,1.0721,1.0721,1.0721,1.0982,1.1248,1.1464,1.215,1.2638,1.3029,1.3348,1.3651,1.3876,1.3892,1.39,1.39,1.39,1.39,1.5001,1.4513,1.4245,1.3058,1.2362,1.2024,1.2037,1.1496,1.0971,1.0949,1.0802,1.0692,1.0692,1.0785,1.0883,1.1012,1.1208,1.1415,1.1488,1.1658,1.1841,1.2008,1.2028,1.2101,1.2288,1.2308,1.2367,1.2611,1.2627,1.2557,1.2546,1.2249,1.2126,1.2367,1.2367,1.2367,1.2367,1.1812,1.1563,1.1563,1.0834,1.0472,1.0472,1.0297,1.0243,1.0243,1.0243,1.0243,0.0,0.9477,0.9202,0.9156,0.8537,0.7448,0.6188,0.6285,0.5391,0.4217,0.4217,0.4256,0.4308,0.4308,0.4308,0.4308,0.4308,0.4308,0.4308,0.4308,0.4308,0.4308,0.4308,0.4908,0.591,0.7376,0.7707,0.7907,0.844,0.9238,0.9839,0.9839,1.0969,1.1971,1.1971,1.2437,1.2704,1.2375,1.2309,1.2177,1.1846,1.178,1.178,1.178,1.1516,1.1251,1.1052,1.1247,1.1251,1.1052,1.1399,1.1817,1.2154,1.2623,1.3078,1.336,1.3675,1.3831,1.39,1.39,1.39,1.39,1.39,1.39,1.6499,1.6074,1.5773,1.4656,1.3772,1.3191,1.3038,1.2247,1.141,1.1164,1.0953,1.0828,1.0884,1.1092,1.1215,1.1329,1.1591,1.1795,1.1795,1.1953,1.2076,1.2131,1.2213,1.237,1.2551,1.2685,1.2838,1.3084,1.3113,1.3102,1.323,1.2799,1.2539,1.2719,1.2719,1.2719,1.2719,1.2719,1.2719,1.2719,1.2359,1.2174,1.2174,1.1889,1.1776,1.1776,1.1776,0.0,0.0,1.0986,1.0685,1.0683,0.9942,0.8776,0.7498,0.7597,0.6682,0.5494,0.5494,0.5529,0.5577,0.5577,0.5577,0.5577,0.5577,0.5242,0.4908,0.4908,0.5243,0.5577,0.5577,0.6309,0.7441,0.8906,0.9238,0.9305,0.9772,1.0638,1.1303,1.1303,1.2103,1.277,1.277,1.277,1.2704,1.2507,1.2441,1.2375,1.2111,1.2111,1.2111,1.2111,1.2111,1.1912,1.1446,1.1648,1.1733,1.1445,1.1885,1.233,1.2706,1.309,1.3388,1.3647,1.3839,1.39,1.39,1.39,1.39,1.39,1.39,1.39,1.7022,1.6499,1.6088,1.52,1.4663,1.4167,1.3447,1.2952,1.2404,1.1329,1.1061,1.1081,1.1358,1.1562,1.1799,1.2144,1.2373,1.2506,1.2506,1.2605,1.2613,1.25,1.2772,1.3047,1.3105,1.3566,1.387,1.387,1.3515,1.3421,1.3802,1.3423,1.3024,1.2719,1.2719,1.2719,1.2719,1.2719,1.2719,1.2719,1.2359,1.2174,1.2174,1.1889,1.1776,1.1776,1.1776,0.0,0.0,1.1966,1.2075,1.232,1.2495,1.1645,1.0357,1.0577,0.9766,0.8571,0.8571,0.8573,0.8573,0.8573,0.8573,0.8573,0.8573,0.751,0.6376,0.6376,0.7441,0.8573,0.8573,0.8573,0.8906,1.0369,1.0704,1.1035,1.2437,1.277,1.277,1.277,1.277,1.277,1.277,1.277,1.277,1.277,1.277,1.277,1.277,1.277,1.277,1.277,1.277,1.2507,1.1846,1.178,1.1847,1.2,1.2348,1.271,1.3064,1.3434,1.3655,1.3896,1.39,1.39,1.39,1.39,1.39,1.39,1.39,1.39,1.7996,1.7779,1.7648,1.741,1.6624,1.5976,1.5922,1.4538,1.3266,1.3086,1.2417,1.1832,1.1946,1.2103,1.2292,1.2409,1.2568,1.2631,1.2631,1.2803,1.2935,1.306,1.3381,1.3591,1.3644,1.404,1.4272,1.4272,1.4231,1.4147,1.4129,1.3868,1.3658,1.3389,1.3384,1.3384,1.3384,1.3384,1.3384,1.3384,1.3024,1.29,1.2844,1.2543,1.25,1.2625,1.238,0.0,0.0,1.2467,1.243,1.2499,1.2682,1.1888,1.0636,1.0687,0.9839,0.8573,0.8573,0.8573,0.8573,0.8573,0.8573,0.8573,0.8573,0.8307,0.7907,0.7907,0.824,0.8839,0.9772,1.0038,1.0369,1.1769,1.2169,1.2239,1.2704,1.277,1.277,1.277,1.277,1.277,1.277,1.277,1.277,1.277,1.277,1.277,1.277,1.277,1.277,1.277,1.277,1.2638,1.2177,1.2476,1.2633,1.2415,1.2989,1.3314,1.343,1.3687,1.3847,1.39,1.39,1.39,1.39,1.39,1.39,1.39,1.39,1.39,1.8803,1.8691,1.8622,1.8735,1.8025,1.7351,1.7468,1.5818,1.4243,1.4221,1.3193,1.2316,1.2432,1.2651,1.279,1.2908,1.3007,1.3111,1.3188,1.331,1.3464,1.3653,1.3837,1.4034,1.4164,1.4428,1.4604,1.4604,1.4543,1.4454,1.4317,1.4043,1.383,1.3693,1.3688,1.3688,1.3688,1.3688,1.3688,1.3688,1.3384,1.3245,1.3323,1.2955,1.2939,1.3124,0.0,0.0,0.0,1.29,1.2799,1.2877,1.2857,1.2239,1.1501,1.1501,1.0969,1.017,1.017,1.017,1.017,1.017,1.017,1.017,1.017,0.9839,0.9504,1.0038,1.017,1.0369,1.1237,1.1501,1.1703,1.2568,1.277,1.277,1.277,1.277,1.277,1.277,1.277,1.277,1.277,1.277,1.277,1.277,1.277,1.277,1.277,1.277,1.277,1.277,1.277,1.2732,1.2598,1.2897,1.3057,1.2922,1.3339,1.3602,1.3738,1.3843,1.39,1.39,1.39,1.39,1.39,1.39,1.39,1.39,1.39,1.4181,0.0,1.9159,1.9029,1.9263,1.8908,1.848,1.8268,1.6864,0.0,1.4775,1.3645,1.2759,1.2935,1.3081,1.3324,1.3629,1.3688,1.3764,1.3981,1.4038,1.4128,1.4312,1.4202,1.4258,1.4569,1.4753,1.4866,1.4866,1.4558,1.4326,1.4312,1.3929,1.3703,1.3688,1.3688,1.3688,1.3688,1.3688,1.3688,1.3688,1.3403,1.3327,1.3519,1.322,1.3203,0.0,0.0,0.0,0.0,1.3294,1.3206,1.3371,1.2968,1.277,1.277,1.277,1.277,1.277,1.277,1.277,1.277,1.277,1.277,1.277,1.277,1.1901,1.1104,1.2437,1.277,1.277,1.277,1.277,1.277,1.277,1.277,1.277,1.277,1.277,1.277,1.277,1.277,1.277,1.277,1.277,1.277,1.277,1.277,1.277,1.277,1.277,1.277,1.277,1.2782,1.2921,1.308,1.3108,1.3193,1.338,1.3563,1.3734,1.3896,1.39,1.39,1.39,1.39,1.39,1.39,1.39,1.3971,1.4043,1.4043,1.4817,1.9632,0.0,1.9614,1.9694,1.9725,1.9769,0.0,1.8786,1.7673,1.6657,1.5607,1.4613,1.3672,1.3536,1.3629,1.3688,1.3688,1.3764,1.3981,1.4284,1.4506,1.4553,1.4608,1.4669,1.4583,1.4753,1.4866,1.4866,1.47,1.4482,1.4322,1.4071,1.3859,1.3693,1.3688,1.3688,1.3688,1.3688,1.3688,1.3693,1.3793,1.384,1.3892,1.3984,1.4103,0.0,0.0,0.0,1.4139,1.3561,1.3329,1.3371,1.2968,1.277,1.277,1.277,1.277,1.277,1.277,1.277,1.277,1.277,1.277,1.277,1.277,1.2568,1.2371,1.2704,1.277,1.277,1.277,1.277,1.277,1.277,1.277,1.277,1.277,1.277,1.277,1.277,1.277,1.277,1.277,1.277,1.277,1.277,1.277,1.277,1.277,1.277,1.277,1.277,1.2954,1.3047,1.3088,1.3222,1.3384,1.3567,1.3742,1.3859,1.39,1.39,1.39,1.39,1.39,1.39,1.39,1.39,1.4466,1.5589,1.5589,1.6428,1.9764,1.9815,1.9852,1.9945,2.0106,2.0219,2.0373,1.9563,1.8634,1.8135,1.7171,1.6214,1.551,1.5541,1.54,1.4704,1.4801,1.4739,1.419,1.4345,1.452,1.4619,1.4728,1.4789,1.4711,1.487,1.4866,1.4866,1.4652,1.4435,1.4317,1.4029,1.3811,1.3693,1.3688,1.3688,1.3688,1.3788,1.384,1.384,1.4048,1.4199,1.4298,1.4411,1.4572,0.0,0.0,0.0,1.4604,1.408,1.3888,1.3822,1.3297,1.3104,1.3038,1.2836,1.277,1.277,1.277,1.277,1.277,1.277,1.277,1.277,1.277,1.277,1.277,1.277,1.277,1.277,1.277,1.277,1.277,1.277,1.277,1.277,1.277,1.277,1.277,1.277,1.277,1.277,1.277,1.277,1.277,1.277,1.277,1.277,1.277,1.277,1.277,1.277,1.299,1.3128,1.3214,1.3392,1.3539,1.3566,1.3807,1.39,1.39,1.39,1.39,1.39,1.39,1.4252,1.4884,1.4884,1.5655,1.7127,1.7127,1.7965,1.9894,1.9962,1.9974,2.0245,2.0292,2.0457,2.0735,1.9928,1.9196,1.9272,1.8441,1.763,1.7497,1.766,1.7428,1.6185,1.6348,1.6285,1.5155,1.4818,1.477,1.4929,1.4785,1.4797,1.5125,1.5168,1.5238,1.5209,1.4842,1.4481,1.4265,1.3896,1.3703,1.3736,1.374,1.3755,1.3783,1.3934,1.4029,1.4057,1.4265,1.4459,1.4569,1.4602,1.4711,1.4866,0.0,0.0,1.4866,1.4534,1.4403,1.4342,1.3691,1.3498,1.3433,1.3099,1.2964,1.2968,1.2902,1.2836,1.277,1.277,1.277,1.277,1.277,1.277,1.277,1.277,1.277,1.277,1.277,1.277,1.277,1.277,1.277,1.277,1.277,1.277,1.277,1.277,1.277,1.277,1.277,1.277,1.277,1.277,1.277,1.277,1.277,1.277,1.2782,1.2807,1.3031,1.321,1.3396,1.3579,1.3685,1.3685,1.3819,1.39,1.39,1.4114,1.4252,1.4252,1.4462,1.5164,1.6433,1.6433,1.7268,1.8734,1.8734,1.9507,2.0501,2.0574,2.0589,2.0633,2.0859,2.1072,2.1123,2.0959,2.0558,1.9492,1.9145,1.8752,1.7982,1.763,1.751,1.7518,1.7731,1.7936,1.8036,1.7183,1.6557,1.6403,1.548,1.5276,1.6329,1.661,1.6582,1.6451,1.618,1.5453,1.4128,1.3825,1.3773,1.3958,1.3962,1.4043,1.4213,1.4081,1.4095,1.427,1.4482,1.46,1.4638,1.4813,1.4838,1.4866,0.0,1.4866,1.4866,1.4534,1.4403,1.4338,1.3945,1.3814,1.3814,1.3748,1.3748,1.3682,1.3433,1.3104,1.277,1.277,1.277,1.277,1.277,1.277,1.277,1.277,1.277,1.277,1.277,1.277,1.277,1.277,1.277,1.277,1.277,1.277,1.277,1.277,1.277,1.277,1.277,1.277,1.277,1.277,1.277,1.277,1.277,1.277,1.2893,1.3039,1.3218,1.3401,1.3587,1.3762,1.3863,1.3863,1.3888,1.39,1.39,1.5097,1.573,1.573,1.7057,1.7825,1.8035,1.8035,1.8804,2.0277,2.0277,2.1044,2.0684,2.0852,2.0984,2.0984,2.1101,2.1211,2.1211,2.1211,2.1031,2.0443,2.0328,2.0245,2.0015,1.9964,1.9894,1.9653,1.8901,1.8385,1.8652,1.8175,1.7736,1.7754,1.6663,1.6103,1.6818,1.6797,1.6679,1.6572,1.696,1.688,1.6297,1.6068,1.6112,1.6358,1.6369,1.6478,1.6713,1.6609,1.5867,1.4487,1.4695,1.4729,1.4799,1.4889,1.4866,1.4866,0.0,1.4866,1.4866,1.4735,1.467,1.467,1.4272,1.4141,1.4141,1.3945,1.3875,1.3879,1.3498,1.3428,1.3358,1.3165,1.3231,1.3424,1.3424,1.3424,1.3358,1.3169,1.2968,1.277,1.277,1.277,1.277,1.277,1.277,1.277,1.277,1.277,1.277,1.277,1.277,1.277,1.277,1.277,1.277,1.277,1.342,1.394,1.394,1.4586,1.4857,1.4263,1.44,1.4594,1.4792,1.4987,1.5097,1.5097,1.5097,1.5447,1.6287,1.6987,1.7338,1.7338,1.8035,1.8804,1.9576,1.9576,2.0346,2.1816,2.1816,2.2235,2.0837,2.102,2.1211,2.1211,2.1211,2.1211,2.1211,2.1211,2.1211,2.1211,2.1211,2.1313,2.1635,2.1964,2.2028,2.1438,2.024,1.9475,1.9687,1.9361,1.9063,1.9262,1.8035,1.7418,1.7923,1.7649,1.7502,1.7502,1.8075,1.8318,1.8282,1.8107,1.8179,1.8447,1.8459,1.858,1.8785,1.8785,1.7719,1.5652,1.5818,1.5834,1.5834,1.5834,1.5704,1.5383,1.5383,1.5187,1.4866,1.4866,1.4866,1.4866,1.4604,1.4539,1.4469,1.4207,1.4071,1.401,1.3691,1.3752,1.3879,1.3625,1.3687,1.3875,1.3875,1.3875,1.3814,1.3498,1.3169,1.2902,1.2836,1.277,1.277,1.277,1.277,1.277,1.277,1.277,1.277,1.277,1.277,1.2902,1.3227,1.3288,1.342,1.3744,1.4716,1.5364,1.5364,1.6379,1.6755,1.5857,1.5943,1.6162,1.6441,1.6612,1.678,1.7132,1.6851,1.7198,1.8379,1.8734,1.8944,1.8944,1.9292,1.9993,2.112,2.112,2.1747,2.2928,2.2928,2.2928,2.1174,2.1196,2.1211,2.1211,2.1211,2.1211,2.1211,2.1211,2.1211,2.1211,2.1211,2.1313,2.1635,2.1964,2.2198,2.2122,2.2197,2.2389,2.2707,2.1721,2.0896,2.0916,1.9706,1.9331,2.069,2.049,2.0387,2.0462,2.0232,1.9635,1.8429,1.8349,1.8453,1.8652,1.8658,1.8791,1.9006,1.9006,1.8878,1.8692,1.871,1.8716,1.8716,1.8716,1.8011,1.685,1.685,1.6084,1.4866,1.4866,1.4866,1.4866,1.4866,1.4866,1.4866,1.4866,1.4604,1.4338,1.4342,1.4141,1.3875,1.3879,1.3879,1.3875,1.3875,1.3875,1.3814,1.3498,1.3367,1.3301,1.2902,1.277,1.277,1.277,1.277,1.277,1.277,1.277,1.277,1.277,1.277,1.3227,1.452,1.4782,1.5168,1.6522,1.678,1.6845,1.6845,1.7168,1.7394,1.7502,1.7737,1.7967,1.8197,1.8234,1.8804,2.0207,1.9013,1.8315,1.8379,1.9715,2.0415,2.0415,2.1885,2.2654,2.2722,2.2722,2.2791,2.2928,2.2928,2.2928,2.1211,2.1211,2.1211,2.1211,2.1211,2.1211,2.1211,2.1211,2.1211,2.1211,2.1211,2.1313,2.1635,2.2279,2.2696,2.2491,2.2718,2.2967,2.3091,2.2661,2.2341,2.2341,2.1139,2.05,2.1076,2.0808,2.0635,2.0641,2.118,2.1331,2.1012,2.1019,2.1156,2.1458,2.1472,2.1464,2.158,2.158,2.158,2.1517,1.9801,1.8972,1.8972,1.8972,1.8267,1.698,1.698,1.6213,1.4866,1.4866,1.4866,1.4866,1.4866,1.4866,1.4866,1.4866,1.48,1.467,1.4473,1.4469,1.4469,1.4272,1.4338,1.4539,1.4539,1.4539,1.4469,1.4146,1.4015,1.3822,1.3034,1.277,1.277,1.277,1.3486,1.4132,1.4132,1.4132,1.439,1.5233,1.4716,1.452,1.5944,1.6203,1.6398,1.691,1.7683,1.8267,1.8267,1.9271,1.974,1.9081,1.9403,1.9686,1.9779,2.0623,2.1459,2.2022,2.0623,2.0207,2.1176,2.1741,2.2022,2.2022,2.2585,2.2928,2.2928,2.2928,2.2928,2.2928,2.2928,2.2928,2.1211,2.1211,2.1211,2.1211,2.1211,2.1211,2.1211,2.1211,2.1211,2.1211,2.1291,2.143,2.1657,2.2389,2.2879,2.2659,2.2901,2.3106,2.3106,2.3106,2.3106,2.3106,2.2285,2.1713,2.1713,2.1431,2.1293,2.139,2.1997,2.2454,2.2762,2.2776,2.2879,2.3098,2.3106,2.3106,2.3106,2.3106,2.3106,2.3113,2.1195,2.0309,2.0309,2.0309,1.954,1.832,1.832,1.7496,1.6219,1.6219,1.6219,1.6219,1.6219,1.6219,1.6219,1.6219,1.6219,1.6154,1.5954,1.6019,1.6089,1.5438,1.5373,1.5574,1.5574,1.5574,1.5574,1.5694,1.5689,1.5494,1.4642,1.4002,1.3682,1.4071,1.4842,1.5554,1.5554,1.5554,1.5879,1.678,1.6203,1.6009,1.7361,1.7619,1.7753,1.8203,1.9106,1.9711,1.9805,2.0909,2.1503,2.0868,2.1102,2.1327,2.1327,2.2304,2.2928,2.2928,2.1885,2.1816,2.2859,2.2928,2.2928,2.2928,2.2928,2.2928,2.2928,2.2928,2.2928,2.2928,2.2928,2.2928,2.1211,2.1211,2.1211,2.1211,2.1211,2.1211,2.1211,2.1211,2.1218,2.1218,2.1481,2.1708,2.1701,2.2206,2.2623,2.2623,2.2901,2.3106,2.3106,2.3106,2.3106,2.3106,2.3106,2.3106,2.3106,2.282,2.2762,2.3084,2.2806,2.2769,2.3091,2.3106,2.3106,2.3106,2.3106,2.3106,2.3106,2.3106,2.3106,2.3106,2.3106,2.3106,2.3106,2.3106,2.2348,2.1076,2.1076,2.0309,1.8972,1.8972,1.8972,1.8972,1.8972,1.8972,1.8972,1.8972,1.8972,1.8972,1.8972,1.8972,1.878,1.7426,1.7039,1.7039,1.7039,1.7039,1.7232,1.825,1.8506,1.8442,1.811,1.6711,1.5694,1.6786,1.7039,1.7039,1.7039,1.7039,1.7039,1.7044,1.7039,1.7431,1.878,1.9036,1.9489,2.0912,2.1109,2.1216,2.1588,2.181,2.2211,2.2867,2.2928,2.2928,2.2928,2.2928,2.2928,2.2928,2.2928,2.2928,2.2928,2.2928,2.2928,2.2928,2.2928,2.2928,2.2928,2.2928,2.2928,2.2928,2.2928,2.2928,2.1211,2.1211,2.1211,2.1211,2.1211,2.1269,2.1503,2.1547,2.1613,2.1847,2.2132,2.2286,2.2081,2.2542,2.2886,2.2659,2.2901,2.3106,2.3106,2.3106,2.3106,2.3106,2.3106,2.3106,2.3106,2.3018,2.3003,2.3098,2.3018,2.301,2.3106,2.3106,2.3106,2.3106,2.3106,2.3106,2.3106,2.3106,2.3106,2.3106,2.3106,2.3106,2.3106,2.3106,2.2348,2.1076,2.1076,2.0309,1.8972,1.8972,1.8972,1.8972,1.8972,1.8972,1.8972,1.8972,1.8972,1.8972,1.8972,1.8972,1.8908,1.8524,1.8396,1.8396,1.8396,1.8396,1.846,1.8774,1.8838,1.903,1.9668,1.9477,1.8838,1.7923,1.8436,1.9082,1.8832,1.8768,1.8966,1.975,1.91,1.8844,2.0265,2.0462,2.0589,2.1046,2.1299,2.1665,2.2182,2.2243,2.2438,2.2887,2.2928,2.2928,2.2928,2.2928,2.2928,2.2928,2.2928,2.2928,2.2928,2.2928,2.2928,2.2928,2.2928,2.2928,2.2928,2.2928,2.2928,2.2928,2.2928,2.2928,2.1211,2.1211,2.1211,2.1211,2.1306,2.1518,2.1964,2.1979,2.1942,2.214,2.2418,2.2564,2.2389,2.2769,2.3047,2.2849,2.2981,2.3106,2.3106,2.3106,2.3106,2.3106,2.3106,2.3106,2.3106,2.3106,2.3106,2.3106,2.3106,2.3106,2.3106,2.3106,2.3106,2.3106,2.3106,2.3106,2.3106,2.3106,2.3106,2.3106,2.3106,2.3106,2.3106,2.3106,2.2661,2.1902,2.1902,2.1391,2.0626,2.0626,2.0626,2.0626,2.0626,2.0626,2.0626,2.0626,2.0626,2.0626,2.0626,2.0626,2.0563,1.9992,1.9801,1.9801,1.9801,1.9801,1.9928,2.05,2.0626,2.0753,2.1461,2.1587,2.1265,1.9909,2.0233,2.0746,2.0563,2.05,2.0696,2.1355,2.0836,2.0513,2.1355,2.1481,2.1481,2.1481,2.1876,2.2335,2.2818,2.2948,2.314,2.3324,2.3345,2.327,2.3133,2.3133,2.3065,2.2934,2.2928,2.2928,2.2928,2.2928,2.2928,2.2928,2.2928,2.2928,2.2928,2.2928,2.2928,2.2928,2.2928,2.2928,2.1375,2.1268,2.1211,2.1211,2.1474,2.1898,2.2491,2.244,2.2264,2.2264,2.2476,2.2667,2.2667,2.2908,2.3106,2.3106,2.3106,2.3106,2.3106,2.3106,2.3106,2.3106,2.3106,2.3106,2.3106,2.3106,2.3106,2.3106,2.3106,2.3106,2.3106,2.3106,2.3106,2.3106,2.3106,2.3106,2.3106,2.3106,2.3106,2.3106,2.3106,2.3106,2.3106,2.3106,2.3106,2.3106,2.3106,2.3106,2.3106,2.3106,2.3106,2.3106,2.3106,2.3106,2.3106,2.3106,2.3106,2.3106,2.3106,2.3106,2.2918,2.165,2.1265,2.1265,2.1265,2.1265,2.1524,2.2793,2.3106,2.3106,2.3106,2.3106,2.2918,2.2362,2.2167,2.2174,2.2174,2.2174,2.2111,2.2111,2.2111,2.2111,2.2111,2.2111,2.2118,2.2209,2.265,2.314,2.3521,2.383,2.4027,2.4027,2.4027,2.3823,2.3475,2.3475,2.3338,2.3003,2.2996,2.2996,2.2996,2.2934,2.2928,2.2928,2.2928,2.2928,2.2928,2.2928,2.2928,2.2928,2.2961,2.2975,2.2587,2.193,2.1211,2.1211,2.165,2.2176,2.2535,2.2776,2.2915,2.2915,2.2959,2.3003,2.3003,2.3062,2.3106,2.3106,2.3106,2.3106,2.3106,2.3106,2.3106,2.3106,2.3106,2.3106,2.3106,2.3106,2.3106,2.3106,2.3106,2.3106,2.3106,2.3106,2.3106,2.3106,2.3106,2.3106,2.3106,2.3106,2.3106,0.0,2.3106,2.3106,2.3106,2.3106,2.3106,2.3106,2.3106,2.3106,2.3106,2.3106,2.3106,2.3106,2.3106,2.3106,2.3106,2.3106,2.3106,2.3106,2.3106,2.3106,2.3043,2.2793,2.2661,2.2661,2.2661,2.2661,2.2731,2.3043,2.3106,2.3106,2.3106,2.3106,2.3043,2.2918,2.2863,2.2793,2.2543,2.248,2.2418,2.2174,2.2111,2.2111,2.2111,2.2111,2.2258,2.2822,2.2919,2.3206,2.3847,2.3972,2.4027,2.4027,2.4027,2.3959,2.3891,2.3891,2.3823,2.3754,2.3754,2.3754,2.3754,2.3208,2.2928,2.2928,2.2928,2.2928,2.2928,2.2928,2.2928,2.2941,2.3113,2.3227,2.2974,2.2093,2.1284,2.1598,2.2037,2.2476,2.2784,2.2988,2.3106,2.3106,2.3106,2.3106,2.3106,2.3106,2.3106,2.3106,2.3106,2.3106,2.3106,2.3106,2.3106,2.3106,2.3106,2.3106,2.3106,2.3106,2.3106,2.3106,2.3106,2.3106,2.3106,2.3106,2.3106,2.3106,2.3106,2.3106,2.3106,2.3106,2.3106,2.3106,2.3106,2.3106,2.3106,2.3106,2.3106,2.3106,2.3106,2.3106,2.3106,2.3106,2.3106,2.3106,2.3106,2.3106,2.3106,2.3106,2.3106,2.3106,2.3106,2.3106,2.3106,2.3106,2.3106,2.3106,2.3106,2.3106,2.3106,2.3106,2.3106,2.3106,2.3106,2.3106,2.3106,2.3106,2.3106,2.3043,2.2863,2.2856,2.2793,2.2606,2.2613,2.2613,2.2613,2.2613,2.2833,2.35,2.3515,2.3788,2.4463,2.4545,2.451,2.451,2.451,2.4435,2.4231,2.4231,2.4163,2.4027,2.4027,2.4027,2.4027,2.3618,2.3345,2.3133,2.3133,2.3065,2.2928,2.2928,2.2939,2.3086,2.3253,2.3407,2.3592,2.2642,2.1719,2.2097,2.2403,2.271,2.3032,2.3106,2.3106,2.3106,2.3106,2.3106,2.3106,2.3106,2.3106,2.3106,2.3106,2.3106,2.3106,2.3106,2.3106,2.3106,2.3106,2.3106,2.3106,2.3106,2.3106,2.3106,2.3106,2.3106,2.3106,2.3106,2.3106,2.3106,2.3106,2.3106,2.3106,2.3106,2.3106,2.3106,2.3106,2.3106,2.3106,2.3106,2.3106,2.3106,2.3106,2.3106,2.3106,2.3106,2.3106,2.3106,2.3106,2.3106,2.3106,2.3106,2.3106,2.3106,2.3106,2.3106,2.3106,2.3106,2.3106,2.3106,2.3106,2.3106,2.3106,2.3106,2.3106,2.3106,2.3106,2.3106,2.3106,2.3106,2.3106,2.3106,2.3106,2.3106,2.3106,2.3106,2.3106,2.3106,2.3106,2.3157,2.3398,2.3991,2.413,2.4386,2.5046,2.5127,2.5127,2.5127,2.5127,2.4984,2.4638,2.457,2.4503,2.4231,2.4163,2.4163,2.4163,2.4163,2.4027,2.3611,2.3475,2.327,2.3003,2.2981,2.3073,2.3327,2.3427,2.3607,2.6027,2.4656,2.3018,2.2379,2.2403,2.271,2.3032,2.3106,2.3106,2.3106,2.3106,2.3106,2.3106,2.3106,2.3106,2.3106,2.3106,2.3106,2.3106,2.3106,2.3106,2.3106,2.3106,2.3106,2.3106,2.3106,2.3106,2.3106,2.3106,2.3106,2.3106,2.3106,2.3106,2.3106,2.3106,2.3106,2.3106,2.3106,2.3106,2.3106,2.3106,2.3106,2.3106,2.3106,2.3106,2.3106,2.3106,2.3106,2.3106,2.3106,2.3106,2.3106,2.3106,2.3106,2.3106,2.3106,2.3106,2.3106,2.3106,2.3106,2.3106,2.3106,2.3106,2.3106,2.3106,2.3106,2.3106,2.3106,2.3106,2.3106,2.3106,2.3106,2.3106,2.3106,2.3106,2.3106,2.3106,2.3106,2.3106,2.3106,2.3106,2.3106,2.3106,2.3347,2.3654,2.4027,2.432,2.4642,2.5075,2.5127,2.5127,2.5127,2.5127,2.5059,2.4991,2.4991,2.4984,2.4984,2.4916,2.4916,2.4916,2.4916,2.4781,2.4367,2.3747,2.3406,2.3338,2.3272,2.3287,2.334,2.3848,2.4108,2.4918,2.4162,2.3489,2.2438,2.2542,2.2937,2.3076,2.3106,2.3106,2.3106,2.3106,2.3106,2.3106,2.3106,2.3106,2.3106,2.3106,2.3106,2.3106,2.3106,2.3106,2.3106,2.3106,2.3106,2.3106,2.3106,2.3106,2.3106,2.3106,2.3106,2.3106,2.3106,2.3106,2.3106,2.3106,2.3106,2.3106,2.3106,2.3106,2.3106,2.3106,2.3106,2.3106,2.3106,2.3106,2.3106,2.3106,2.3106,2.3106,2.3106,2.3106,2.3106,2.3106,2.3106,2.3106,2.3106,2.3106,2.3106,2.3106,2.3106,2.3106,2.3106,2.3106,2.3106,2.3106,2.3106,2.3106,2.3106,2.3106,2.3106,2.3106,2.3106,2.3106,2.3106,2.3106,2.3106,2.3106,2.3106,2.3106,2.3106,2.3106,2.3106,2.3106,2.3384,2.3706,2.4035,2.4357,2.4686,2.5083,2.5127,2.5127,2.5127,2.5127,2.5127,2.5127,2.5127,2.5127,2.5127,2.5127,2.5127,2.5127,2.5127,2.4991,2.4849,2.4299,2.3967,2.3935,2.3935,2.3972,2.4164,2.4429,2.45,2.4475,2.4268,2.443,2.3433,2.3535,2.3978,2.407,2.4085,2.4085,2.4085,2.4085,2.4085,2.4085,2.3534,2.3106,2.3106,2.3106,2.3106,2.3106,2.3106,2.3106,2.3106,2.3106,2.3106,2.3106,2.3106,2.3106,2.3106,2.3106,2.3106,2.3106,2.3106,2.3106,2.3106,2.3106,2.3106,2.3106,2.3106,2.3106,2.3106,2.3106,2.3106,2.3106,2.3106,2.3106,2.3106,2.3106,2.3106,2.3106,2.3106,2.3106,2.3106,2.3106,2.3106,2.3106,2.3106,2.3106,2.3106,2.3106,2.3106,2.3106,2.3106,2.3106,2.3106,2.3106,2.3106,2.3106,2.3106,2.3106,2.3106,2.3106,2.3106,2.3106,2.3106,2.3106,2.3106,2.3106,2.3106,2.3106,2.3106,2.3106,2.3106,2.3106,2.3449,2.3801,2.4049,2.443,2.4848,2.509,2.5127,2.5127,2.5127,2.5127,2.5127,2.5127,2.5127,2.5127,2.5127,2.5127,2.5127,2.5127,2.5127,2.5163,2.5176,2.4897,2.467,2.4552,2.4638,2.4748,2.4977,2.5053,2.5,2.6636,2.6563,2.6682,2.5895,2.5981,2.6321,2.6686,2.6771,2.6771,2.6771,2.6771,2.6771,2.6771,2.4756,2.3106,2.3106,2.3106,2.3106,2.3106,2.3106,2.3106,2.3106,2.3106,2.3106,2.3106,2.3106,2.3106,2.3106,2.3106,2.3106,2.3106,2.3106,2.3106,2.3106,2.3106,2.3106,2.3106,2.3106,2.3106,2.3106,2.3106,2.3106,2.3106,2.3106,2.3106,2.3106,2.3106,2.3106,2.3106,2.3106,2.3106,2.3106,2.3106,2.3106,2.3106,2.3106,2.3106,2.3106,2.3106,2.3106,2.3106,2.3106,2.3106,2.3106,2.3106,2.3106,2.3106,2.3106,2.3106,2.3106,2.3106,2.3106,2.3106,2.3106,2.3106,2.3106,2.3106,2.3106,2.3106,2.3106,2.3106,2.3106,2.3106,2.364,2.4064,2.4079,2.4687,2.5105,2.5119,2.5127,2.5127,2.5127,2.5127,2.5127,2.5127,2.5127,2.5127,2.5127,2.5127,2.5127,2.5127,2.5127,2.5198,2.5498,2.5437,2.5306,2.4975,2.5222,2.5382,2.5352,2.5639,2.5705,2.6808,2.671,2.6769,2.5691,2.5902,2.6465,2.6602,2.6833,2.7013,2.7013,2.7013,2.7013,2.7013,2.6225,2.537,2.4517,2.5063,2.5002,2.3355,2.3845,2.4031,2.323,2.3106,2.3106,2.3106,2.3106,2.3106,2.3106,2.3106,2.3106,2.3106,2.3106,2.3106,2.3106,2.3106,2.3106,2.3106,2.3106,2.3106,2.3106,2.3106,2.3106,2.3106,2.3106,2.3106,2.3106,2.3106,2.3106,2.3106,2.3106,2.3106,2.3106,2.3106,2.3106,2.3106,2.3106,2.3106,2.3106,2.3106,2.3106,2.3106,2.3106,2.3106,2.3106,2.3106,2.3106,2.3106,2.3106,2.3106,2.3106,2.3106,2.3106,2.3106,2.3106,2.3106,2.3106,2.3106,2.3106,2.3106,2.3106,2.3106,2.3106,2.3106,2.3647,2.4086,2.4086,2.4642,2.5127,2.5127,2.5127,2.5127,2.5127,2.5127,2.5127,2.5127,2.5127,2.5127,2.5127,2.5127,2.5127,2.5127,2.5127,2.5205,2.552,2.574,2.5874,2.5945,2.6027,2.6099,2.601,2.6116,2.6019,2.7503,2.7481,2.7465,2.6659,2.6975,2.7504,2.7638,2.7988,2.8283,2.8283,2.8283,2.8283,2.8283,2.8283,2.7735,2.6042,2.6468,2.6407,2.4633,2.5186,2.5439,2.4517,2.4394,2.4394,2.4394,2.4394,2.4209,2.3783,2.3783,0.0,2.3106,2.3106,2.3106,2.3106,2.3106,2.3106,2.3106,2.3106,2.3106,2.3106,2.3106,2.3106,2.3106,2.3106,2.3106,2.3106,2.3106,2.3106,2.3106,2.3106,2.3106,2.3106,2.3106,2.3106,2.3106,2.3106,2.3106,2.3106,2.3106,2.3417,2.372,2.323,2.3417,2.3666,2.323,2.3106,2.3168,2.3658,2.3783,2.3845,2.427,2.4092,2.3658,2.323,2.3106,2.3106,2.3106,2.3106,2.3106,2.3106,2.3106,2.3106,2.3106,2.3647,2.4086,2.4086,2.4642,2.5127,2.5127,2.5127,2.5127,2.5127,2.5127,2.5127,2.5127,2.5127,2.5127,2.5127,2.5127,2.5127,2.5127,2.5162,2.5366,2.5688,2.601,2.6339,2.6669,2.6669,2.6627,2.6619,2.6619,2.6392,0.0,0.0,0.0,2.8906,2.9228,2.9714,3.0078,3.0537,3.0879,3.0889,3.0889,3.0889,3.0889,3.0889,3.0098,2.7555,2.7134,2.7082,2.7013,2.7013,2.7013,2.7013,2.7013,2.7013,2.7013,2.7013,2.6468,2.5256,2.5133,2.4579,2.323,2.3106,2.3106,2.3106,2.3106,2.3106,2.3106,2.3106,2.3106,2.3106,2.3106,2.3106,2.3106,2.3106,2.3106,2.3106,2.3168,2.3168,2.3168,2.3106,2.3106,2.3106,2.3106,2.3106,2.3106,2.3168,2.3168,2.3168,2.323,2.4092,2.4949,2.3666,2.4092,2.4887,2.3596,2.323,2.3472,2.4764,2.5133,2.5439,2.665,2.6103,2.4826,2.3542,2.323,2.323,2.323,2.3168,2.3168,2.3113,2.3106,2.3106,2.3106,2.3647,2.4086,2.4086,2.4642,2.5127,2.5127,2.5127,2.5127,2.5127,2.5127,2.5127,2.5127,2.5127,2.5127,2.5127,2.5127,2.5127,2.5127,2.5359,2.5681,2.601,2.6339,2.6661,2.6991,2.6991,2.6991,2.6991,2.6991,2.6765,2.9004,0.0,0.0,0.0,0.0,0.0,2.9938,3.0372,3.0718,3.0878,3.0889,3.0889,3.0889,3.0889,3.0645,2.9922,2.9804,2.9135,2.7263,2.7787,2.8026,2.7134,2.7013,2.7013,2.7013,2.7013,2.6831,0.0,2.6468,2.592,2.4641,2.3596,2.3106,2.3106,2.3106,2.3106,2.3106,2.3106,2.3106,2.3106,2.3106,2.3106,2.3106,2.3106,2.3106,2.3168,2.4154,2.4517,2.4456,2.3479,2.3106,2.3106,2.3106,2.3106,2.323,2.4216,2.4517,2.4702,2.5615,2.6147,2.6382,2.6034,2.6164,2.6407,2.6042,2.592,2.5981,2.6346,2.6468,2.6529,2.6892,2.671,2.6407,2.5981,2.592,2.592,2.592,2.5186,2.4278,2.3293,2.3106,2.3106,2.3106,2.3647,2.4086,2.4086,2.4642,2.5127,2.5127,2.5127,2.5127,2.5127,2.5127,2.5127,2.5127,2.5127,2.5127,2.5127,2.5127,2.5127,2.5127,2.5359,2.5681,2.601,2.6339,2.6661,2.6991,2.6991,2.6991,2.6991,2.6991,2.6918,2.9033,2.8916,2.8873,2.873,0.0,0.0,2.9709,3.0178,3.0626,3.0605,3.0752,3.0889,3.0889,3.0889,3.0889,3.0889,3.0889,3.0343,2.8829,2.9244,2.9481,2.871,2.865,2.865,2.865,2.865,2.8403,2.7847,2.7787,2.7246,2.5981,2.5125,2.4756,2.4756,2.4756,2.4756,2.4756,2.4756,2.4756,2.4756,2.4756,2.4756,2.4756,2.4756,2.4756,2.4756,2.5554,2.5859,2.5798,2.5063,2.4394,2.3969,2.4517,2.4394,2.4092,2.5439,2.5859,2.5981,2.671,2.7366,2.7709,2.7194,2.7375,2.7675,2.7134,2.7013,2.7134,2.7667,2.8215,2.8531,2.7915,2.7787,2.7667,2.7134,2.7013,2.7013,2.7013,2.6407,2.5493,2.4216,2.3907,2.4014,2.4151,2.5051,2.5847,2.6053,2.6475,2.6835,2.6835,2.6301,2.5906,2.5906,2.545,2.5127,2.5127,2.5127,2.5127,2.5127,2.5127,2.5127,2.5127,2.5491,2.582,2.601,2.6471,2.68,2.6991,2.6991,2.6991,2.6991,2.6991,2.6991,2.9033,2.8926,2.8937,2.8783,2.9079,0.0,2.949,3.0032,3.0475,3.0288,3.0564,3.0868,3.0927,3.0927,3.0946,3.0995,3.1005,3.1005,3.0889,3.0889,3.0889,3.0889,3.0889,3.0889,3.0889,3.0889,3.0401,2.9226,2.8979,2.8385,2.7254,2.7073,2.7013,2.7013,2.7013,2.7013,2.7013,2.7013,2.7013,2.7013,2.7013,2.7013,2.7013,2.7013,2.7013,2.7021,2.7134,2.7194,2.7194,2.7383,2.6589,2.5439,2.6529,2.6286,2.5493,2.6771,2.7194,2.7254,2.7375,2.8155,2.8929,2.7796,2.8215,2.8929,2.7796,2.7435,2.7675,2.8811,2.9962,3.0645,2.9412,2.9107,2.887,2.7675,2.7435,2.7435,2.7435,2.7315,2.6892,2.5737,2.5439,2.5421,2.5829,2.7127,2.8263,2.8712,2.9016,2.9182,2.9182,2.8139,2.7286,2.7153,2.604,2.5255,2.5119,2.5127,2.5127,2.5127,2.5127,2.5141,2.511,2.5696,2.6102,2.6343,2.6956,2.7129,2.6991,2.6991,2.6991,2.6991,2.6991,2.6991,2.9033,2.9099,2.9283,2.9093,2.9308,0.0,2.9951,3.0174,3.0277,3.0334,3.0428,3.0598,3.1014,3.1084,3.1204,3.1564,3.1624,3.145,3.0947,3.0889,3.0889,3.0889,3.0889,3.0889,3.0889,3.0889,3.0772,3.0518,2.954,2.8801,2.8564,2.7555,2.7013,2.7013,2.7013,2.7013,2.7013,2.7013,2.7013,2.7013,2.7013,2.7013,2.7013,2.7013,2.7013,2.7073,2.8086,2.8504,2.8623,2.9667,2.8769,2.665,2.6892,2.6823,2.6797,2.8077,2.8504,2.8692,2.9736,3.0284,3.046,3.0225,3.0284,3.046,3.0216,3.0157,3.0157,3.046,3.0704,3.083,3.0587,3.0518,3.046,3.0225,3.0157,3.0157,3.0157,2.9303,2.8444,2.8197,2.7306,2.6768,2.7131,2.769,2.8263,2.8712,2.9016,2.9182,2.9182,2.8986,2.8403,2.7294,2.6894,2.6301,2.5187,2.5127,2.5127,2.5127,2.5127,2.5169,2.5425,2.5813,2.6691,2.8209,2.8608,2.8186,2.6991,2.6991,2.6991,2.6991,2.6991,2.6991,2.8775,2.8937,0.0,2.9139,0.0,0.0,0.0,3.0084,3.0201,3.0087,3.0244,3.0535,3.1033,3.0932,3.1003,3.1677,3.1596,3.1421,3.1363,3.1344,3.1344,3.1344,3.1228,3.1112,3.1112,3.1005,3.0889,3.0889,3.0274,2.9903,2.9903,2.9303,2.8948,2.8948,2.8948,2.8948,2.8948,2.8948,2.8948,2.8948,2.8948,2.8948,2.8948,2.8948,2.8948,2.9007,2.9608,2.9903,2.9962,3.0635,3.0108,2.8948,2.8948,2.8513,2.8128,2.9412,2.9903,2.9971,3.0645,3.0889,3.0889,3.0889,3.0889,3.0889,3.0889,3.0889,3.0889,3.0889,3.0889,3.0889,3.0889,3.0889,3.0889,3.0889,3.0889,3.0889,3.0889,3.0392,2.9903,2.9903,2.9362,2.8952,2.8922,2.9561,3.0351,3.101,3.1203,3.1267,3.1267,3.0678,2.9956,2.9304,2.8592,2.7874,2.7219,2.7153,2.7153,2.7153,2.7153,2.7312,2.7661,2.8019,2.8796,3.0095,2.9511,2.8819,2.8122,2.734,2.6991,2.6991,2.6991,2.6991,0.0,0.0,0.0,0.0,0.0,2.9659,0.0,0.0,0.0,2.989,3.012,3.0449,3.0949,3.0737,3.0757,3.1576,3.1404,3.1323,3.1768,3.1839,3.1812,3.1777,3.1498,3.1325,3.1325,3.1112,3.0947,3.0889,3.0947,3.0947,3.0889,3.0889,3.0889,3.0889,3.0889,3.0889,3.0889,3.0889,3.0889,3.0889,3.0889,3.0889,3.0889,3.0889,3.0889,3.0889,3.0889,3.0889,3.0889,3.0889,3.0889,3.0889,3.0889,3.0216,2.9412,3.0518,3.0889,3.0889,3.0889,3.0889,3.0889,3.0889,3.0889,3.0889,3.0889,3.0889,3.0889,3.0889,3.0889,3.0889,3.0889,3.0889,3.0889,3.0889,3.0889,3.0889,3.0889,3.0889,3.0889,3.0889,3.0889,3.0848,3.0616,3.1459,3.2451,3.3301,3.3418,3.3418,3.3418,3.2428,3.1579,3.1313,3.0281,2.9509,2.9248,2.9182,2.9182,2.9182,2.9182,2.9453,2.9974,3.07,3.1236,3.1491,3.0589,2.9806,2.917,2.7977,2.7274,2.6991,2.6991,2.6991,0.0,0.0,0.0,0.0,3.0009,0.0,0.0,0.0,3.0014,2.9962,0.0,3.0178,3.0642,0.0,0.0,3.1333,3.1375,3.1498,3.1942,3.2004,3.1922,3.1805,3.1498,3.1325,3.1325,3.1267,3.117,3.0889,3.1102,3.116,3.0889,3.0889,3.0889,3.0889,3.0889,3.0889,3.0889,3.0889,3.0889,3.0889,3.0889,3.0889,3.0889,3.0889,3.0889,3.0889,3.0889,3.0889,3.0889,3.0889,3.0889,3.0889,3.0889,3.083,3.0704,3.083,3.0889,3.0889,3.0889,3.0889,3.0889,3.0889,3.0889,3.0889,3.0889,3.0889,3.0889,3.0889,3.0889,3.0889,3.0889,3.0889,3.0889,3.0889,3.0889,3.0889,3.0889,3.0889,3.0889,3.0889,3.0889,3.1103,3.183,3.2107,3.2451,3.3301,3.3418,3.3418,3.3418,3.3292,3.2692,3.1442,3.1185,3.054,2.9313,2.9182,2.9182,2.9182,2.9182,2.9507,3.0292,3.2331,3.2829,3.1508,3.2639,3.193,2.917,2.9027,2.8259,2.6991,2.6991,2.6991,0.0,0.0,0.0,0.0,0.0,0.0,2.9994,0.0,2.9994,0.0,0.0,0.0,0.0,0.0,0.0,0.0,3.1153,3.1226,3.1884,3.1988,3.2097,3.2322,0.0,0.0,3.1325,3.1325,3.1218,0.0,3.116,3.116,3.0889,3.0889,3.0889,3.0889,3.0889,3.0889,3.0889,3.0889,3.0889,3.0889,3.0889,3.0889,3.0889,3.0889,3.0889,3.0889,3.0889,3.0889,3.0889,3.0889,3.0889,3.0889,3.0889,3.0889,3.0889,3.0889,3.0889,3.0889,3.0889,3.0889,3.0889,3.0889,3.0889,3.0889,3.0889,3.0889,3.0889,3.0889,3.0889,3.0889,3.0889,3.0889,3.0889,3.0889,3.0889,3.0889,3.0889,3.0889,3.0889,3.0889,3.0889,3.1162,3.2021,3.2229,3.2451,3.3301,3.3418,3.3418,3.3418,3.3418,3.3155,3.2565,3.2502,3.231,3.1662,3.1662,3.1662,3.1662,3.2097,3.2514,3.2866,3.4303,3.4756,3.4117,3.3909,3.3128,3.186,3.0091,2.8891,2.8259,2.7412,2.6991,2.9985,0.0,0.0,0.0,0.0,0.0,0.0,0.0,0.0,0.0,0.0,0.0,0.0,0.0,3.0212,3.0884,0.0,3.077,3.1557,3.1774,3.2075,3.2607,3.243,0.0,0.0,3.1498,3.145,0.0,0.0,3.1276,3.0889,3.0889,3.0889,3.0889,3.0889,3.0889,3.0889,3.0889,3.0889,3.0889,3.0889,3.0889,3.0889,3.0889,3.0889,3.0889,3.0889,3.0889,3.0889,3.0889,3.0889,3.0889,3.0889,3.0889,3.0889,3.0889,3.0889,3.0889,3.0889,3.0889,3.0889,3.0889,3.0889,3.0889,3.0889,3.0889,3.0889,3.0889,3.0889,3.0889,3.0889,3.0889,3.0889,3.0889,3.0889,3.0889,3.0889,3.0889,3.0889,3.0889,3.0986,3.1299,3.2041,3.2229,3.2451,3.3301,3.3418,3.3418,3.3418,3.3418,3.3418,3.3418,3.3418,3.3418,3.3418,3.3418,3.3476,3.3594,3.4297,3.4756,3.4883,3.5615,3.6016,3.6016,3.4971,3.4195,3.3771,3.1578,3.002,2.917,2.7695,2.6991,0.0,0.0,0.0,3.0667,0.0,0.0,0.0,0.0,2.9994,0.0,0.0,0.0,3.0015,3.0005,3.0005,3.0036,3.0025,0.0,0.0,3.1122,3.1733,3.2623,3.243,3.2133,0.0,3.2076,3.2018,0.0,3.1614,0.0,3.0947,3.0889,3.0889,3.0889,3.0889,3.0889,3.0889,3.0889,3.0889,3.0889,3.0889,3.0889,3.0889,3.0889,3.0889,3.0889,3.0889,3.0889,3.0889,3.0889,3.0889,3.0889,3.0889,3.0889,3.0889,3.0889,3.0889,3.0889,3.0889,3.0889,3.0889,3.0889,3.0889,3.0889,3.0889,3.0889,3.0889,3.0889,3.0889,3.0889,3.0889,3.0889,3.0889,3.0889,3.0889,3.0889,3.0889,3.0889,3.0889,3.0889,3.1221,3.1641,3.209,3.2229,3.2451,3.3301,3.3418,3.3418,3.3418,3.3418,3.3418,3.3418,3.3418,3.3418,3.3418,3.3418,3.3603,3.4023,3.4463,3.4902,3.5351,3.5791,3.6016,3.6016,3.5947,3.5245,3.3771,3.3701,3.2141,2.917,2.7695,2.6991,0.0,0.0,3.0232,3.0232,0.0,0.0,0.0,0.0,0.0,0.0,0.0,0.0,0.0,2.9994,2.9994,2.9994,2.9994,3.0263,0.0,3.1795,3.2271,3.2215,3.2246,3.2258,3.2133,0.0,0.0,0.0,3.1392,0.0,3.0889,3.0889,3.0889,3.0889,3.0889,3.0889,3.0889,3.0889,3.0889,3.0889,3.0889,3.0889,3.0889,3.0889,3.0889,3.0889,3.0889,3.0889,3.0889,3.0889,3.0889,3.0889,3.0889,3.0889,3.0889,3.0889,3.0889,3.0889,3.0889,3.0889,3.0889,3.0889,3.0889,3.0889,3.0889,3.0889,3.0889,3.0889,3.0889,3.0889,3.0889,3.0889,3.0889,3.0889,3.0889,3.0889,3.0889,3.0889,3.0889,3.0889,3.123,3.165,3.209,3.2393,3.2773,3.334,3.3418,3.3418,3.3418,3.3418,3.3418,3.3418,3.3418,3.3418,3.3418,3.3418,3.3603,3.4043,3.4463,3.4912,3.5371,3.5801,3.6016,3.6016,3.6016,3.5733,3.5245,3.4264,3.3276,3.2211,3.066,2.8899,3.0356,3.0222,0.0,2.9994,2.9994,0.0,2.9994,0.0,0.0,0.0,0.0,0.0,0.0,0.0,2.9994,2.9994,2.9994,3.0263,0.0,3.1774,3.2199,3.2008,3.2267,3.2373,3.2315,3.219,3.1913,3.1325,3.1383,3.1334,0.0,0.0,3.0889,3.0889,3.0889,3.0889,3.0889,3.0889,3.0889,3.0889,3.0889,3.0889,3.0889,3.0889,3.0889,3.0889,3.0889,3.0889,3.0889,3.0889,3.0889,3.0889,3.0889,3.0889,3.0889,3.0889,3.0889,3.0889,3.0889,3.0889,3.0889,3.0889,3.0889,3.0889,3.1005,3.1054,3.1054,3.1054,3.1054,3.0995,3.0947,3.0889,3.0889,3.0889,3.0889,3.0889,3.0889,3.0889,3.0889,3.0889,3.1357,3.1836,3.2119,3.2637,3.3105,3.3379,3.3418,3.3418,3.3418,3.3418,3.3418,3.3418,3.3418,3.3418,3.3418,3.3418,3.3672,3.4258,3.4551,3.4971,3.5596,3.5879,3.6094,3.625,3.6103,3.6094,3.625,3.5106,3.4333,3.3771,3.2779,3.0943]},{"header":{"parameterUnit":"m.s-1","parameterCategory":1,"la1":30.6,"la2":29.2853,"lo1":-89.7004,"lo2":-87.6739,"dy":0.0162,"dx":0.0183,"nx":112,"ny":82,"refTime":"2023-05-28T12:00:00:Z","depth":0,"parameterNumber":3,"parameterNumberName":"V-component_of_WINDS"},"data":[0.0,0.0,0.0,0.0,0.0,0.0,0.0,0.0,0.0,0.0,0.0,0.0,0.0,0.0,0.0,0.0,0.0,0.0,0.0,0.0,0.0,0.0,0.0,0.0,0.0,0.0,0.0,0.0,0.0,0.0,0.0,0.0,0.0,0.0,0.0,0.0,0.0,0.0,0.0,0.0,0.0,0.0,0.0,0.0,0.0,0.0,0.0,0.0,0.0,0.0,0.0,0.0,0.0,0.0,0.0,0.0,0.0,0.0,0.0,0.0,0.0,0.0,0.0,0.0,0.0,0.0,0.0,0.0,0.0,0.0,0.0,0.0,0.0,0.0,0.0,0.0,0.0,0.0,0.0,0.0,0.0,0.0,0.0,0.0,0.0,0.0,0.0,0.0,0.0,0.0,5.3192,5.4223,5.5116,5.5711,5.5898,5.5907,5.5586,5.486,0.0,0.0,0.0,0.0,0.0,0.0,0.0,0.0,0.0,0.0,0.0,0.0,0.0,0.0,0.0,0.0,0.0,0.0,0.0,0.0,0.0,0.0,0.0,0.0,0.0,0.0,0.0,0.0,0.0,0.0,0.0,0.0,0.0,0.0,0.0,0.0,0.0,0.0,0.0,0.0,0.0,0.0,0.0,0.0,0.0,0.0,0.0,0.0,0.0,0.0,0.0,0.0,0.0,0.0,0.0,0.0,0.0,0.0,0.0,0.0,0.0,0.0,0.0,0.0,0.0,0.0,0.0,0.0,0.0,0.0,0.0,0.0,0.0,0.0,0.0,0.0,0.0,0.0,0.0,0.0,0.0,0.0,0.0,0.0,0.0,0.0,0.0,0.0,0.0,0.0,0.0,0.0,0.0,0.0,0.0,0.0,0.0,0.0,0.0,0.0,0.0,0.0,0.0,0.0,5.3463,5.5185,5.5654,5.588,5.5907,5.5907,5.5829,5.5722,0.0,0.0,0.0,0.0,0.0,0.0,0.0,0.0,0.0,0.0,0.0,0.0,0.0,0.0,0.0,0.0,0.0,0.0,0.0,0.0,0.0,0.0,0.0,0.0,0.0,0.0,0.0,0.0,0.0,0.0,0.0,0.0,0.0,0.0,0.0,0.0,0.0,0.0,0.0,0.0,0.0,0.0,0.0,0.0,0.0,0.0,0.0,0.0,0.0,0.0,0.0,0.0,0.0,0.0,0.0,0.0,0.0,0.0,0.0,0.0,0.0,0.0,0.0,0.0,0.0,0.0,0.0,0.0,0.0,0.0,0.0,0.0,0.0,0.0,0.0,0.0,0.0,0.0,0.0,0.0,0.0,0.0,0.0,0.0,0.0,0.0,0.0,0.0,0.0,0.0,0.0,0.0,0.0,0.0,0.0,0.0,0.0,0.0,0.0,0.0,0.0,0.0,0.0,5.3281,5.4333,5.5769,5.6005,5.6107,5.6226,5.6233,5.6233,5.6233,5.585,0.0,0.0,0.0,0.0,0.0,0.0,0.0,0.0,0.0,0.0,0.0,0.0,0.0,0.0,0.0,0.0,0.0,0.0,0.0,0.0,0.0,0.0,0.0,0.0,0.0,0.0,0.0,0.0,0.0,0.0,0.0,0.0,0.0,0.0,0.0,0.0,0.0,0.0,0.0,0.0,0.0,0.0,0.0,0.0,0.0,0.0,0.0,0.0,0.0,0.0,0.0,0.0,0.0,0.0,0.0,0.0,0.0,0.0,0.0,0.0,0.0,0.0,0.0,0.0,0.0,0.0,0.0,0.0,0.0,0.0,0.0,0.0,0.0,0.0,0.0,0.0,0.0,0.0,0.0,0.0,0.0,0.0,0.0,0.0,0.0,0.0,0.0,0.0,0.0,0.0,0.0,0.0,0.0,0.0,0.0,0.0,0.0,0.0,0.0,0.0,0.0,0.0,5.4323,5.5285,5.6104,5.6245,5.6322,5.6479,5.6507,5.6507,5.6507,5.6507,0.0,0.0,0.0,0.0,0.0,0.0,0.0,0.0,0.0,0.0,0.0,0.0,0.0,0.0,0.0,0.0,0.0,0.0,0.0,0.0,0.0,0.0,0.0,0.0,0.0,0.0,0.0,0.0,0.0,0.0,0.0,0.0,0.0,0.0,0.0,0.0,0.0,0.0,0.0,0.0,0.0,0.0,0.0,0.0,0.0,0.0,0.0,0.0,0.0,0.0,0.0,0.0,0.0,0.0,0.0,0.0,0.0,0.0,0.0,0.0,0.0,0.0,0.0,0.0,0.0,0.0,0.0,0.0,0.0,0.0,0.0,0.0,0.0,0.0,0.0,0.0,0.0,0.0,0.0,0.0,0.0,0.0,0.0,0.0,0.0,0.0,0.0,0.0,0.0,0.0,0.0,0.0,0.0,0.0,0.0,0.0,0.0,0.0,0.0,0.0,0.0,0.0,5.4973,5.6123,5.6194,5.6377,5.6479,5.6507,5.6507,5.6507,5.6507,5.6507,0.0,0.0,0.0,0.0,0.0,0.0,0.0,0.0,0.0,0.0,0.0,0.0,0.0,0.0,0.0,0.0,0.0,0.0,0.0,0.0,0.0,0.0,0.0,0.0,0.0,0.0,0.0,0.0,0.0,0.0,0.0,0.0,0.0,0.0,0.0,0.0,0.0,0.0,0.0,0.0,0.0,0.0,0.0,0.0,0.0,0.0,0.0,0.0,0.0,0.0,0.0,0.0,0.0,0.0,0.0,0.0,0.0,0.0,0.0,0.0,0.0,0.0,0.0,0.0,0.0,0.0,0.0,0.0,0.0,0.0,0.0,0.0,0.0,0.0,0.0,0.0,0.0,0.0,0.0,0.0,0.0,0.0,0.0,0.0,0.0,0.0,0.0,0.0,0.0,0.0,0.0,0.0,0.0,0.0,0.0,0.0,0.0,0.0,0.0,0.0,0.0,0.0,5.4805,5.5784,5.6329,5.6455,5.6504,5.6504,5.6496,5.6503,5.6503,0.0,0.0,0.0,0.0,0.0,0.0,0.0,0.0,0.0,0.0,0.0,0.0,0.0,0.0,0.0,0.0,0.0,0.0,0.0,0.0,0.0,0.0,0.0,0.0,0.0,0.0,0.0,0.0,0.0,0.0,0.0,0.0,0.0,0.0,0.0,0.0,0.0,0.0,0.0,0.0,0.0,0.0,0.0,0.0,0.0,0.0,0.0,0.0,0.0,0.0,0.0,0.0,0.0,0.0,0.0,0.0,0.0,0.0,0.0,0.0,0.0,0.0,0.0,0.0,0.0,0.0,0.0,0.0,0.0,0.0,0.0,0.0,0.0,0.0,0.0,0.0,0.0,0.0,0.0,0.0,0.0,0.0,0.0,0.0,0.0,0.0,0.0,0.0,0.0,0.0,0.0,0.0,0.0,0.0,0.0,0.0,0.0,0.0,0.0,0.0,0.0,0.0,5.3805,5.4909,5.5848,5.6437,5.6492,5.6503,5.6503,5.6494,5.6501,5.6501,0.0,0.0,0.0,0.0,0.0,0.0,0.0,0.0,0.0,0.0,0.0,0.0,0.0,0.0,0.0,0.0,0.0,0.0,0.0,0.0,0.0,0.0,0.0,0.0,0.0,0.0,0.0,0.0,0.0,0.0,0.0,0.0,0.0,0.0,0.0,0.0,0.0,0.0,0.0,0.0,0.0,0.0,0.0,0.0,0.0,0.0,0.0,0.0,0.0,0.0,0.0,0.0,0.0,0.0,0.0,0.0,0.0,0.0,0.0,0.0,0.0,0.0,0.0,0.0,0.0,0.0,0.0,0.0,0.0,0.0,0.0,0.0,0.0,0.0,0.0,0.0,0.0,0.0,0.0,0.0,0.0,0.0,0.0,0.0,0.0,0.0,0.0,0.0,0.0,0.0,0.0,0.0,0.0,0.0,0.0,0.0,0.0,0.0,0.0,0.0,0.0,0.0,5.3911,5.5432,5.6496,5.6496,5.6494,5.6504,5.6504,5.6504,5.6504,0.0,0.0,0.0,0.0,0.0,0.0,0.0,0.0,0.0,0.0,0.0,0.0,0.0,0.0,0.0,0.0,0.0,0.0,0.0,0.0,0.0,0.0,0.0,0.0,0.0,0.0,0.0,0.0,0.0,0.0,0.0,0.0,0.0,0.0,0.0,0.0,0.0,0.0,0.0,0.0,0.0,0.0,0.0,0.0,0.0,0.0,0.0,0.0,0.0,0.0,0.0,0.0,0.0,0.0,0.0,0.0,0.0,0.0,0.0,0.0,0.0,0.0,0.0,0.0,0.0,0.0,0.0,0.0,0.0,0.0,0.0,0.0,0.0,0.0,0.0,0.0,0.0,0.0,0.0,0.0,0.0,0.0,0.0,0.0,0.0,0.0,0.0,0.0,0.0,0.0,0.0,0.0,0.0,0.0,0.0,0.0,0.0,0.0,0.0,0.0,0.0,0.0,0.0,5.4743,5.573,5.6429,5.6424,5.6426,5.6425,5.6425,5.6424,5.6423,5.6423,0.0,0.0,0.0,0.0,0.0,0.0,0.0,0.0,0.0,0.0,0.0,0.0,0.0,0.0,0.0,0.0,0.0,0.0,0.0,0.0,0.0,0.0,0.0,0.0,0.0,0.0,0.0,0.0,0.0,0.0,0.0,0.0,0.0,0.0,0.0,0.0,0.0,0.0,0.0,0.0,0.0,0.0,0.0,0.0,0.0,0.0,0.0,0.0,0.0,0.0,0.0,0.0,0.0,0.0,0.0,0.0,0.0,0.0,0.0,0.0,0.0,0.0,0.0,0.0,0.0,0.0,0.0,0.0,0.0,0.0,0.0,0.0,0.0,0.0,0.0,0.0,0.0,0.0,0.0,0.0,0.0,0.0,0.0,0.0,0.0,0.0,0.0,0.0,0.0,0.0,0.0,0.0,0.0,0.0,0.0,0.0,0.0,0.0,0.0,0.0,0.0,0.0,5.511,5.5858,5.6405,5.6395,5.6406,5.6399,5.6399,5.6393,5.6417,5.6432,0.0,0.0,0.0,0.0,0.0,0.0,0.0,0.0,0.0,0.0,0.0,0.0,0.0,0.0,0.0,0.0,0.0,0.0,0.0,0.0,0.0,0.0,0.0,0.0,0.0,0.0,0.0,0.0,0.0,0.0,0.0,0.0,0.0,0.0,0.0,0.0,0.0,0.0,0.0,0.0,0.0,0.0,0.0,0.0,0.0,0.0,0.0,0.0,0.0,0.0,0.0,0.0,0.0,0.0,0.0,0.0,0.0,0.0,0.0,0.0,0.0,0.0,0.0,0.0,0.0,0.0,0.0,0.0,0.0,0.0,0.0,0.0,0.0,0.0,0.0,0.0,0.0,0.0,0.0,0.0,0.0,0.0,0.0,0.0,0.0,0.0,0.0,0.0,0.0,0.0,0.0,0.0,0.0,0.0,0.0,0.0,0.0,0.0,0.0,0.0,0.0,0.0,5.5214,5.5894,5.6397,5.6393,5.6385,5.6397,5.6397,5.6397,5.6415,5.6481,0.0,0.0,0.0,0.0,0.0,0.0,0.0,0.0,0.0,0.0,0.0,0.0,0.0,0.0,0.0,0.0,0.0,0.0,0.0,0.0,0.0,0.0,0.0,0.0,0.0,0.0,0.0,0.0,0.0,0.0,0.0,0.0,0.0,0.0,0.0,0.0,0.0,0.0,0.0,0.0,0.0,0.0,0.0,0.0,0.0,0.0,0.0,0.0,0.0,0.0,0.0,0.0,0.0,0.0,0.0,0.0,0.0,0.0,0.0,0.0,5.0993,0.0,0.0,0.0,0.0,0.0,0.0,0.0,0.0,0.0,0.0,0.0,0.0,0.0,0.0,0.0,0.0,0.0,0.0,0.0,0.0,0.0,0.0,0.0,0.0,0.0,0.0,0.0,0.0,0.0,0.0,0.0,0.0,0.0,0.0,0.0,0.0,0.0,0.0,0.0,0.0,0.0,5.6042,5.6206,5.6316,5.6314,5.6317,5.6317,5.6317,5.6317,5.6328,5.6329,5.6503,0.0,0.0,0.0,0.0,0.0,0.0,0.0,0.0,0.0,0.0,0.0,0.0,0.0,0.0,0.0,0.0,0.0,0.0,0.0,0.0,0.0,0.0,0.0,0.0,0.0,0.0,0.0,0.0,0.0,0.0,0.0,0.0,0.0,0.0,0.0,0.0,0.0,0.0,0.0,0.0,0.0,0.0,0.0,0.0,0.0,0.0,0.0,0.0,0.0,0.0,0.0,0.0,0.0,0.0,0.0,0.0,0.0,0.0,0.0,0.0,5.1145,0.0,0.0,0.0,0.0,0.0,0.0,0.0,0.0,0.0,0.0,0.0,0.0,0.0,0.0,0.0,0.0,0.0,0.0,0.0,0.0,0.0,0.0,0.0,0.0,0.0,0.0,0.0,0.0,0.0,0.0,0.0,0.0,0.0,0.0,0.0,0.0,0.0,0.0,0.0,0.0,5.6291,5.6294,5.6292,5.6298,5.6291,5.6291,5.6291,5.6291,5.6303,5.6303,5.6683,0.0,0.0,0.0,0.0,0.0,0.0,0.0,0.0,0.0,0.0,0.0,0.0,0.0,0.0,0.0,0.0,0.0,0.0,0.0,0.0,0.0,0.0,0.0,0.0,0.0,0.0,0.0,0.0,0.0,0.0,0.0,0.0,0.0,0.0,0.0,0.0,0.0,0.0,0.0,0.0,0.0,0.0,0.0,0.0,0.0,0.0,0.0,0.0,0.0,0.0,0.0,0.0,0.0,5.425,5.4373,5.4373,5.4372,5.4763,5.531,5.3203,5.2989,5.3955,5.1803,0.0,0.0,0.0,0.0,0.0,0.0,0.0,0.0,0.0,0.0,0.0,0.0,0.0,0.0,0.0,0.0,0.0,0.0,0.0,0.0,0.0,0.0,0.0,0.0,5.5513,5.6143,0.0,0.0,0.0,0.0,0.0,0.0,0.0,0.0,0.0,0.0,0.0,0.0,5.6291,5.6291,5.6291,5.6291,5.6291,5.6291,5.6291,5.6291,5.636,5.6514,5.7189,5.7721,0.0,0.0,0.0,0.0,0.0,0.0,0.0,0.0,0.0,0.0,0.0,0.0,0.0,0.0,0.0,0.0,0.0,0.0,0.0,0.0,0.0,0.0,0.0,0.0,0.0,0.0,0.0,0.0,0.0,0.0,0.0,0.0,4.8472,4.8595,0.0,0.0,0.0,0.0,0.0,0.0,0.0,0.0,0.0,0.0,0.0,0.0,0.0,4.9169,5.026,5.1765,5.3014,5.4029,5.5537,5.6241,5.6243,5.6247,5.628,5.6308,5.5976,0.0,5.4994,5.4665,0.0,0.0,0.0,0.0,0.0,0.0,0.0,0.0,0.0,0.0,0.0,0.0,0.0,0.0,0.0,0.0,0.0,0.0,0.0,0.0,0.0,0.0,5.6067,5.6073,5.627,5.6358,0.0,5.6077,5.5957,5.5249,5.5678,0.0,0.0,0.0,0.0,0.0,0.0,0.0,5.6291,5.6291,5.6291,5.6291,5.6291,5.6291,5.6291,5.6291,5.6615,5.7372,5.7528,5.8247,5.9717,5.9873,0.0,0.0,0.0,0.0,0.0,0.0,0.0,0.0,0.0,0.0,0.0,0.0,0.0,0.0,0.0,0.0,0.0,0.0,0.0,0.0,0.0,0.0,0.0,0.0,0.0,0.0,0.0,0.0,0.0,4.7637,4.8135,4.8135,4.7801,4.7411,0.0,0.0,0.0,0.0,0.0,0.0,0.0,0.0,0.0,4.9501,4.954,5.0418,5.2271,5.3053,5.4108,5.5474,5.6235,5.6606,5.6606,5.6568,5.6521,5.6504,5.6504,5.6268,5.5831,5.5347,5.4696,5.3956,0.0,0.0,0.0,0.0,5.3213,5.3334,5.4238,5.4525,0.0,5.4128,0.0,0.0,0.0,0.0,0.0,0.0,0.0,0.0,0.0,0.0,5.5786,5.6287,5.6391,5.6385,5.6361,5.6369,5.6269,0.0,5.6065,5.63,5.6297,0.0,0.0,0.0,0.0,5.6291,5.6291,5.6291,5.6291,5.6291,5.6738,5.7036,5.7036,5.7457,5.7865,5.8253,5.8273,5.8603,5.9341,5.9846,6.0312,0.0,0.0,0.0,0.0,0.0,0.0,0.0,0.0,0.0,0.0,0.0,0.0,0.0,0.0,0.0,0.0,0.0,0.0,0.0,0.0,0.0,0.0,0.0,0.0,0.0,0.0,0.0,0.0,4.7977,4.8156,4.7931,4.8101,4.7904,0.0,0.0,0.0,0.0,0.0,0.0,4.9111,4.9139,4.9529,5.0416,5.0436,5.1588,5.3971,5.401,5.4869,5.6606,5.6606,5.6606,5.6606,5.6554,5.6522,5.6504,5.6504,5.646,5.635,5.572,5.5328,5.5034,5.4324,5.3924,5.3741,5.3975,5.4049,5.4154,5.5098,5.5414,5.5361,5.5169,5.4944,5.4678,5.4196,0.0,0.0,0.0,0.0,5.4237,5.5161,5.5414,5.5569,5.6218,5.6365,5.6365,5.6365,5.634,5.6295,0.0,5.6294,5.6305,5.6291,0.0,0.0,0.0,0.0,5.6622,5.6622,5.6816,5.6932,5.6932,5.7515,5.791,5.791,5.8467,5.8894,5.9127,5.9127,5.9224,5.9458,6.0099,6.0486,6.0581,0.0,0.0,0.0,0.0,0.0,0.0,0.0,0.0,0.0,0.0,0.0,0.0,0.0,0.0,0.0,0.0,0.0,0.0,0.0,0.0,0.0,0.0,0.0,0.0,0.0,0.0,0.0,0.0,0.0,4.8846,4.9479,0.0,0.0,0.0,0.0,4.874,4.8783,4.9156,4.9989,5.0033,5.0425,5.1316,5.1336,5.2195,5.3971,5.401,5.4869,5.6606,5.6606,5.6606,5.6606,5.6608,5.6568,5.6504,5.6504,5.646,5.6393,5.6422,5.5892,5.5103,5.5042,5.4521,5.3907,5.4725,5.4996,5.5068,5.5929,5.6246,5.6109,5.5356,5.4546,5.4,5.4784,5.4407,0.0,0.0,5.4932,5.5145,5.6013,5.6246,5.6246,5.6291,5.631,5.631,5.631,5.631,5.6302,0.0,5.6303,5.6304,5.6291,0.0,5.6291,5.6291,5.6997,5.7522,5.7522,5.8195,5.8681,5.8681,5.8719,5.8739,5.8739,5.8778,5.9147,5.9982,6.0021,6.0409,6.1218,6.1315,6.1342,6.1343,6.2263,0.0,0.0,0.0,0.0,0.0,0.0,0.0,0.0,0.0,0.0,0.0,0.0,0.0,0.0,0.0,0.0,0.0,0.0,0.0,0.0,0.0,0.0,0.0,0.0,0.0,0.0,0.0,0.0,4.8892,4.9567,0.0,4.8873,4.9313,4.9636,4.9636,5.0155,5.0606,5.0926,5.0938,5.1075,5.1394,5.1941,5.28,5.399,5.4556,5.5435,5.6606,5.6606,5.6606,5.6606,5.6551,5.6522,5.6504,5.6504,5.6484,5.6461,5.6538,5.6328,5.5921,5.5886,5.5677,5.5446,5.5769,5.5868,5.5883,5.6194,5.6291,5.624,5.5971,5.5653,5.5464,5.5775,5.5629,5.5437,5.5747,5.5845,5.5903,5.6214,5.6291,5.6291,5.6291,5.6291,5.6447,5.7017,5.7133,5.7282,5.7811,5.7489,5.7133,5.7133,5.7573,5.7904,5.7904,5.8176,5.837,5.837,5.8622,5.8797,5.8797,5.9302,5.9632,5.9632,6.0157,6.0623,6.0914,6.0934,6.1089,6.1393,6.1393,6.1427,6.1452,6.1796,6.2566,0.0,0.0,0.0,0.0,0.0,0.0,0.0,0.0,0.0,0.0,0.0,0.0,0.0,0.0,0.0,0.0,0.0,0.0,0.0,0.0,0.0,0.0,0.0,0.0,0.0,4.9206,4.9778,4.8891,4.984,5.0207,4.9322,5.0035,5.0534,5.0534,5.1063,5.1394,5.1394,5.1394,5.1394,5.1394,5.196,5.2819,5.399,5.4576,5.5454,5.6606,5.6606,5.6606,5.6606,5.6551,5.6539,5.6539,5.6539,5.6539,5.6538,5.6579,5.6555,5.646,5.6422,5.6372,5.6324,5.6324,5.6331,5.6291,5.6291,5.6291,5.6291,5.6291,5.6291,5.6291,5.6291,5.6291,5.6291,5.6291,5.6291,5.6291,5.6291,5.6524,5.6738,5.6738,5.6952,5.7301,5.7884,5.8001,5.8156,5.87,5.837,5.8001,5.8001,5.8447,5.8894,5.9186,5.9244,5.9341,5.9652,5.9691,5.9691,5.9691,6.0196,6.0545,6.0545,6.1342,6.1704,6.1412,6.1674,6.1719,6.1447,6.1681,6.1859,6.1904,6.1925,6.2573,6.3867,0.0,0.0,0.0,0.0,0.0,0.0,0.0,0.0,0.0,0.0,0.0,0.0,0.0,0.0,0.0,0.0,0.0,0.0,0.0,0.0,0.0,0.0,0.0,4.8954,4.9597,4.9824,4.8984,5.0377,5.1075,5.0214,5.0904,5.1394,5.1394,5.1394,5.1394,5.1394,5.1394,5.1394,5.1394,5.1433,5.2253,5.3971,5.4029,5.4908,5.6606,5.6606,5.6606,5.6606,5.6606,5.6606,5.6606,5.6606,5.6606,5.6606,5.6606,5.6606,5.6606,5.6606,5.6522,5.6409,5.6409,5.6363,5.6291,5.6291,5.6291,5.6291,5.6291,5.6291,5.6291,5.6291,5.6291,5.6291,5.6291,5.6291,5.6311,5.633,5.6978,5.7619,5.7638,5.8234,5.8817,5.8836,5.8836,5.8855,5.8875,5.8875,5.8875,5.8855,5.8855,5.9166,6.0001,6.0137,0.0,6.1296,6.1393,6.1412,6.1432,6.1432,6.1432,6.1432,6.2216,6.2339,6.1458,6.2193,6.2313,6.1534,6.2255,6.2664,6.2669,6.2766,6.2866,6.3008,0.0,0.0,0.0,0.0,0.0,0.0,0.0,0.0,0.0,0.0,0.0,0.0,0.0,0.0,0.0,0.0,0.0,0.0,0.0,0.0,0.0,4.9792,5.0026,4.9772,5.0496,5.0949,5.0704,5.1107,5.1301,5.1076,5.1263,5.1394,5.1394,5.1394,5.1394,5.1394,5.1394,5.1394,5.1394,5.2019,5.2878,5.399,5.4635,5.5493,5.6606,5.6606,5.6606,5.6606,5.6606,5.6606,5.6606,5.6606,5.6606,5.6606,5.6606,5.6606,5.6608,5.6555,5.6482,5.6387,5.6345,5.633,5.6291,5.6291,5.6291,5.6291,5.6291,5.6291,5.6291,5.6291,5.6291,5.6291,5.6291,5.6291,5.6447,5.7075,5.7425,5.7755,5.8331,5.8642,5.8972,5.9613,5.9749,5.9924,6.0558,6.0694,6.0487,5.9846,6.0273,6.0771,6.1011,6.105,0.0,6.1373,6.1393,6.1645,6.2274,6.2352,6.2352,6.2352,6.2561,6.2341,6.1523,6.1693,6.1735,6.152,6.1715,6.1854,6.1902,6.2597,6.2954,0.0,0.0,0.0,0.0,0.0,0.0,0.0,0.0,0.0,0.0,0.0,0.0,0.0,0.0,0.0,0.0,0.0,0.0,0.0,0.0,0.0,0.0,5.0416,5.0631,5.0631,5.1082,5.1394,5.1394,5.1394,5.1394,5.1394,5.1394,5.1394,5.1394,5.1394,5.1394,5.1394,5.1394,5.1394,5.1394,5.1882,5.2741,5.399,5.4498,5.5376,5.6606,5.6606,5.6606,5.6606,5.6606,5.6606,5.6606,5.6606,5.6606,5.6606,5.6606,5.6606,0.0,0.0,0.0,0.0,0.0,5.63,5.6291,5.6291,5.6291,5.6291,5.6291,5.6291,5.6291,5.6291,5.6291,5.6369,5.6738,5.6842,5.7029,5.7884,5.837,5.8758,5.9224,5.9613,6.004,6.0545,6.0642,6.0798,6.1296,6.1393,0.0,6.074,6.107,6.1509,6.1886,6.1626,6.1529,6.1905,6.1626,6.1587,6.2099,6.2173,6.2205,6.2205,6.2528,0.0,0.0,0.0,6.2096,6.2096,6.2096,0.0,0.0,0.0,6.2793,6.2462,0.0,0.0,0.0,6.3438,6.3613,0.0,0.0,0.0,0.0,0.0,0.0,0.0,0.0,0.0,0.0,0.0,0.0,0.0,0.0,0.0,0.0,5.0906,5.1394,5.1394,5.1394,5.1394,5.1394,5.1394,5.1394,5.1394,5.1394,5.1394,5.1394,5.1394,5.1394,5.1394,5.1394,0.0,0.0,0.0,5.2234,5.3988,5.4008,5.4864,5.6582,5.6582,5.6582,5.6584,5.6584,5.6584,5.6606,5.6606,5.6606,5.6606,5.6606,5.6606,5.6606,5.6591,5.6503,5.6399,5.6324,5.6304,5.6291,5.6291,0.0,0.0,5.6291,5.6291,5.6311,5.6427,5.6447,5.6622,5.7483,5.7735,5.793,5.8739,5.9516,6.0118,6.0215,6.0837,6.1393,6.1393,6.1393,6.1393,6.1393,6.1393,6.1393,6.1393,6.1393,6.1665,6.2449,6.1905,6.1684,6.2449,6.1886,6.1439,6.1537,0.0,0.0,6.164,6.2356,6.2449,6.1573,6.2302,6.2754,6.2754,6.2754,6.2754,6.2754,6.2754,6.2416,6.1698,6.1698,6.1698,6.1737,6.3282,6.3594,0.0,0.0,0.0,0.0,0.0,0.0,0.0,0.0,0.0,0.0,0.0,0.0,0.0,0.0,0.0,5.1023,5.1297,5.1394,5.1394,5.1394,5.1394,5.1394,5.1394,5.1394,5.1394,5.1394,5.1394,5.1394,5.1394,5.1394,5.1394,5.1394,5.1394,5.1394,5.1394,5.2249,5.3974,5.3994,5.4847,5.6514,0.0,0.0,5.6511,5.6511,5.6555,5.6606,5.6606,5.6606,5.6606,5.6606,5.6606,5.6589,5.6537,5.6461,5.6382,5.6324,5.6303,5.6291,5.6291,5.6291,5.6291,5.6291,5.6291,5.6427,5.7133,5.7347,0.0,5.8331,5.8564,5.8778,5.9632,5.9963,6.0273,6.0992,6.1276,6.1393,6.1393,6.1393,6.1393,6.1393,6.1393,6.1393,6.1393,6.1393,6.1451,6.1626,6.1509,6.1451,6.1626,6.149,6.1674,6.2366,6.245,6.2496,6.2535,6.2758,6.2518,6.1639,6.1809,6.1928,6.1928,6.1928,6.1928,6.1928,6.1928,6.1866,6.1698,6.1698,6.1698,6.1718,6.2052,6.211,0.0,0.0,0.0,0.0,0.0,0.0,0.0,0.0,0.0,0.0,0.0,4.9683,5.0588,0.0,5.0887,5.1336,5.1394,5.1394,5.1394,5.1394,5.1394,5.1394,5.1394,5.1394,5.1394,5.1394,5.1394,5.1394,5.1394,5.1394,5.1394,5.141,5.1406,5.1406,5.1399,5.2213,5.3922,5.3942,5.4814,5.6501,5.6501,5.6508,5.6494,5.6494,5.652,5.6545,5.6545,5.655,5.6558,5.6582,5.6606,5.6608,5.6568,5.6484,5.6385,5.632,5.6305,5.6291,5.6291,5.6291,5.6291,5.6291,5.6602,5.7036,5.7463,5.7891,5.837,5.9205,5.9458,5.9652,6.0526,6.0759,6.0856,6.1296,6.1393,6.1393,6.1393,6.1393,6.1421,6.1433,6.1445,6.1443,6.1442,6.1451,6.1436,6.1421,6.1393,6.1393,6.1393,6.1421,6.1623,6.2051,6.2132,6.2158,6.2195,6.2265,6.21,6.169,6.1672,6.1698,6.1698,6.1698,6.1698,6.1698,6.1698,6.1698,6.1698,6.1698,6.1698,6.1698,6.1602,6.1602,0.0,0.0,0.0,0.0,0.0,0.0,0.0,4.9015,4.9173,5.012,5.0306,5.0542,5.1275,5.1394,5.1394,5.1394,5.1394,5.1394,5.1394,5.1394,5.1394,5.1394,5.1394,5.1394,5.1394,5.1394,5.1394,5.1392,5.1392,5.139,5.1408,5.1399,5.1394,5.1394,5.14,5.2116,5.3634,5.3829,5.4684,5.6257,5.6413,5.6494,5.6498,5.6498,5.6498,5.6501,5.6501,5.6491,5.6503,5.6555,5.6577,5.6577,5.6577,5.6518,5.6405,5.6341,5.6314,5.6296,5.6296,5.6297,5.6337,5.6505,5.7036,5.7658,5.8007,5.8571,5.9244,6.0105,6.0351,6.0526,6.1239,6.1421,6.1421,6.1421,6.1421,6.1415,6.1421,6.1421,6.1431,6.1485,6.1498,6.1502,6.1501,6.1508,6.1475,6.1431,6.1421,6.1421,6.1421,6.1466,6.1506,6.1522,6.1566,6.1601,6.162,6.166,6.1698,6.1698,6.1698,6.1698,6.1698,6.1698,6.1698,6.1698,6.1698,6.1698,6.1698,6.1698,6.1693,6.1663,6.1489,6.1504,4.5937,4.6233,4.7385,4.8903,4.8784,4.8716,0.0,5.0157,4.9941,5.0887,5.1078,5.1138,5.1367,5.1394,5.1394,5.1394,5.1394,5.1394,5.1394,5.1394,5.1394,5.1394,5.1394,5.1394,5.1394,5.1394,5.139,5.1401,5.1401,5.1394,5.14,5.1397,5.1397,5.1397,5.1394,5.1837,5.2737,5.3517,5.4383,5.5357,5.6121,5.65,5.6496,5.6496,5.6507,5.6501,5.6501,5.6504,5.6504,5.6508,5.6508,5.6508,5.6508,5.6469,5.6403,5.6464,5.6389,5.6294,5.6294,5.6289,5.644,5.72,5.7528,5.7898,5.9435,5.996,6.0201,6.1025,6.1237,6.1297,6.1453,6.1491,6.1491,6.1491,6.1495,6.1487,6.1481,6.1483,6.149,6.1498,6.1498,6.1501,6.1505,6.1508,6.1503,6.149,6.1487,6.1487,6.1487,6.1495,6.1514,6.1579,6.1601,6.1619,6.1672,6.1703,6.1698,6.1698,6.1698,6.1698,6.1698,6.1698,6.1698,6.1698,6.1698,6.1698,6.1698,6.1698,6.1634,6.1524,6.1495,6.1461,4.8574,4.8326,4.8558,4.9846,4.9921,4.9905,5.0665,5.06,5.0532,5.1035,5.1135,5.1191,5.1377,5.1406,5.1406,5.1406,5.1399,5.1394,5.1394,5.1394,5.1394,5.1394,5.1394,5.1399,5.1392,5.1394,5.139,5.1399,5.1399,5.1391,5.1394,5.1366,5.1343,5.1343,5.133,5.1748,5.2598,5.3456,5.4348,5.5212,5.6074,5.6492,5.65,5.65,5.6504,5.6492,5.6503,5.6507,5.6507,5.6498,5.6501,5.6501,5.6501,5.6481,5.6467,5.6456,5.6403,5.6363,5.6363,5.668,5.7178,5.7531,5.8328,5.9254,5.9978,6.0531,6.0984,6.1343,6.1451,6.1455,6.1491,6.1495,6.1495,6.1495,6.1495,6.1505,6.1507,6.1503,6.1502,6.1554,6.1556,6.1579,6.1601,6.162,6.162,6.162,6.1554,6.1508,6.1508,6.1527,6.1581,6.1649,6.1666,6.166,6.1701,6.1698,6.1698,6.1698,6.1698,6.1698,6.1698,6.1698,6.1698,6.1698,6.1698,6.1698,6.1698,6.1625,6.1549,6.1486,6.1225,6.1092,4.969,4.9493,4.9438,5.0393,5.0673,5.0701,5.0761,5.08,5.0874,5.1014,5.1044,5.1084,5.123,5.1297,5.1327,5.1327,5.1352,5.1472,5.1706,5.1726,5.1823,5.2057,5.2096,5.2086,5.2084,5.1677,5.1381,5.1369,5.1366,5.1361,5.1362,5.133,5.1303,5.1303,5.1308,5.1729,5.2586,5.3463,5.4336,5.5212,5.6074,5.6507,5.6507,5.6507,5.6507,5.6507,5.65,5.6508,5.6508,5.6503,5.6507,5.6507,5.6507,5.6507,5.6494,5.6443,5.6419,5.6404,5.6404,5.696,5.7721,5.7974,5.9039,6.0274,6.0505,6.0987,6.1451,6.1488,6.1494,6.1494,6.1517,6.1538,6.1538,6.1538,6.1522,6.1522,6.1538,6.1521,6.1543,6.1618,6.1636,6.1631,6.1686,6.1698,6.1698,6.1698,6.162,6.1555,6.1555,6.1601,6.1652,6.1683,6.1698,6.1698,6.1698,6.1698,6.1698,6.1698,6.1698,6.1698,6.1698,6.1698,6.1698,6.1698,6.1666,6.1637,6.1637,6.15,6.1384,6.1337,6.099,6.0783,4.7744,4.8579,4.9407,5.03,5.0596,5.0696,5.0705,5.0798,5.0887,5.0901,5.0901,5.0901,5.0907,5.1025,5.1118,5.1118,5.1269,5.1667,5.2444,5.2561,5.2873,5.3712,5.3829,5.3829,5.381,5.235,5.1369,5.1317,5.1294,5.1307,5.1304,5.13,5.13,5.13,5.13,5.1729,5.2586,5.3463,5.4336,5.5212,5.6074,5.6507,5.6507,5.6507,5.6507,5.6507,5.6507,5.6507,5.6507,5.6507,5.6507,5.6507,5.6507,5.6507,5.6507,5.6492,5.6464,5.6399,5.6399,5.6933,5.7748,5.8652,5.957,6.0449,6.1308,6.1562,6.1581,6.1516,6.1494,6.1516,6.1582,6.1601,6.1601,6.1601,6.1592,6.1592,6.1591,6.1605,6.1628,6.1679,6.1702,6.1705,6.1698,6.1698,6.1698,6.1698,6.1701,6.1683,6.1683,6.1703,6.1701,6.1698,6.1698,6.1698,6.1698,6.1698,6.1698,6.1698,6.1698,6.1698,6.1698,6.1698,6.1698,6.1698,6.1576,6.1514,6.1514,6.1304,6.1116,6.0925,6.0896,6.0765,4.9464,4.9773,5.0082,5.0413,5.0525,5.0566,5.0506,5.0537,5.0596,5.0678,5.0703,5.0723,5.0811,5.1333,5.182,5.1947,5.246,5.3001,5.3417,5.3463,5.358,5.3872,5.3892,5.3892,5.3892,5.3387,5.3043,5.3029,5.3026,5.3038,5.3034,5.2489,5.243,5.3015,5.2469,5.2586,5.3444,5.4336,5.4901,5.5212,5.6074,5.6507,5.6507,5.6507,5.6507,5.6507,5.6507,5.6507,5.6507,5.6507,5.6507,5.6507,5.6507,5.6507,5.6507,5.6507,5.6496,5.6469,5.6469,5.7377,5.8575,5.8905,5.9986,6.1229,6.151,6.1575,6.1549,6.1562,6.1571,6.1568,6.1598,6.1595,6.1595,6.1595,6.1595,6.1607,6.1604,6.1592,6.1625,6.1688,6.1693,6.1693,6.1698,6.1698,6.1698,6.1698,6.1698,6.1698,6.1698,6.1698,6.1698,6.1698,6.1698,6.1698,6.1698,6.1698,6.1698,6.1698,6.1698,6.1698,6.1698,6.1602,6.1576,6.1576,6.1381,6.1298,6.1298,6.11,6.0973,6.0905,6.0727,6.086,4.9927,5.0149,5.0371,5.0424,5.0416,5.0424,5.0371,5.0359,5.0393,5.0493,5.0497,5.0529,5.0613,5.1359,5.1945,5.1777,5.2531,5.3267,5.3677,5.3828,5.4093,5.466,5.4786,5.4827,5.4827,5.4831,5.4566,5.395,5.3892,5.3904,5.3892,5.3366,5.3327,5.3888,5.3366,5.3483,5.4355,5.492,5.5353,5.5665,5.6234,5.6507,5.6507,5.6507,5.6507,5.6507,5.6507,5.6507,5.6507,5.6507,5.6507,5.6507,5.6507,5.6507,5.6507,5.6507,5.6507,5.6546,5.6838,5.7841,5.9056,5.9362,6.0425,6.1594,6.16,6.1572,6.1537,6.1591,6.1607,6.1607,6.1607,6.1607,6.1607,6.1607,6.1607,6.1597,6.1608,6.1596,6.1607,6.166,6.1666,6.1668,6.1698,6.1698,6.1698,6.1698,6.1698,6.1698,6.1698,6.1698,6.1698,6.1698,6.1698,6.1698,6.1698,6.1698,6.1698,6.1698,6.166,6.1628,6.1628,6.1471,6.1395,6.1395,6.1225,6.1116,6.1081,6.0915,6.0963,6.1177,6.1,6.1365,4.9167,4.971,5.0302,5.0302,5.0302,5.0302,5.0302,5.0302,5.0302,5.0302,5.0302,5.0302,5.0302,5.1152,5.1605,5.0856,5.1715,5.2718,5.3425,5.3804,5.4538,5.6006,5.6358,5.6479,5.6479,5.6483,5.5801,5.4164,5.4028,5.4028,5.4028,5.3985,5.3985,5.4028,5.3985,5.4394,5.5251,5.5271,5.5684,5.6507,5.6507,5.6507,5.6507,5.6507,5.6507,5.6507,5.6507,5.6507,5.6507,5.6507,5.6507,5.6507,5.6507,5.6507,5.6507,5.6507,5.6507,5.6624,5.7481,5.8314,5.9133,6.001,6.0886,6.1607,6.1607,6.1607,6.1607,6.1607,6.1607,6.1607,6.1607,6.1607,6.1607,6.1607,6.1607,6.1607,6.1607,6.1607,6.1606,6.1607,6.1598,6.1628,6.1696,6.1698,6.1698,6.1698,6.1698,6.1698,6.1698,6.1698,6.1698,6.1698,6.1698,6.1698,6.1698,6.1696,6.1696,6.1696,6.1553,6.1481,6.1481,6.1292,6.1199,6.1199,6.1044,6.0974,6.0963,6.0823,6.109,6.1767,6.1767,6.2185,4.9996,5.0149,5.0302,5.0302,5.0302,5.0302,5.0302,5.0302,5.0302,5.0302,5.0302,5.0302,5.0302,5.1534,5.2518,5.2471,5.3755,5.4872,5.5221,5.5351,5.5537,5.5924,5.6142,5.6283,5.6283,5.6403,5.6312,5.5864,5.584,5.584,5.584,5.5217,5.5178,5.5821,5.5217,5.5295,5.6152,5.6171,5.6273,5.6507,5.6507,5.6507,5.6507,5.6507,5.6507,5.6507,5.6507,5.6507,5.6507,5.6507,5.6507,5.6507,5.6507,5.6507,5.6507,5.6507,5.6507,5.6702,5.8163,5.8802,5.9133,6.001,6.0886,6.1607,6.1607,6.1607,6.1607,6.1607,6.1607,6.1607,6.1607,6.1607,6.1607,6.1607,6.1607,6.1592,6.1591,6.1595,6.1603,6.1591,6.1644,6.1679,6.1696,6.1698,6.1698,6.1698,6.1698,6.1698,6.1698,6.1698,6.1698,6.1698,6.1698,6.1698,6.1698,6.1618,6.1545,6.1545,6.137,6.1285,6.1285,6.1136,6.1055,6.1055,6.0871,6.1093,6.1723,6.1531,6.1866,6.2681,6.2624,6.304,5.0302,5.0302,5.0302,5.0302,5.0302,5.0302,5.0302,5.0302,5.0302,5.0302,5.0302,5.0302,5.0302,5.1658,5.2719,5.2486,5.3909,5.5049,5.51,5.5238,5.5427,5.574,5.5957,5.6078,5.6078,5.6175,5.6239,5.6239,5.6398,5.6507,5.6507,5.6035,5.5996,5.6487,5.6035,5.6015,5.6507,5.6507,5.6507,5.6507,5.6507,5.6507,5.6507,5.6507,5.6507,5.6507,0.0,5.6507,5.6507,5.6507,5.6507,5.6507,5.6507,5.6507,5.6507,5.6507,5.6721,5.7228,5.8529,5.925,5.9717,6.0594,6.1198,6.1607,6.1607,6.1607,6.1607,6.1607,6.1607,6.1607,6.1607,6.1607,6.1607,6.1607,6.1607,6.1592,6.1606,6.1606,6.1595,6.1596,6.1638,6.1673,6.1688,6.1691,6.1685,6.1625,6.1602,6.1588,6.1493,6.1561,6.1602,6.1602,6.153,6.1489,6.1489,6.1417,6.1359,6.1359,6.1211,6.11,6.11,6.0974,6.0911,6.0871,6.1127,6.1467,6.1882,6.2147,6.2705,6.3537,6.3494,6.3923,5.029,5.0302,5.0302,5.0302,5.0302,5.0302,5.0302,5.0302,5.0302,5.0302,5.0302,5.0302,5.0302,5.1582,5.2442,5.1868,5.3173,5.4265,5.4262,5.4519,5.4911,5.5508,5.5731,5.5852,5.5852,5.5879,5.5907,5.5907,5.6213,5.6427,5.6427,5.6427,5.6427,5.6427,5.6427,5.6427,5.6427,5.6441,5.6465,5.647,5.6479,5.6507,5.6507,5.6507,5.6507,5.6507,5.6507,0.0,5.6507,5.6507,5.6507,5.6507,5.6507,5.6507,5.6507,5.6507,5.7013,5.7812,5.8704,5.9561,6.0438,6.1315,6.1607,6.1607,6.1607,6.1607,6.1607,6.1607,6.1607,6.1607,6.1607,6.1607,6.1607,6.1607,6.1607,6.1607,6.1607,6.1607,6.1597,6.1599,6.1569,6.1584,6.1641,6.1615,6.1573,6.1456,6.1446,6.139,6.1226,6.1348,6.1452,6.1452,6.1298,6.1206,6.1206,6.1172,6.1177,6.1177,6.1055,6.0974,6.0974,6.0845,6.0803,6.087,6.1594,6.1997,6.2054,6.2781,6.3576,6.4359,6.4359,6.4726,5.0224,5.0302,5.0302,5.0302,5.0302,5.0302,5.0302,5.0302,5.0302,5.0302,5.0302,5.0302,5.0302,5.1123,5.1983,5.2499,5.3453,5.4383,5.5078,5.523,5.5305,5.5421,5.5558,5.564,5.564,5.5798,5.5907,5.5907,5.5965,5.6005,5.6005,5.6005,5.6005,5.6005,5.6005,5.6005,5.6005,5.6175,5.6251,5.6251,5.6427,5.6507,5.6507,5.6507,5.6507,5.6507,5.6507,0.0,5.6507,5.6507,5.6507,5.6507,5.6507,5.6507,5.6507,5.6507,5.7013,5.7812,5.8704,5.9561,6.0438,6.1315,6.1607,6.1607,6.1607,6.1607,6.1607,6.1607,6.1607,6.1607,6.1607,6.1607,6.1607,6.1607,6.1607,6.1607,6.1607,6.1607,6.1597,6.1599,6.1461,6.1353,6.1381,6.1221,6.1126,6.1153,6.1172,6.1179,6.1206,6.1233,6.1246,6.1246,6.1226,6.1206,6.1206,6.1103,6.1028,6.1028,6.0911,6.0831,6.0831,6.0757,6.1043,6.1761,6.176,6.2426,6.3848,6.3944,6.4397,6.5184,6.5184,6.5261,4.9955,5.0051,5.0076,5.0267,5.0646,5.0856,5.0397,5.0646,5.0856,5.0397,5.0302,5.0302,5.0302,5.1009,5.1735,5.2117,5.3263,5.4256,5.4658,5.5116,5.5403,5.5403,5.5458,5.5492,5.5492,5.5577,5.5643,5.5643,5.5643,5.5729,5.5898,5.5907,5.5907,5.5907,5.5907,5.5907,5.5907,5.5998,5.6036,5.6056,5.6135,5.6188,5.6188,5.6188,5.6188,5.6188,5.6188,0.0,5.6194,5.63,5.6347,5.6352,5.6465,5.6507,5.6507,5.6507,5.7306,5.8431,5.8841,5.9873,6.1042,6.1451,6.1607,6.1607,6.1607,6.1607,6.1607,6.1607,6.1607,6.1607,6.1607,6.1607,6.1607,6.1607,6.1607,6.1607,6.1607,6.1523,6.1445,6.1443,6.1278,6.1143,6.1143,6.107,6.1004,6.0997,6.1008,6.099,6.1002,6.0993,6.101,6.1087,6.1037,6.0993,6.0993,6.0933,6.089,6.089,6.085,6.0788,6.0765,6.1151,6.1512,6.1837,6.2632,6.3437,6.425,6.4626,6.5012,6.5394,6.5394,6.5394,4.9688,4.9803,4.987,5.0224,5.0971,5.136,5.0512,5.0971,5.1353,5.0474,5.0302,5.0302,5.0302,5.0856,5.1391,5.1582,5.2862,5.3894,5.4065,5.4849,5.546,5.5651,5.567,5.5728,5.5919,5.5938,5.5938,5.5938,5.5766,5.5691,5.5789,5.5789,5.5789,5.5789,5.5789,5.5789,5.5789,5.5826,5.5834,5.5834,5.587,5.5907,5.5907,5.5907,5.5907,5.5907,5.5907,0.0,0.0,5.6078,5.6148,5.6181,5.652,5.669,5.6748,5.6899,5.7946,5.9269,5.9269,6.0302,6.1607,6.1607,6.1607,6.1607,6.1607,6.1607,6.1607,6.1607,6.1607,6.1607,6.1607,6.1607,6.1583,6.1539,6.1534,6.1528,6.1482,6.1356,6.124,6.124,6.1074,6.0945,6.0935,6.0906,6.0847,6.0813,6.0822,6.0798,6.0757,6.0765,6.0796,6.0904,6.0845,6.08,6.08,6.08,6.08,6.08,6.0788,6.0842,6.0966,6.1601,6.2042,6.226,6.3604,6.4326,6.4473,6.5089,6.5394,6.5394,6.5394,6.5394,4.9632,4.9803,4.987,5.0224,5.0971,5.136,5.0512,5.0971,5.1353,5.0474,5.0302,5.0302,5.0302,5.0378,5.0684,5.1455,5.2346,5.3206,5.3989,5.4849,5.567,5.6396,5.6492,5.6797,5.7581,5.7676,5.7676,5.7676,5.6931,5.6174,5.5485,5.5447,5.5447,5.5447,5.5447,5.5447,5.5447,5.5569,5.5639,5.5619,5.5807,5.5907,5.5907,5.5907,5.5907,5.5907,5.5907,5.5907,0.0,5.5924,5.5932,5.601,5.682,5.7261,5.7496,5.8228,5.9215,6.0185,6.0185,6.0808,6.1607,6.1607,6.1607,6.1607,6.1607,6.1607,6.1607,6.1607,6.1607,6.1607,6.1607,6.1607,6.1544,6.1376,6.133,6.1289,6.1092,6.1039,6.103,6.103,6.0873,6.0739,6.0731,6.0578,6.046,6.0533,6.0533,6.0559,6.0617,6.0617,6.0629,6.0635,6.0722,6.08,6.08,6.08,6.08,6.08,6.0734,6.1062,6.1857,6.1785,6.2465,6.4039,6.4173,6.4569,6.528,6.5356,6.5394,6.5394,6.5394,6.5394,4.9067,4.9193,4.9271,4.9599,5.0521,5.1064,5.0138,5.0805,5.1341,5.0427,5.0278,5.0302,5.0302,5.0741,5.12,5.1532,5.2728,5.3702,5.4046,5.4849,5.5708,5.6492,5.6587,5.6931,5.781,5.7905,5.7873,5.778,5.6957,5.6352,5.6014,5.554,5.5267,5.5214,5.5214,5.5214,5.5214,5.5275,5.5288,5.5288,5.5416,5.5485,5.5485,5.5558,5.5607,5.5607,5.5607,5.5607,0.0,5.6258,5.6502,5.6608,5.7554,5.804,5.8266,5.857,5.9385,6.0302,6.0302,6.0867,6.1607,6.1607,6.1607,6.1607,6.1607,6.1607,6.1607,6.1607,6.1607,6.1607,6.1607,6.1504,6.1376,6.1178,6.1117,6.1092,6.102,6.0905,6.083,6.083,6.0657,6.0527,6.0527,6.0453,6.0417,6.0485,6.0499,6.0525,6.0591,6.0604,6.0604,6.0604,6.0655,6.0704,6.0741,6.0685,6.0704,6.0741,6.1134,6.1512,6.1804,6.2747,6.3571,6.4231,6.4683,6.507,6.5394,6.5394,6.5394,6.5394,6.5394,6.5394,4.8604,4.8746,4.8906,4.9476,5.0297,5.0775,5.0189,5.077,5.1205,5.0359,5.0446,5.0672,5.066,5.1355,5.1928,5.1903,5.3105,5.404,5.404,5.4765,5.5618,5.6465,5.6548,5.6973,5.8113,5.8424,5.851,5.8416,5.7368,5.6749,5.674,5.5717,5.5135,5.5094,5.5094,5.5094,5.5094,5.5094,5.5094,5.5094,5.5176,5.5197,5.5197,5.5339,5.5403,5.5403,5.5403,0.0,0.0,5.652,5.6956,5.7294,5.8239,5.8723,5.8939,5.9202,5.9804,6.0513,6.0513,6.0902,6.1427,6.1427,6.1427,6.1427,6.1427,6.1456,6.1504,6.1504,6.1476,6.1427,6.1427,6.1317,6.115,6.0954,6.0905,6.0895,6.0841,6.0716,6.0615,6.0615,6.05,6.0403,6.0403,6.0403,6.0417,6.0458,6.0472,6.0485,6.0539,6.0539,6.0539,6.0539,6.0539,6.0578,6.0648,6.0629,6.0713,6.1006,6.1499,6.1989,6.2451,6.3628,6.4364,6.455,6.5108,6.5394,6.5394,6.5394,6.5394,6.5394,6.5394,6.5394,4.8403,4.8604,4.8968,5.0108,5.0512,5.0654,5.085,5.0998,5.0933,5.0322,5.0942,5.1577,5.1497,5.2152,5.2679,5.2601,5.3329,5.39,5.39,5.4599,5.5459,5.6385,5.6444,5.7082,5.8811,5.9649,6.008,6.008,5.8538,5.7558,5.7487,5.5911,5.5042,5.5094,5.5094,5.5094,5.5094,5.5094,5.5094,5.5094,5.5176,5.5197,5.5197,5.5339,5.5403,5.5403,5.5403,0.0,0.0,5.66,5.7116,5.7963,5.8784,5.9217,5.9496,6.0369,6.0803,6.0983,6.0983,6.1002,6.1002,6.1002,6.1002,6.1002,6.1002,6.1162,6.131,6.131,6.115,6.1002,6.1002,6.1002,6.0954,6.0742,6.0704,6.0645,6.0453,6.0403,6.0403,6.0403,6.0403,6.0403,6.0403,6.0403,6.0403,6.0403,6.0403,6.0403,6.0403,6.0403,6.0403,6.0403,6.0403,6.0458,6.0591,6.0604,6.0949,6.1735,6.1726,6.247,6.4212,6.4235,6.4588,6.5375,6.5394,6.5394,6.5394,6.5394,6.5394,6.5394,6.5394,6.5394,4.8132,4.8192,4.8323,4.8659,4.8974,4.9169,4.9186,5.0081,5.0837,5.0601,5.1473,5.2291,5.2265,5.2951,5.3509,5.3482,5.4166,5.4713,5.4713,5.5455,5.6307,5.714,5.8248,5.9162,5.9691,5.992,6.0026,6.0026,5.8991,5.8087,5.7468,5.6406,5.5553,5.4975,5.4956,5.4956,5.4956,5.4956,5.4956,5.4956,5.5042,5.5052,5.5085,5.5154,5.5524,5.6077,5.6131,0.0,0.0,5.8031,5.8479,5.8803,5.9663,6.0105,6.0319,6.0608,6.083,6.1002,6.1002,6.1002,6.1002,6.1002,6.1002,6.1002,6.1002,6.1039,6.1092,6.1092,6.1048,6.0964,6.0841,6.0798,6.0742,6.0546,6.0487,6.0493,6.0417,6.0403,6.0403,6.0403,6.0403,6.0403,6.0403,6.0403,6.0403,6.0403,6.0403,6.0403,6.0403,6.0403,6.0403,6.0403,6.0403,6.0431,6.0525,6.0983,6.1409,6.1713,6.2792,6.3662,6.4216,6.4741,6.5146,6.5394,6.5394,6.5394,6.5394,6.5394,6.5394,6.5394,6.5394,6.5394,4.7886,4.7909,4.804,4.8332,4.8372,4.8493,4.9157,4.9978,5.0714,5.1064,5.2186,5.3082,5.3055,5.3726,5.4315,5.4287,5.4705,5.5142,5.5465,5.5978,5.6624,5.7422,5.8764,5.96,5.957,5.9808,5.9966,5.9966,5.8875,5.7971,5.7422,5.6323,5.547,5.492,5.4901,5.4901,5.4901,5.4901,5.4901,5.4901,5.4956,5.517,5.5493,5.556,5.6045,5.6844,0.0,0.0,0.0,5.8797,5.9258,5.9621,6.0165,6.0493,6.0578,6.0578,6.0657,6.0776,6.0776,6.0776,6.0776,6.0776,6.0776,6.0776,6.0776,6.083,6.0864,6.0798,6.0776,6.0742,6.0628,6.0578,6.0559,6.0425,6.0403,6.0403,6.0403,6.0403,6.0403,6.0403,6.0403,6.0403,6.0403,6.0403,6.0403,6.0403,6.0403,6.0403,6.0403,6.0403,6.0403,6.0403,6.0403,6.0551,6.0898,6.1334,6.176,6.2127,6.3437,6.4339,6.463,6.5127,6.5394,6.5394,6.5394,6.5394,6.5394,6.5394,6.5394,6.5394,6.5394,6.5314,0.0,4.7871,4.8154,4.8901,4.8621,4.8618,5.0363,5.0583,0.0,5.174,5.2998,5.3921,5.3879,5.4487,5.4971,5.4916,5.4901,5.5204,5.6076,5.6304,5.6664,5.7403,5.8315,5.8824,5.8707,5.9447,5.9902,5.9902,5.8388,5.746,5.7403,5.5868,5.4958,5.4901,5.4901,5.4901,5.4901,5.4901,5.4901,5.4901,5.5032,5.5512,5.631,5.6421,5.6906,0.0,0.0,0.0,0.0,5.9049,5.9569,6.0313,6.0361,6.0403,6.0403,6.0403,6.0403,6.0403,6.0403,6.0403,6.0403,6.0403,6.0403,6.0403,6.0403,6.052,6.0652,6.0453,6.0403,6.0403,6.0403,6.0403,6.0403,6.0403,6.0403,6.0403,6.0403,6.0403,6.0403,6.0403,6.0403,6.0403,6.0403,6.0403,6.0403,6.0403,6.0403,6.0403,6.0403,6.0403,6.0403,6.0403,6.046,6.079,6.1535,6.1669,6.207,6.2949,6.3809,6.4611,6.5375,6.5394,6.5394,6.5394,6.5394,6.5394,6.5394,6.5394,6.5379,6.5364,6.5364,6.5153,4.8438,0.0,4.8698,4.8898,4.9285,4.9709,0.0,5.0922,5.1691,5.2232,5.3329,5.4298,5.4583,5.4798,5.4916,5.4901,5.4901,5.5204,5.6076,5.7289,5.818,5.8369,5.914,5.9387,5.8764,5.9447,5.9902,5.9902,5.8957,5.8085,5.7441,5.6436,5.5583,5.492,5.4901,5.4901,5.4901,5.4901,5.4901,5.492,5.558,5.6031,5.6239,5.688,5.7635,0.0,0.0,0.0,5.9756,5.993,6.0122,6.0313,6.0361,6.0403,6.0403,6.0403,6.0403,6.0403,6.0403,6.0403,6.0403,6.0403,6.0403,6.0403,6.0403,6.0425,6.0466,6.0417,6.0403,6.0403,6.0403,6.0403,6.0403,6.0403,6.0403,6.0403,6.0403,6.0403,6.0403,6.0403,6.0403,6.0403,6.0403,6.0403,6.0403,6.0403,6.0403,6.0403,6.0403,6.0403,6.0403,6.0403,6.0943,6.1382,6.1573,6.2204,6.2968,6.3828,6.4649,6.5203,6.5394,6.5394,6.5394,6.5394,6.5394,6.5394,6.5394,6.5394,6.5252,6.4932,6.4932,6.4685,4.8764,4.8891,4.8981,4.9365,4.9764,5.0202,5.0583,5.1298,5.2079,5.2668,5.3442,5.4087,5.4313,5.4649,5.4832,5.4638,5.5239,5.5983,5.6648,5.7535,5.8237,5.8635,5.907,5.9317,5.9276,5.9639,5.9902,5.9902,5.8767,5.7895,5.7422,5.6266,5.5394,5.492,5.4901,5.4901,5.4901,5.5299,5.5508,5.5508,5.6341,5.6948,5.7346,5.7801,5.8445,0.0,0.0,0.0,5.9966,6.0091,6.0156,6.0171,6.0289,6.0352,6.0366,6.0389,6.0403,6.0403,6.0403,6.0403,6.0403,6.0403,6.0403,6.0403,6.0403,6.0403,6.0403,6.0403,6.0403,6.0403,6.0403,6.0403,6.0403,6.0403,6.0403,6.0403,6.0403,6.0403,6.0403,6.0403,6.0403,6.0403,6.0403,6.0403,6.0403,6.0403,6.0403,6.0403,6.0403,6.0403,6.0403,6.0403,6.1115,6.1765,6.2166,6.3006,6.3694,6.4167,6.4955,6.5394,6.5394,6.5394,6.5394,6.5394,6.5394,6.5298,6.5117,6.5117,6.4896,6.4483,6.4483,6.4234,4.9238,4.9253,4.9438,5.0108,5.0383,5.0633,5.1321,5.1744,5.2208,5.2949,5.3368,5.3662,5.385,5.4351,5.4651,5.4421,5.5636,5.6793,5.7307,5.7557,5.7892,5.8516,5.8754,5.9073,5.9555,5.9725,5.9727,5.9614,5.8175,5.728,5.7213,5.5735,5.4958,5.5091,5.511,5.5166,5.528,5.5887,5.6266,5.6379,5.7213,5.799,5.8707,5.884,5.9276,5.9902,0.0,0.0,5.9902,5.9963,5.9994,6.0029,6.0201,6.0264,6.0279,6.0332,6.0342,6.0361,6.0375,6.0389,6.0403,6.0403,6.0403,6.0403,6.0403,6.0403,6.0403,6.0403,6.0403,6.0403,6.0403,6.0403,6.0403,6.0403,6.0403,6.0403,6.0403,6.0403,6.0403,6.0403,6.0403,6.0403,6.0403,6.0403,6.0403,6.0403,6.0403,6.0403,6.0403,6.0403,6.046,6.0575,6.1306,6.2147,6.3025,6.3885,6.4382,6.4382,6.5012,6.5394,6.5394,6.5349,6.5298,6.5298,6.5232,6.5033,6.4704,6.4704,6.4445,6.4014,6.4014,6.3803,5.0741,5.0923,5.0959,5.1067,5.1629,5.2154,5.2281,5.2368,5.2526,5.3014,5.3141,5.3509,5.4533,5.4258,5.4092,5.4725,5.56,5.6457,5.7204,5.8241,5.8706,5.8161,5.9059,5.9335,5.8384,5.8894,5.9044,5.833,5.7371,5.6681,5.6402,5.5451,5.5242,5.5981,5.6,5.6323,5.7005,5.6474,5.6531,5.7232,5.8085,5.8559,5.871,5.9412,5.9788,5.9902,0.0,5.9902,5.9902,5.9963,5.9994,6.001,6.0103,6.0133,6.0133,6.0148,6.0148,6.0163,6.0279,6.0352,6.0403,6.0403,6.0403,6.0403,6.0403,6.0403,6.0403,6.0403,6.0403,6.0403,6.0403,6.0403,6.0403,6.0403,6.0403,6.0403,6.0403,6.0403,6.0403,6.0403,6.0403,6.0403,6.0403,6.0403,6.0403,6.0403,6.0403,6.0403,6.0403,6.0403,6.0656,6.1344,6.2185,6.3045,6.3923,6.4745,6.5222,6.5222,6.5337,6.5394,6.5394,6.5068,6.4898,6.4898,6.4501,6.4273,6.4215,6.4215,6.3994,6.3583,6.3583,6.3354,5.1194,5.1611,5.1937,5.1937,5.2226,5.2498,5.2498,5.2498,5.2549,5.2739,5.2783,5.3087,5.4071,5.4298,5.4843,5.6276,5.6286,5.6375,5.7192,5.7427,5.7564,5.762,5.8351,5.8812,5.8652,5.8577,5.8407,5.8032,5.6575,5.5865,5.6139,5.5352,5.5278,5.6122,5.6159,5.6534,5.734,5.6984,5.7215,5.8104,5.8938,5.9352,5.9355,5.9715,5.9902,5.9902,0.0,5.9902,5.9902,5.9934,5.995,5.995,6.0026,6.0057,6.0057,6.0103,6.0099,6.0118,6.0264,6.026,6.0256,6.0318,6.0304,6.0241,6.0241,6.0241,6.0256,6.0337,6.0361,6.0403,6.0403,6.0403,6.0403,6.0403,6.0403,6.0403,6.0403,6.0403,6.0403,6.0403,6.0403,6.0403,6.0403,6.0403,6.0403,6.0403,6.0222,6.0084,6.0084,5.989,6.0145,6.1172,6.2062,6.2899,6.3756,6.4593,6.5068,6.5068,6.5068,6.4966,6.472,6.452,6.4426,6.4426,6.4215,6.3994,6.3782,6.3782,6.3561,6.3134,6.3134,6.3008,5.1574,5.2027,5.2498,5.2498,5.2498,5.2498,5.2498,5.2498,5.2498,5.2498,5.2498,5.2752,5.3548,5.4363,5.539,5.6959,5.6566,5.6359,5.7174,5.6832,5.6767,5.736,5.786,5.8334,5.8855,5.8183,5.7697,5.7697,5.6044,5.5348,5.6059,5.552,5.5538,5.6354,5.6392,5.6763,5.76,5.76,5.7957,5.8671,5.9293,5.9613,5.9613,5.9613,5.9647,5.9751,5.9751,5.9801,5.9902,5.9902,5.9902,5.9902,5.9966,5.9982,5.9979,6.0041,6.0053,6.0087,6.0201,6.0167,6.0118,6.0216,6.0182,6.0099,6.0099,6.0099,6.0133,6.0264,6.0337,6.0375,6.0389,6.0403,6.0403,6.0403,6.0403,6.0403,6.0403,6.0403,6.0403,6.0403,6.0403,6.0375,6.0285,6.0251,6.0222,6.0129,5.9858,5.9675,5.9675,5.9566,5.9908,6.104,6.1926,6.2777,6.3572,6.4234,6.4594,6.4502,6.4576,6.4464,6.4096,6.4014,6.3952,6.3952,6.3848,6.3653,6.3349,6.3349,6.3158,6.278,6.278,6.278,5.2408,5.2462,5.2498,5.2498,5.2498,5.2498,5.2498,5.2498,5.2498,5.2498,5.2498,5.2752,5.3548,5.4363,5.4943,5.51,5.5638,5.6297,5.7096,5.752,5.7804,5.7859,5.8261,5.8408,5.8023,5.7265,5.6783,5.6797,5.5967,5.5641,5.6093,5.6057,5.6373,5.7192,5.721,5.7619,5.8494,5.8494,5.8535,5.8615,5.8671,5.8689,5.8689,5.8689,5.891,5.9252,5.9252,5.9505,5.9902,5.9902,5.9902,5.9902,5.9902,5.9902,5.9902,5.9902,5.9966,6.001,6.0029,6.0057,6.0099,6.0118,6.0118,6.0099,6.0099,6.0099,6.0133,6.0264,6.0294,6.0308,6.0375,6.0403,6.0403,6.0403,6.0403,6.0403,6.0403,6.0403,6.0403,6.0403,6.0403,6.0285,5.9906,5.9842,5.9725,5.9324,5.9252,5.9233,5.9233,5.9872,6.0661,6.1544,6.2371,6.3178,6.3986,6.4118,6.3994,6.3605,6.3932,6.4135,6.4096,6.3739,6.3539,6.3539,6.311,6.288,6.2855,6.2855,6.283,6.278,6.278,6.278,5.2498,5.2498,5.2498,5.2498,5.2498,5.2498,5.2498,5.2498,5.2498,5.2498,5.2498,5.2752,5.3548,5.5142,5.6174,5.5667,5.6228,5.6844,5.7152,5.7345,5.7449,5.7449,5.7882,5.809,5.7905,5.7171,5.6693,5.6712,5.572,5.539,5.6013,5.6031,5.6397,5.7201,5.7238,5.7408,5.7719,5.7719,5.7719,5.7742,5.8332,5.8607,5.8607,5.8607,5.8831,5.9215,5.9215,5.947,5.9902,5.9902,5.9902,5.9902,5.9902,5.9902,5.9902,5.9902,5.9918,5.995,5.9998,5.9979,5.9979,6.0026,6.001,5.9982,5.9982,5.9982,5.9979,6.0076,6.0106,6.0171,6.0347,6.0403,6.0403,6.0403,6.0207,6.0019,6.0019,6.0019,5.9937,5.9708,5.9858,5.9906,5.9502,5.9432,5.9379,5.9215,5.8988,5.8831,5.8831,5.9311,6.0082,6.1216,6.2487,6.34,6.3699,6.3472,6.3215,6.3062,6.3472,6.3605,6.3289,6.3139,6.3062,6.3062,6.2904,6.278,6.278,6.278,6.278,6.278,6.278,6.278,5.2498,5.2498,5.2498,5.2498,5.2498,5.2498,5.2498,5.2498,5.2498,5.2498,5.2697,5.3041,5.3603,5.5414,5.6627,5.6084,5.6681,5.7188,5.7188,5.7188,5.7188,5.7188,5.7492,5.769,5.769,5.694,5.6575,5.6831,5.5843,5.5577,5.6337,5.6373,5.6627,5.717,5.7188,5.7188,5.7188,5.7188,5.7188,5.7206,5.784,5.8157,5.8157,5.8157,5.84,5.8773,5.8773,5.9065,5.9489,5.9489,5.9489,5.9489,5.9489,5.9489,5.9489,5.9489,5.9489,5.9506,5.954,5.9523,5.9524,5.9696,5.9713,5.9681,5.9681,5.9681,5.9681,5.9609,5.959,5.9641,5.9836,6.0049,6.0163,6.0053,5.9807,5.9605,5.9605,5.9605,5.952,5.9252,5.9432,5.9485,5.9084,5.9008,5.8988,5.885,5.8584,5.8486,5.8764,5.9251,6.0097,6.1476,6.2614,6.328,6.328,6.2984,6.278,6.278,6.311,6.3134,6.2805,6.278,6.278,6.278,6.278,6.278,6.278,6.278,6.278,6.278,6.278,6.278,5.2498,5.2498,5.2498,5.2498,5.2498,5.2498,5.2498,5.2498,5.2516,5.2516,5.3168,5.3729,5.3711,5.4961,5.5993,5.5993,5.6681,5.7188,5.7188,5.7188,5.7188,5.7188,5.7188,5.7188,5.7188,5.6482,5.6337,5.7134,5.6446,5.6355,5.7152,5.7188,5.7188,5.7188,5.7188,5.7188,5.7188,5.7188,5.7188,5.7188,5.7188,5.7188,5.7188,5.7188,5.7468,5.7905,5.7905,5.8157,5.8607,5.8607,5.8607,5.8607,5.8607,5.8607,5.8607,5.8607,5.8607,5.8607,5.8607,5.8607,5.8669,5.9065,5.9178,5.9178,5.9178,5.9178,5.9122,5.8775,5.8694,5.8715,5.8777,5.9251,5.9609,5.927,5.9178,5.9178,5.9178,5.9178,5.9178,5.9197,5.9178,5.9084,5.8669,5.8586,5.8458,5.8047,5.7997,5.829,5.9111,5.9924,6.1025,6.2615,6.278,6.278,6.278,6.278,6.278,6.278,6.278,6.278,6.278,6.278,6.278,6.278,6.278,6.278,6.278,6.278,6.278,6.278,6.278,6.278,5.2498,5.2498,5.2498,5.2498,5.2498,5.2643,5.3222,5.3331,5.3494,5.4074,5.478,5.516,5.4653,5.5794,5.6645,5.6084,5.6681,5.7188,5.7188,5.7188,5.7188,5.7188,5.7188,5.7188,5.7188,5.6971,5.6935,5.717,5.6971,5.6953,5.7188,5.7188,5.7188,5.7188,5.7188,5.7188,5.7188,5.7188,5.7188,5.7188,5.7188,5.7188,5.7188,5.7188,5.7468,5.7905,5.7905,5.8157,5.8607,5.8607,5.8607,5.8607,5.8607,5.8607,5.8607,5.8607,5.8607,5.8607,5.8607,5.8607,5.8628,5.875,5.8791,5.8791,5.8791,5.8791,5.877,5.865,5.863,5.8568,5.8357,5.8421,5.863,5.8855,5.8696,5.851,5.8611,5.8632,5.8589,5.8391,5.8566,5.8648,5.8235,5.8186,5.8142,5.802,5.7927,5.8333,5.9725,6.0701,6.1649,6.267,6.278,6.278,6.278,6.278,6.278,6.278,6.278,6.278,6.278,6.278,6.278,6.278,6.278,6.278,6.278,6.278,6.278,6.278,6.278,6.278,5.2498,5.2498,5.2498,5.2498,5.2733,5.3259,5.4363,5.4399,5.4309,5.4798,5.5486,5.5848,5.5414,5.6355,5.7043,5.6554,5.688,5.7188,5.7188,5.7188,5.7188,5.7188,5.7188,5.7188,5.7188,5.7188,5.7188,5.7188,5.7188,5.7188,5.7188,5.7188,5.7188,5.7188,5.7188,5.7188,5.7188,5.7188,5.7188,5.7188,5.7188,5.7188,5.7188,5.7188,5.7345,5.7618,5.7618,5.7789,5.8046,5.8046,5.8046,5.8046,5.8046,5.8046,5.8046,5.8046,5.8046,5.8046,5.8046,5.8046,5.8068,5.8267,5.8332,5.8332,5.8332,5.8332,5.8289,5.809,5.8046,5.8,5.7784,5.7737,5.7835,5.8233,5.8142,5.7982,5.8068,5.809,5.8041,5.7886,5.8033,5.8127,5.7886,5.7839,5.7839,5.7839,5.8317,5.9146,6.0425,6.1377,6.2098,6.2592,6.2647,6.2654,6.2705,6.2705,6.273,6.2798,6.278,6.278,6.278,6.278,6.278,6.278,6.278,6.278,6.278,6.278,6.278,6.278,6.278,6.278,5.241,5.2475,5.2498,5.2498,5.315,5.42,5.5667,5.554,5.5106,5.5106,5.5631,5.6102,5.6102,5.6699,5.7188,5.7188,5.7188,5.7188,5.7188,5.7188,5.7188,5.7188,5.7188,5.7188,5.7188,5.7188,5.7188,5.7188,5.7188,5.7188,5.7188,5.7188,5.7188,5.7188,5.7188,5.7188,5.7188,5.7188,5.7188,5.7188,5.7188,5.7188,5.7188,5.7188,5.7188,5.7188,5.7188,5.7188,5.7188,5.7188,5.7188,5.7188,5.7188,5.7188,5.7188,5.7188,5.7188,5.7188,5.7188,5.7188,5.7264,5.7713,5.7835,5.7835,5.7835,5.7835,5.776,5.7313,5.7188,5.7188,5.7188,5.7188,5.7264,5.7504,5.7559,5.7577,5.7577,5.7577,5.7601,5.7601,5.7601,5.7601,5.7601,5.7601,5.7619,5.7668,5.9005,6.0281,6.1076,6.1878,6.2389,6.2389,6.2389,6.2467,6.2578,6.2578,6.2629,6.2773,6.2755,6.2755,6.2755,6.2798,6.278,6.278,6.278,6.278,6.278,6.278,6.278,6.278,6.2872,6.2909,5.1793,5.2138,5.2498,5.2498,5.3585,5.4888,5.5776,5.6373,5.6717,5.6717,5.6826,5.6935,5.6935,5.708,5.7188,5.7188,5.7188,5.7188,5.7188,5.7188,5.7188,5.7188,5.7188,5.7188,5.7188,5.7188,5.7188,5.7188,5.7188,5.7188,5.7188,5.7188,5.7188,5.7188,5.7188,5.7188,5.7188,5.7188,5.7188,0.0,5.7188,5.7188,5.7188,5.7188,5.7188,5.7188,5.7188,5.7188,5.7188,5.7188,5.7188,5.7188,5.7188,5.7188,5.7188,5.7188,5.7188,5.7188,5.7188,5.7188,5.7213,5.7313,5.7345,5.7345,5.7345,5.7345,5.7338,5.7213,5.7188,5.7188,5.7188,5.7188,5.7213,5.7264,5.7307,5.7313,5.7412,5.7437,5.7461,5.7577,5.7601,5.7601,5.7601,5.7601,5.7796,5.831,5.932,6.0256,6.0929,6.1844,6.2389,6.2389,6.2389,6.2415,6.2441,6.2441,6.2467,6.2493,6.2493,6.2493,6.2493,6.2698,6.278,6.278,6.278,6.278,6.278,6.278,6.278,6.2817,6.3503,6.3815,5.1601,5.2048,5.2679,5.3458,5.4544,5.5631,5.6391,5.6899,5.7188,5.7188,5.7188,5.7188,5.7188,5.7188,5.7188,5.7188,5.7188,5.7188,5.7188,5.7188,5.7188,5.7188,5.7188,5.7188,5.7188,5.7188,5.7188,5.7188,5.7188,5.7188,5.7188,5.7188,5.7188,5.7188,5.7188,5.7188,5.7188,5.7188,5.7188,5.7188,5.7188,5.7188,5.7188,5.7188,5.7188,5.7188,5.7188,5.7188,5.7188,5.7188,5.7188,5.7188,5.7188,5.7188,5.7188,5.7188,5.7188,5.7188,5.7188,5.7188,5.7188,5.7188,5.7188,5.7188,5.7188,5.7188,5.7188,5.7188,5.7188,5.7188,5.7188,5.7188,5.7188,5.7188,5.7188,5.7213,5.7307,5.7289,5.7313,5.7388,5.7406,5.7406,5.7406,5.7406,5.7781,5.8903,5.9506,6.0197,6.1316,6.1914,6.2222,6.2222,6.2222,6.223,6.231,6.231,6.2336,6.2389,6.2389,6.2389,6.2389,6.2545,6.2647,6.2705,6.2705,6.273,6.278,6.278,6.3025,6.3429,6.3888,6.431,5.1322,5.1918,5.2924,5.452,5.545,5.621,5.7007,5.7188,5.7188,5.7188,5.7188,5.7188,5.7188,5.7188,5.7188,5.7188,5.7188,5.7188,5.7188,5.7188,5.7188,5.7188,5.7188,5.7188,5.7188,5.7188,5.7188,5.7188,5.7188,5.7188,5.7188,5.7188,5.7188,5.7188,5.7188,5.7188,5.7188,5.7188,5.7188,5.7188,5.7188,5.7188,5.7188,5.7188,5.7188,5.7188,5.7188,5.7188,5.7188,5.7188,5.7188,5.7188,5.7188,5.7188,5.7188,5.7188,5.7188,5.7188,5.7188,5.7188,5.7188,5.7188,5.7188,5.7188,5.7188,5.7188,5.7188,5.7188,5.7188,5.7188,5.7188,5.7188,5.7188,5.7188,5.7188,5.7188,5.7188,5.7188,5.7188,5.7188,5.7188,5.7188,5.7188,5.7315,5.7913,5.9379,5.9724,6.0357,6.1797,6.1996,6.1996,6.1996,6.1996,6.2033,6.215,6.2177,6.2203,6.231,6.2336,6.2336,6.2336,6.2336,6.2389,6.2526,6.2578,6.2654,6.2773,6.2927,6.3392,6.409,6.4365,6.4861,5.0131,5.1404,5.3096,5.4532,5.545,5.621,5.7007,5.7188,5.7188,5.7188,5.7188,5.7188,5.7188,5.7188,5.7188,5.7188,5.7188,5.7188,5.7188,5.7188,5.7188,5.7188,5.7188,5.7188,5.7188,5.7188,5.7188,5.7188,5.7188,5.7188,5.7188,5.7188,5.7188,5.7188,5.7188,5.7188,5.7188,5.7188,5.7188,5.7188,5.7188,5.7188,5.7188,5.7188,5.7188,5.7188,5.7188,5.7188,5.7188,5.7188,5.7188,5.7188,5.7188,5.7188,5.7188,5.7188,5.7188,5.7188,5.7188,5.7188,5.7188,5.7188,5.7188,5.7188,5.7188,5.7188,5.7188,5.7188,5.7188,5.7188,5.7188,5.7188,5.7188,5.7188,5.7188,5.7188,5.7188,5.7188,5.7188,5.7188,5.7188,5.7188,5.7188,5.7786,5.8546,5.947,6.0194,6.0991,6.1869,6.1996,6.1996,6.1996,6.1996,6.2023,6.2051,6.2051,6.2033,6.2033,6.206,6.206,6.206,6.206,6.2114,6.2257,6.2475,6.2603,6.2629,6.3507,6.398,6.4127,6.5521,6.6237,5.0669,5.2112,5.3701,5.4676,5.5794,5.6772,5.7116,5.7188,5.7188,5.7188,5.7188,5.7188,5.7188,5.7188,5.7188,5.7188,5.7188,5.7188,5.7188,5.7188,5.7188,5.7188,5.7188,5.7188,5.7188,5.7188,5.7188,5.7188,5.7188,5.7188,5.7188,5.7188,5.7188,5.7188,5.7188,5.7188,5.7188,5.7188,5.7188,5.7188,5.7188,5.7188,5.7188,5.7188,5.7188,5.7188,5.7188,5.7188,5.7188,5.7188,5.7188,5.7188,5.7188,5.7188,5.7188,5.7188,5.7188,5.7188,5.7188,5.7188,5.7188,5.7188,5.7188,5.7188,5.7188,5.7188,5.7188,5.7188,5.7188,5.7188,5.7188,5.7188,5.7188,5.7188,5.7188,5.7188,5.7188,5.7188,5.7188,5.7188,5.7188,5.7188,5.7188,5.7876,5.8673,5.9488,6.0285,6.11,6.1887,6.1996,6.1996,6.1996,6.1996,6.1996,6.1996,6.1996,6.1996,6.1996,6.1996,6.1996,6.1996,6.1996,6.2051,6.2087,6.2283,6.2642,6.3176,6.3594,6.4331,6.528,6.5995,6.6635,5.0884,5.2192,5.3451,5.4215,5.5446,5.6489,5.6704,5.674,5.674,5.674,5.674,5.674,5.674,5.6992,5.7188,5.7188,5.7188,5.7188,5.7188,5.7188,5.7188,5.7188,5.7188,5.7188,5.7188,5.7188,5.7188,5.7188,5.7188,5.7188,5.7188,5.7188,5.7188,5.7188,5.7188,5.7188,5.7188,5.7188,5.7188,5.7188,5.7188,5.7188,5.7188,5.7188,5.7188,5.7188,5.7188,5.7188,5.7188,5.7188,5.7188,5.7188,5.7188,5.7188,5.7188,5.7188,5.7188,5.7188,5.7188,5.7188,5.7188,5.7188,5.7188,5.7188,5.7188,5.7188,5.7188,5.7188,5.7188,5.7188,5.7188,5.7188,5.7188,5.7188,5.7188,5.7188,5.7188,5.7188,5.7188,5.7188,5.7188,5.7188,5.7188,5.8039,5.8909,5.9524,6.0466,6.1308,6.1906,6.1996,6.1996,6.1996,6.1996,6.1996,6.1996,6.1996,6.1996,6.1996,6.1996,6.1996,6.1996,6.1996,6.2087,6.2313,6.2404,6.283,6.3547,6.3974,6.4894,6.6144,6.6345,6.6866,4.9832,5.0622,5.1529,5.28,5.3714,5.457,5.5326,5.5502,5.5502,5.5502,5.5502,5.5502,5.5502,5.6429,5.7188,5.7188,5.7188,5.7188,5.7188,5.7188,5.7188,5.7188,5.7188,5.7188,5.7188,5.7188,5.7188,5.7188,5.7188,5.7188,5.7188,5.7188,5.7188,5.7188,5.7188,5.7188,5.7188,5.7188,5.7188,5.7188,5.7188,5.7188,5.7188,5.7188,5.7188,5.7188,5.7188,5.7188,5.7188,5.7188,5.7188,5.7188,5.7188,5.7188,5.7188,5.7188,5.7188,5.7188,5.7188,5.7188,5.7188,5.7188,5.7188,5.7188,5.7188,5.7188,5.7188,5.7188,5.7188,5.7188,5.7188,5.7188,5.7188,5.7188,5.7188,5.7188,5.7188,5.7188,5.7188,5.7188,5.7188,5.7188,5.7188,5.851,5.9561,5.9597,6.091,6.1942,6.1978,6.1996,6.1996,6.1996,6.1996,6.1996,6.1996,6.1996,6.1996,6.1996,6.1996,6.1996,6.1996,6.1996,6.2367,6.311,6.3156,6.3229,6.3403,6.5068,6.5906,6.6043,6.6791,6.7184,4.9762,5.05,5.1286,5.2096,5.3254,5.4261,5.4542,5.5016,5.5385,5.5385,5.5385,5.5385,5.5385,5.5762,5.6156,5.6555,5.6294,5.6321,5.7087,5.6863,5.6785,5.7138,5.7188,5.7188,5.7188,5.7188,5.7188,5.7188,5.7188,5.7188,5.7188,5.7188,5.7188,5.7188,5.7188,5.7188,5.7188,5.7188,5.7188,5.7188,5.7188,5.7188,5.7188,5.7188,5.7188,5.7188,5.7188,5.7188,5.7188,5.7188,5.7188,5.7188,5.7188,5.7188,5.7188,5.7188,5.7188,5.7188,5.7188,5.7188,5.7188,5.7188,5.7188,5.7188,5.7188,5.7188,5.7188,5.7188,5.7188,5.7188,5.7188,5.7188,5.7188,5.7188,5.7188,5.7188,5.7188,5.7188,5.7188,5.7188,5.7188,5.7188,5.7188,5.8528,5.9615,5.9615,6.0991,6.1996,6.1996,6.1996,6.1996,6.1996,6.1996,6.1996,6.1996,6.1996,6.1996,6.1996,6.1996,6.1996,6.1996,6.1996,6.2386,6.3164,6.3708,6.4243,6.4825,6.5444,6.6046,6.6668,6.6941,6.7126,4.9872,5.0352,5.0849,5.1211,5.2235,5.3259,5.3519,5.4196,5.4769,5.4769,5.4769,5.4769,5.4769,5.4769,5.5026,5.5848,5.5647,5.5676,5.6483,5.6239,5.6146,5.6555,5.6608,5.6608,5.6608,5.6608,5.6688,5.6889,5.6889,0.0,5.7188,5.7188,5.7188,5.7188,5.7188,5.7188,5.7188,5.7188,5.7188,5.7188,5.7188,5.7188,5.7188,5.7188,5.7188,5.7188,5.7188,5.7188,5.7188,5.7188,5.7188,5.7188,5.7188,5.7188,5.7188,5.7188,5.7188,5.7188,5.7188,5.7061,5.6915,5.7138,5.7061,5.6959,5.7138,5.7188,5.7163,5.6941,5.6889,5.6863,5.6661,5.6758,5.6941,5.7138,5.7188,5.7188,5.7188,5.7188,5.7188,5.7188,5.7188,5.7188,5.7188,5.8528,5.9615,5.9615,6.0991,6.1996,6.1996,6.1996,6.1996,6.1996,6.1996,6.1996,6.1996,6.1996,6.1996,6.1996,6.1996,6.1996,6.1996,6.2277,6.2784,6.3581,6.4378,6.5192,6.6007,6.6007,6.6319,6.6932,6.6932,6.7001,0.0,0.0,0.0,5.0067,5.0625,5.1337,5.2097,5.2892,5.3484,5.3501,5.3501,5.3501,5.3501,5.3501,5.3882,5.5117,5.5325,5.5373,5.5385,5.5385,5.5385,5.5385,5.5385,5.5385,5.5385,5.5385,5.5647,5.6229,5.6284,5.6528,5.7138,5.7188,5.7188,5.7188,5.7188,5.7188,5.7188,5.7188,5.7188,5.7188,5.7188,5.7188,5.7188,5.7188,5.7188,5.7188,5.7163,5.7163,5.7163,5.7188,5.7188,5.7188,5.7188,5.7188,5.7188,5.7163,5.7163,5.7163,5.7138,5.6758,5.6366,5.6959,5.6758,5.6393,5.6966,5.7138,5.7018,5.6447,5.6284,5.6146,5.556,5.5819,5.642,5.701,5.7138,5.7138,5.7138,5.7163,5.7163,5.7206,5.7188,5.7188,5.7188,5.8528,5.9615,5.9615,6.0991,6.1996,6.1996,6.1996,6.1996,6.1996,6.1996,6.1996,6.1996,6.1996,6.1996,6.1996,6.1996,6.1996,6.1996,6.2766,6.3563,6.4378,6.5192,6.5989,6.6804,6.6804,6.6804,6.6804,6.6804,6.6874,5.0236,0.0,0.0,0.0,0.0,0.0,5.1207,5.1949,5.2674,5.3349,5.3501,5.3501,5.3501,5.3501,5.3618,5.398,5.4045,5.4365,5.5284,5.4978,5.4857,5.5325,5.5385,5.5385,5.5385,5.5385,5.5473,0.0,5.5647,5.5904,5.6501,5.6966,5.7188,5.7188,5.7188,5.7188,5.7188,5.7188,5.7188,5.7188,5.7188,5.7188,5.7188,5.7188,5.7188,5.7163,5.6732,5.6555,5.6582,5.7036,5.7188,5.7188,5.7188,5.7188,5.7138,5.6706,5.6555,5.6474,5.6045,5.5755,5.5623,5.583,5.5791,5.5676,5.5848,5.5904,5.5876,5.5705,5.5647,5.5618,5.5443,5.5531,5.5676,5.5876,5.5904,5.5904,5.5904,5.6239,5.6679,5.7112,5.7188,5.7188,5.7188,5.8528,5.9615,5.9615,6.0991,6.1996,6.1996,6.1996,6.1996,6.1996,6.1996,6.1996,6.1996,6.1996,6.1996,6.1996,6.1996,6.1996,6.1996,6.2766,6.3563,6.4378,6.5192,6.5989,6.6804,6.6804,6.6804,6.6804,6.6804,6.6834,5.0287,5.0084,4.9883,4.9017,0.0,0.0,5.0435,5.136,5.2253,5.2875,5.3264,5.3501,5.3501,5.3501,5.3501,5.3501,5.3501,5.3767,5.4506,5.4284,5.4156,5.4568,5.46,5.46,5.46,5.46,5.4707,5.4948,5.4978,5.5249,5.5876,5.6266,5.6429,5.6429,5.6429,5.6429,5.6429,5.6429,5.6429,5.6429,5.6429,5.6429,5.6429,5.6429,5.6429,5.6429,5.6073,5.5932,5.5961,5.6294,5.6608,5.6811,5.6555,5.6608,5.6758,5.6146,5.5932,5.5876,5.5531,5.5189,5.4974,5.5296,5.5207,5.5056,5.5325,5.5385,5.5325,5.5039,5.4782,5.4662,5.4935,5.4978,5.5039,5.5325,5.5385,5.5385,5.5385,5.5676,5.6101,5.6706,5.6837,5.6919,5.7243,5.8133,5.8916,5.9209,6.0346,6.1169,6.1169,6.1401,6.159,6.159,6.1822,6.1996,6.1996,6.1996,6.1996,6.1996,6.1996,6.1996,6.1996,6.3092,6.3907,6.4378,6.5518,6.6333,6.6804,6.6804,6.6804,6.6804,6.6804,6.6804,5.0287,5.0101,4.9869,4.8986,4.9243,0.0,4.9816,5.0857,5.1866,5.2066,5.2673,5.3197,5.3298,5.3298,5.3332,5.3416,5.3433,5.3433,5.3501,5.3501,5.3501,5.3501,5.3501,5.3501,5.3501,5.3501,5.3734,5.4249,5.4359,5.4672,5.5266,5.5355,5.5385,5.5385,5.5385,5.5385,5.5385,5.5385,5.5385,5.5385,5.5385,5.5385,5.5385,5.5385,5.5385,5.5402,5.5325,5.5296,5.5296,5.5224,5.5589,5.6146,5.5618,5.5733,5.6101,5.5502,5.5296,5.5266,5.5207,5.4813,5.4408,5.4996,5.4782,5.4408,5.4996,5.5177,5.5056,5.4471,5.3913,5.3618,5.4171,5.4313,5.444,5.5056,5.5177,5.5177,5.5177,5.5236,5.5443,5.5989,5.6146,5.6433,5.7171,5.7518,5.7948,5.8706,5.9492,5.9998,5.9998,6.0516,6.0927,6.0986,6.1533,6.1923,6.1978,6.1996,6.1996,6.1996,6.1996,6.2032,6.215,6.3599,6.4403,6.439,6.589,6.6727,6.6804,6.6804,6.6804,6.6804,6.6804,6.6804,5.0287,5.0023,4.9712,4.878,4.8537,0.0,4.9358,4.9725,5.0142,5.086,5.1145,5.143,5.2,5.2118,5.2319,5.2923,5.3024,5.3127,5.3467,5.3501,5.3501,5.3501,5.3501,5.3501,5.3501,5.3501,5.3568,5.3668,5.4124,5.4454,5.4579,5.5117,5.5385,5.5385,5.5385,5.5385,5.5385,5.5385,5.5385,5.5385,5.5385,5.5385,5.5385,5.5385,5.5385,5.5355,5.4826,5.461,5.4548,5.4076,5.4537,5.556,5.5443,5.5455,5.5402,5.4809,5.461,5.4534,5.4061,5.38,5.3701,5.3833,5.38,5.3701,5.3816,5.3849,5.3849,5.3701,5.3584,5.3534,5.3651,5.3668,5.3701,5.3833,5.3849,5.3849,5.3849,5.4252,5.4641,5.4747,5.5219,5.5807,5.6564,5.7248,5.7948,5.8706,5.9492,5.9998,5.9998,6.0093,6.0393,6.0945,6.1122,6.1401,6.195,6.1996,6.1996,6.1996,6.1996,6.2295,6.2929,6.3889,6.4437,6.4491,6.5404,6.6202,6.6804,6.6804,6.6804,6.6804,6.6804,6.6804,4.9714,4.9371,0.0,4.8616,0.0,0.0,0.0,4.9093,4.9526,5.0074,5.0458,5.0944,5.1648,5.148,5.1597,5.2719,5.2585,5.2553,5.3111,5.3212,5.3212,5.3212,5.328,5.3348,5.3348,5.3433,5.3501,5.3501,5.3783,5.3946,5.3946,5.4252,5.4443,5.4443,5.4443,5.4443,5.4443,5.4443,5.4443,5.4443,5.4443,5.4443,5.4443,5.4443,5.4443,5.4411,5.4108,5.3946,5.3913,5.3601,5.3899,5.4443,5.4443,5.4627,5.4761,5.4171,5.3946,5.3931,5.3618,5.3501,5.3501,5.3501,5.3501,5.3501,5.3501,5.3501,5.3501,5.3501,5.3501,5.3501,5.3501,5.3501,5.3501,5.3501,5.3501,5.3501,5.3501,5.3717,5.3946,5.3946,5.422,5.4882,5.6307,5.6636,5.7081,5.8168,5.8685,5.896,5.896,5.9247,5.9594,5.9917,6.0282,6.0638,6.0956,6.0986,6.0986,6.0986,6.0986,6.1343,6.2128,6.2931,6.3738,6.4539,6.5323,6.5887,6.6251,6.662,6.6804,6.6804,6.6804,6.6804,0.0,0.0,0.0,0.0,0.0,4.8163,0.0,0.0,0.0,4.9258,4.9758,5.0426,5.1128,5.0777,5.0811,5.2164,5.188,5.1746,5.2481,5.2598,5.2683,5.2886,5.3076,5.3179,5.3179,5.3348,5.3467,5.3501,5.3467,5.3467,5.3501,5.3501,5.3501,5.3501,5.3501,5.3501,5.3501,5.3501,5.3501,5.3501,5.3501,5.3501,5.3501,5.3501,5.3501,5.3501,5.3501,5.3501,5.3501,5.3501,5.3501,5.3501,5.3501,5.3816,5.4171,5.3668,5.3501,5.3501,5.3501,5.3501,5.3501,5.3501,5.3501,5.3501,5.3501,5.3501,5.3501,5.3501,5.3501,5.3501,5.3501,5.3501,5.3501,5.3501,5.3501,5.3501,5.3501,5.3501,5.3501,5.3501,5.3501,5.4109,5.6095,5.603,5.6207,5.7679,5.7881,5.7881,5.7881,5.8352,5.8772,5.8892,5.9429,5.9838,5.9966,5.9998,5.9998,5.9998,5.9998,6.0388,6.1285,6.2082,6.3167,6.4566,6.5041,6.5403,6.5711,6.6312,6.6668,6.6804,6.6804,6.6804,0.0,0.0,0.0,0.0,4.8612,0.0,0.0,0.0,4.8149,4.8182,0.0,4.853,4.9277,0.0,0.0,5.0388,5.0454,5.0653,5.1367,5.1466,5.1838,5.2802,5.3076,5.3179,5.3179,5.3213,5.3314,5.3501,5.3332,5.3298,5.3501,5.3501,5.3501,5.3501,5.3501,5.3501,5.3501,5.3501,5.3501,5.3501,5.3501,5.3501,5.3501,5.3501,5.3501,5.3501,5.3501,5.3501,5.3501,5.3501,5.3501,5.3501,5.3501,5.3534,5.3584,5.3534,5.3501,5.3501,5.3501,5.3501,5.3501,5.3501,5.3501,5.3501,5.3501,5.3501,5.3501,5.3501,5.3501,5.3501,5.3501,5.3501,5.3501,5.3501,5.3501,5.3501,5.3501,5.3501,5.3501,5.3501,5.3501,5.4008,5.555,5.5751,5.6207,5.7679,5.7881,5.7881,5.7881,5.7954,5.8227,5.8823,5.896,5.9297,5.9934,5.9998,5.9998,5.9998,5.9998,6.0666,6.2108,6.2944,6.3742,6.4601,6.4058,6.4393,6.5711,6.5774,6.6172,6.6804,6.6804,6.6804,0.0,0.0,0.0,0.0,0.0,0.0,4.8001,0.0,4.8001,0.0,0.0,0.0,0.0,0.0,0.0,0.0,4.9856,4.9972,5.1149,5.1315,5.1615,5.2487,0.0,0.0,5.3179,5.3179,5.3264,0.0,5.3298,5.3298,5.3501,5.3501,5.3501,5.3501,5.3501,5.3501,5.3501,5.3501,5.3501,5.3501,5.3501,5.3501,5.3501,5.3501,5.3501,5.3501,5.3501,5.3501,5.3501,5.3501,5.3501,5.3501,5.3501,5.3501,5.3501,5.3501,5.3501,5.3501,5.3501,5.3501,5.3501,5.3501,5.3501,5.3501,5.3501,5.3501,5.3501,5.3501,5.3501,5.3501,5.3501,5.3501,5.3501,5.3501,5.3501,5.3501,5.3501,5.3501,5.3501,5.3501,5.3501,5.3974,5.5463,5.5681,5.6207,5.7679,5.7881,5.7881,5.7881,5.7881,5.801,5.8298,5.8334,5.844,5.8772,5.8772,5.8772,5.8772,5.958,6.0354,6.1007,6.2204,6.3025,6.3328,6.344,6.3807,6.4428,6.5273,6.5855,6.6172,6.659,6.6804,4.9292,0.0,0.0,0.0,0.0,0.0,0.0,0.0,0.0,0.0,0.0,0.0,0.0,0.0,4.8349,4.9425,0.0,4.9243,5.0502,5.085,5.133,5.231,5.2535,0.0,0.0,5.3076,5.3127,0.0,0.0,5.323,5.3501,5.3501,5.3501,5.3501,5.3501,5.3501,5.3501,5.3501,5.3501,5.3501,5.3501,5.3501,5.3501,5.3501,5.3501,5.3501,5.3501,5.3501,5.3501,5.3501,5.3501,5.3501,5.3501,5.3501,5.3501,5.3501,5.3501,5.3501,5.3501,5.3501,5.3501,5.3501,5.3501,5.3501,5.3501,5.3501,5.3501,5.3501,5.3501,5.3501,5.3501,5.3501,5.3501,5.3501,5.3501,5.3501,5.3501,5.3501,5.3501,5.3501,5.367,5.4211,5.5497,5.5681,5.6207,5.7679,5.7881,5.7881,5.7881,5.7881,5.7881,5.7881,5.7881,5.7881,5.7881,5.7881,5.7983,5.8186,5.9404,6.0199,6.0419,6.1687,6.2381,6.2381,6.2928,6.3308,6.3513,6.4566,6.5305,6.5711,6.6452,6.6804,0.0,0.0,0.0,4.9077,0.0,0.0,0.0,0.0,4.8001,0.0,0.0,0.0,4.8034,4.8017,4.8017,4.8067,4.805,0.0,0.0,4.9806,5.0783,5.2208,5.2535,5.2694,0.0,5.2729,5.2764,0.0,5.3007,0.0,5.3467,5.3501,5.3501,5.3501,5.3501,5.3501,5.3501,5.3501,5.3501,5.3501,5.3501,5.3501,5.3501,5.3501,5.3501,5.3501,5.3501,5.3501,5.3501,5.3501,5.3501,5.3501,5.3501,5.3501,5.3501,5.3501,5.3501,5.3501,5.3501,5.3501,5.3501,5.3501,5.3501,5.3501,5.3501,5.3501,5.3501,5.3501,5.3501,5.3501,5.3501,5.3501,5.3501,5.3501,5.3501,5.3501,5.3501,5.3501,5.3501,5.3501,5.4076,5.4803,5.5581,5.5681,5.6207,5.7679,5.7881,5.7881,5.7881,5.7881,5.7881,5.7881,5.7881,5.7881,5.7881,5.7881,5.8203,5.893,5.9691,6.0452,6.1231,6.1992,6.2381,6.2381,6.242,6.2774,6.3513,6.355,6.4288,6.5711,6.6452,6.6804,0.0,0.0,4.8382,4.8382,0.0,0.0,0.0,0.0,0.0,0.0,0.0,0.0,0.0,4.8001,4.8001,4.8001,4.8001,4.8431,0.0,5.0883,5.1645,5.168,5.2235,5.264,5.2694,0.0,0.0,0.0,5.3161,0.0,5.3501,5.3501,5.3501,5.3501,5.3501,5.3501,5.3501,5.3501,5.3501,5.3501,5.3501,5.3501,5.3501,5.3501,5.3501,5.3501,5.3501,5.3501,5.3501,5.3501,5.3501,5.3501,5.3501,5.3501,5.3501,5.3501,5.3501,5.3501,5.3501,5.3501,5.3501,5.3501,5.3501,5.3501,5.3501,5.3501,5.3501,5.3501,5.3501,5.3501,5.3501,5.3501,5.3501,5.3501,5.3501,5.3501,5.3501,5.3501,5.3501,5.3501,5.4093,5.482,5.5581,5.6105,5.6765,5.7746,5.7881,5.7881,5.7881,5.7881,5.7881,5.7881,5.7881,5.7881,5.7881,5.7881,5.8203,5.8964,5.9691,6.0469,6.1264,6.2009,6.2381,6.2381,6.2381,6.252,6.2774,6.3271,6.3752,6.4253,6.5008,6.5873,4.858,4.8365,0.0,4.8001,4.8001,0.0,4.8001,0.0,0.0,0.0,0.0,0.0,0.0,0.0,4.8001,4.8001,4.8001,4.8431,0.0,5.085,5.1529,5.1348,5.2016,5.257,5.2605,5.2659,5.285,5.3179,5.3144,5.3195,0.0,0.0,5.3501,5.3501,5.3501,5.3501,5.3501,5.3501,5.3501,5.3501,5.3501,5.3501,5.3501,5.3501,5.3501,5.3501,5.3501,5.3501,5.3501,5.3501,5.3501,5.3501,5.3501,5.3501,5.3501,5.3501,5.3501,5.3501,5.3501,5.3501,5.3501,5.3501,5.3501,5.3501,5.3433,5.3382,5.3382,5.3382,5.3382,5.3416,5.3467,5.3501,5.3501,5.3501,5.3501,5.3501,5.3501,5.3501,5.3501,5.3501,5.4313,5.5141,5.5632,5.6528,5.734,5.7814,5.7881,5.7881,5.7881,5.7881,5.7881,5.7881,5.7881,5.7881,5.7881,5.7881,5.8321,5.9336,5.9844,6.0571,6.1653,6.2144,6.2516,6.2787,6.2533,6.2516,6.2787,6.3009,6.3233,6.3513,6.3987,6.4873]}]]